[[{"header":{"parameterUnit":"m.s-1","parameterCategory":1,"la1":30.6,"la2":29.2853,"lo1":-89.7004,"lo2":-87.6739,"dy":0.0162,"dx":0.0183,"nx":112,"ny":82,"refTime":"2026-03-15T12:00:00:Z","depth":0,"parameterNumber":2,"parameterNumberName":"U-component_of_WINDS"},"data":[0.0,0.0,0.0,0.0,0.0,0.0,0.0,0.0,0.0,0.0,0.0,0.0,0.0,0.0,0.0,0.0,0.0,0.0,0.0,0.0,0.0,0.0,0.0,0.0,0.0,0.0,0.0,0.0,0.0,0.0,0.0,0.0,0.0,0.0,0.0,0.0,0.0,0.0,0.0,0.0,0.0,0.0,0.0,0.0,0.0,0.0,0.0,0.0,0.0,0.0,0.0,0.0,0.0,0.0,0.0,0.0,0.0,0.0,0.0,0.0,0.0,0.0,0.0,0.0,0.0,0.0,0.0,0.0,0.0,0.0,0.0,0.0,0.0,0.0,0.0,0.0,0.0,0.0,0.0,0.0,0.0,0.0,0.0,0.0,0.0,0.0,0.0,0.0,0.0,0.0,0.0,1.0636,1.2212,1.3335,1.3682,1.4059,1.3628,1.2086,0.0,0.0,0.0,0.0,0.0,0.0,0.0,0.0,0.0,0.0,0.0,0.0,0.0,0.0,0.0,0.0,0.0,0.0,0.0,0.0,0.0,0.0,0.0,0.0,0.0,0.0,0.0,0.0,0.0,0.0,0.0,0.0,0.0,0.0,0.0,0.0,0.0,0.0,0.0,0.0,0.0,0.0,0.0,0.0,0.0,0.0,0.0,0.0,0.0,0.0,0.0,0.0,0.0,0.0,0.0,0.0,0.0,0.0,0.0,0.0,0.0,0.0,0.0,0.0,0.0,0.0,0.0,0.0,0.0,0.0,0.0,0.0,0.0,0.0,0.0,0.0,0.0,0.0,0.0,0.0,0.0,0.0,0.0,0.0,0.0,0.0,0.0,0.0,0.0,0.0,0.0,0.0,0.0,0.0,0.0,0.0,0.0,0.0,0.0,0.0,0.0,0.0,0.0,0.0,0.9479,1.1846,1.2772,1.3459,1.4124,1.4268,1.374,1.2421,0.0,0.0,0.0,0.0,0.0,0.0,0.0,0.0,0.0,0.0,0.0,0.0,0.0,0.0,0.0,0.0,0.0,0.0,0.0,0.0,0.0,0.0,0.0,0.0,0.0,0.0,0.0,0.0,0.0,0.0,0.0,0.0,0.0,0.0,0.0,0.0,0.0,0.0,0.0,0.0,0.0,0.0,0.0,0.0,0.0,0.0,0.0,0.0,0.0,0.0,0.0,0.0,0.0,0.0,0.0,0.0,0.0,0.0,0.0,0.0,0.0,0.0,0.0,0.0,0.0,0.0,0.0,0.0,0.0,0.0,0.0,0.0,0.0,0.0,0.0,0.0,0.0,0.0,0.0,0.0,0.0,0.0,0.0,0.0,0.0,0.0,0.0,0.0,0.0,0.0,0.0,0.0,0.0,0.0,0.0,0.0,0.0,0.0,0.0,0.0,0.0,0.0,0.0,0.931,1.0452,1.2622,1.3205,1.3695,1.4254,1.4461,1.397,1.255,1.168,0.0,0.0,0.0,0.0,0.0,0.0,0.0,0.0,0.0,0.0,0.0,0.0,0.0,0.0,0.0,0.0,0.0,0.0,0.0,0.0,0.0,0.0,0.0,0.0,0.0,0.0,0.0,0.0,0.0,0.0,0.0,0.0,0.0,0.0,0.0,0.0,0.0,0.0,0.0,0.0,0.0,0.0,0.0,0.0,0.0,0.0,0.0,0.0,0.0,0.0,0.0,0.0,0.0,0.0,0.0,0.0,0.0,0.0,0.0,0.0,0.0,0.0,0.0,0.0,0.0,0.0,0.0,0.0,0.0,0.0,0.0,0.0,0.0,0.0,0.0,0.0,0.0,0.0,0.0,0.0,0.0,0.0,0.0,0.0,0.0,0.0,0.0,0.0,0.0,0.0,0.0,0.0,0.0,0.0,0.0,0.0,0.0,0.0,0.0,0.0,0.0,0.0,1.0698,1.1627,1.3048,1.348,1.3848,1.4268,1.4481,1.3986,1.2607,1.1385,0.0,0.0,0.0,0.0,0.0,0.0,0.0,0.0,0.0,0.0,0.0,0.0,0.0,0.0,0.0,0.0,0.0,0.0,0.0,0.0,0.0,0.0,0.0,0.0,0.0,0.0,0.0,0.0,0.0,0.0,0.0,0.0,0.0,0.0,0.0,0.0,0.0,0.0,0.0,0.0,0.0,0.0,0.0,0.0,0.0,0.0,0.0,0.0,0.0,0.0,0.0,0.0,0.0,0.0,0.0,0.0,0.0,0.0,0.0,0.0,0.0,0.0,0.0,0.0,0.0,0.0,0.0,0.0,0.0,0.0,0.0,0.0,0.0,0.0,0.0,0.0,0.0,0.0,0.0,0.0,0.0,0.0,0.0,0.0,0.0,0.0,0.0,0.0,0.0,0.0,0.0,0.0,0.0,0.0,0.0,0.0,0.0,0.0,0.0,0.0,0.0,0.0,1.1045,1.2509,1.3135,1.348,1.3848,1.4268,1.4095,1.3542,1.2579,1.1024,0.0,0.0,0.0,0.0,0.0,0.0,0.0,0.0,0.0,0.0,0.0,0.0,0.0,0.0,0.0,0.0,0.0,0.0,0.0,0.0,0.0,0.0,0.0,0.0,0.0,0.0,0.0,0.0,0.0,0.0,0.0,0.0,0.0,0.0,0.0,0.0,0.0,0.0,0.0,0.0,0.0,0.0,0.0,0.0,0.0,0.0,0.0,0.0,0.0,0.0,0.0,0.0,0.0,0.0,0.0,0.0,0.0,0.0,0.0,0.0,0.0,0.0,0.0,0.0,0.0,0.0,0.0,0.0,0.0,0.0,0.0,0.0,0.0,0.0,0.0,0.0,0.0,0.0,0.0,0.0,0.0,0.0,0.0,0.0,0.0,0.0,0.0,0.0,0.0,0.0,0.0,0.0,0.0,0.0,0.0,0.0,0.0,0.0,0.0,0.0,0.0,0.0,1.1186,1.2572,0.0,1.3857,1.4264,1.4072,1.4353,1.3889,1.2407,0.0,0.0,0.0,0.0,0.0,0.0,0.0,0.0,0.0,0.0,0.0,0.0,0.0,0.0,0.0,0.0,0.0,0.0,0.0,0.0,0.0,0.0,0.0,0.0,0.0,0.0,0.0,0.0,0.0,0.0,0.0,0.0,0.0,0.0,0.0,0.0,0.0,0.0,0.0,0.0,0.0,0.0,0.0,0.0,0.0,0.0,0.0,0.0,0.0,0.0,0.0,0.0,0.0,0.0,0.0,0.0,0.0,0.0,0.0,0.0,0.0,0.0,0.0,0.0,0.0,0.0,0.0,0.0,0.0,0.0,0.0,0.0,0.0,0.0,0.0,0.0,0.0,0.0,0.0,0.0,0.0,0.0,0.0,0.0,0.0,0.0,0.0,0.0,0.0,0.0,0.0,0.0,0.0,0.0,0.0,0.0,0.0,0.0,0.0,0.0,0.0,0.0,0.9643,1.1611,1.2885,0.0,1.3814,1.4145,1.3538,1.3829,1.3403,1.1858,0.0,0.0,0.0,0.0,0.0,0.0,0.0,0.0,0.0,0.0,0.0,0.0,0.0,0.0,0.0,0.0,0.0,0.0,0.0,0.0,0.0,0.0,0.0,0.0,0.0,0.0,0.0,0.0,0.0,0.0,0.0,0.0,0.0,0.0,0.0,0.0,0.0,0.0,0.0,0.0,0.0,0.0,0.0,0.0,0.0,0.0,0.0,0.0,0.0,0.0,0.0,0.0,0.0,0.0,0.0,0.0,0.0,0.0,0.0,0.0,0.0,0.0,0.0,0.0,0.0,0.0,0.0,0.0,0.0,0.0,0.0,0.0,0.0,0.0,0.0,0.0,0.0,0.0,0.0,0.0,0.0,0.0,0.0,0.0,0.0,0.0,0.0,0.0,0.0,0.0,0.0,0.0,0.0,0.0,0.0,0.0,0.0,0.0,0.0,0.0,0.0,0.0,0.9759,1.2311,1.3657,1.2529,1.3245,1.347,1.2676,1.243,1.1868,0.0,0.0,0.0,0.0,0.0,0.0,0.0,0.0,0.0,0.0,0.0,0.0,0.0,0.0,0.0,0.0,0.0,0.0,0.0,0.0,0.0,0.0,0.0,0.0,0.0,0.0,0.0,0.0,0.0,0.0,0.0,0.0,0.0,0.0,0.0,0.0,0.0,0.0,0.0,0.0,0.0,0.0,0.0,0.0,0.0,0.0,0.0,0.0,0.0,0.0,0.0,0.0,0.0,0.0,0.0,0.0,0.0,0.0,0.0,0.0,0.0,0.0,0.0,0.0,0.0,0.0,0.0,0.0,0.0,0.0,0.0,0.0,0.0,0.0,0.0,0.0,0.0,0.0,0.0,0.0,0.0,0.0,0.0,0.0,0.0,0.0,0.0,0.0,0.0,0.0,0.0,0.0,0.0,0.0,0.0,0.0,0.0,0.0,0.0,0.0,0.0,0.0,0.0,0.9579,1.1895,1.3195,1.2492,1.3404,1.3689,1.2667,1.2764,1.214,1.0478,0.0,0.0,0.0,0.0,0.0,0.0,0.0,0.0,0.0,0.0,0.0,0.0,0.0,0.0,0.0,0.0,0.0,0.0,0.0,0.0,0.0,0.0,0.0,0.0,0.0,0.0,0.0,0.0,0.0,0.0,0.0,0.0,0.0,0.0,0.0,0.0,0.0,0.0,0.0,0.0,0.0,0.0,0.0,0.0,0.0,0.0,0.0,0.0,0.0,0.0,0.0,0.0,0.0,0.0,0.0,0.0,0.0,0.0,0.0,0.0,0.0,0.0,0.0,0.0,0.0,0.0,0.0,0.0,0.0,0.0,0.0,0.0,0.0,0.0,0.0,0.0,0.0,0.0,0.0,0.0,0.0,0.0,0.0,0.0,0.0,0.0,0.0,0.0,0.0,0.0,0.0,0.0,0.0,0.0,0.0,0.0,0.0,0.0,0.0,0.0,0.0,0.0,0.99,1.196,1.312,1.2596,1.3387,1.3531,1.2528,1.244,1.1824,1.0314,0.0,0.0,0.0,0.0,0.0,0.0,0.0,0.0,0.0,0.0,0.0,0.0,0.0,0.0,0.0,0.0,0.0,0.0,0.0,0.0,0.0,0.0,0.0,0.0,0.0,0.0,0.0,0.0,0.0,0.0,0.0,0.0,0.0,0.0,0.0,0.0,0.0,0.0,0.0,0.0,0.0,0.0,0.0,0.0,0.0,0.0,0.0,0.0,0.0,0.0,0.0,0.0,0.0,0.0,0.0,0.0,0.0,0.0,0.0,0.0,0.0,0.0,0.0,0.0,0.0,0.0,0.0,0.0,0.0,0.0,0.0,0.0,0.0,0.0,0.0,0.0,0.0,0.0,0.0,0.0,0.0,0.0,0.0,0.0,0.0,0.0,0.0,0.0,0.0,0.0,0.0,0.0,0.0,0.0,0.0,0.0,0.0,0.0,0.0,0.0,0.0,0.0,1.044,1.2189,1.3152,1.273,1.3213,1.3207,1.2324,1.1802,1.1163,1.0349,0.0,0.0,0.0,0.0,0.0,0.0,0.0,0.0,0.0,0.0,0.0,0.0,0.0,0.0,0.0,0.0,0.0,0.0,0.0,0.0,0.0,0.0,0.0,0.0,0.0,0.0,0.0,0.0,0.0,0.0,0.0,0.0,0.0,0.0,0.0,0.0,0.0,0.0,0.0,0.0,0.0,0.0,0.0,0.0,0.0,0.0,0.0,0.0,0.0,0.0,0.0,0.0,0.0,0.0,0.0,0.0,0.0,0.0,0.0,0.0,0.8216,0.0,0.0,0.0,0.0,0.0,0.0,0.0,0.0,0.0,0.0,0.0,0.0,0.0,0.0,0.0,0.0,0.0,0.0,0.0,0.0,0.0,0.0,0.0,0.0,0.0,0.0,0.0,0.0,0.0,0.0,0.0,0.0,0.0,0.0,0.0,0.0,0.0,0.0,0.0,0.0,0.0,0.9799,1.1168,1.2127,1.2494,1.3093,1.3224,1.2714,1.2058,1.1255,1.0289,0.9072,0.0,0.0,0.0,0.0,0.0,0.0,0.0,0.0,0.0,0.0,0.0,0.0,0.0,0.0,0.0,0.0,0.0,0.0,0.0,0.0,0.0,0.0,0.0,0.0,0.0,0.0,0.0,0.0,0.0,0.0,0.0,0.0,0.0,0.0,0.0,0.0,0.0,0.0,0.0,0.0,0.0,0.0,0.0,0.0,0.0,0.0,0.0,0.0,0.0,0.0,0.0,0.0,0.0,0.0,0.0,0.0,0.0,0.0,0.0,0.0,0.9286,0.0,0.0,0.0,0.0,0.0,0.0,0.0,0.0,0.0,0.0,0.0,0.0,0.0,0.0,0.0,0.0,0.0,0.0,0.0,0.0,0.0,0.0,0.0,0.0,0.0,0.0,0.0,0.0,0.0,0.0,0.0,0.0,0.0,0.0,0.0,0.0,0.0,0.0,0.0,0.0,1.0413,1.1542,1.2392,1.2928,1.3246,1.3344,1.3096,1.2463,1.1733,1.0911,0.9742,0.0,0.0,0.0,0.0,0.0,0.0,0.0,0.0,0.0,0.0,0.0,0.0,0.0,0.0,0.0,0.0,0.0,0.0,0.0,0.0,0.0,0.0,0.0,0.0,0.0,0.0,0.0,0.0,0.0,0.0,0.0,0.0,0.0,0.0,0.0,0.0,0.0,0.0,0.0,0.0,0.0,0.0,0.0,0.0,0.0,0.0,0.0,0.0,0.0,0.0,0.0,0.0,0.0,1.1041,1.142,1.1669,1.141,1.168,1.2303,1.1201,1.0813,1.0967,0.0,0.0,0.0,0.0,0.0,0.0,0.0,0.0,0.0,0.0,0.0,0.0,0.0,0.0,0.0,0.0,0.0,0.0,0.0,0.0,0.0,0.0,0.0,0.0,0.0,1.0609,1.0839,0.0,0.0,0.0,0.0,0.0,0.0,0.0,0.0,0.0,0.0,0.0,0.0,1.1541,1.2431,1.3097,1.3616,1.3634,1.3561,1.3438,1.2849,1.2279,1.1794,1.0671,0.988,0.0,0.0,0.0,0.0,0.0,0.0,0.0,0.0,0.0,0.0,0.0,0.0,0.0,0.0,0.0,0.0,0.0,0.0,0.0,0.0,0.0,0.0,0.0,0.0,0.0,0.0,0.0,0.0,0.0,0.0,0.0,0.0,0.618,0.691,0.0,0.0,0.0,0.0,0.0,0.0,0.0,0.0,0.0,0.0,0.0,0.0,0.0,0.9321,1.0285,1.1221,1.1732,1.1859,1.3074,1.3503,1.3212,1.3523,1.3688,1.3812,1.3291,0.0,1.1982,1.1419,0.0,0.0,0.0,0.0,0.0,0.0,0.0,0.0,0.0,0.0,0.0,0.0,0.0,0.0,0.0,0.0,0.0,0.0,0.0,0.0,0.0,0.0,1.3926,1.3557,1.353,1.3565,0.0,1.1222,0.9083,0.8513,0.8409,0.0,0.0,0.0,0.0,0.0,0.0,0.0,1.2531,1.3107,1.3574,1.422,1.42,1.3948,1.3531,1.2882,1.2475,1.2399,1.1265,1.0809,1.1236,0.978,0.0,0.0,0.0,0.0,0.0,0.0,0.0,0.0,0.0,0.0,0.0,0.0,0.0,0.0,0.0,0.0,0.0,0.0,0.0,0.0,0.0,0.0,0.0,0.0,0.0,0.0,0.0,0.0,0.0,0.5648,0.6345,0.6949,0.6731,0.6453,0.0,0.0,0.0,0.0,0.0,0.0,0.0,0.0,0.0,0.9949,1.0676,1.1315,1.1865,1.2736,1.3212,1.325,1.3815,1.398,1.3867,1.4,1.4077,1.4068,1.3883,1.3637,1.3163,1.2228,1.161,1.1199,0.0,0.0,0.0,0.0,1.0753,1.0647,1.1427,1.1514,0.0,1.0777,0.0,0.0,0.0,0.0,0.0,0.0,0.0,0.0,0.0,0.0,1.3483,1.3174,1.3225,1.3316,1.3117,1.2359,1.1467,0.0,1.044,1.0068,0.8818,0.0,0.0,0.0,0.0,1.1952,1.3119,1.3875,1.4384,1.4638,1.4626,1.4525,1.4308,1.3753,1.3263,1.2927,1.2115,1.165,1.1588,1.0856,1.0146,0.0,0.0,0.0,0.0,0.0,0.0,0.0,0.0,0.0,0.0,0.0,0.0,0.0,0.0,0.0,0.0,0.0,0.0,0.0,0.0,0.0,0.0,0.0,0.0,0.0,0.0,0.0,0.0,0.6332,0.688,0.7233,0.7451,0.7338,0.0,0.0,0.0,0.0,0.0,0.0,0.9753,1.0144,1.0649,1.1332,1.2349,1.2987,1.3203,1.3936,1.4297,1.4297,1.435,1.4408,1.4463,1.458,1.4629,1.4619,1.4502,1.4408,1.4321,1.3134,1.2541,1.2415,1.2003,1.182,1.1782,1.2289,1.2241,1.2076,1.289,1.2988,1.2618,1.2334,0.0,1.1988,1.1309,0.0,0.0,0.0,0.0,1.2057,1.249,1.2946,1.3195,1.3043,1.3206,1.3324,1.3076,1.342,1.3442,0.0,1.2295,1.2047,1.0497,0.0,0.0,0.0,0.0,1.3374,1.3869,1.4672,1.5195,1.5169,1.513,1.5067,1.4916,1.4525,1.4009,1.3248,1.2981,1.2529,1.1826,1.177,1.1263,1.0237,0.0,0.0,0.0,0.0,0.0,0.0,0.0,0.0,0.0,0.0,0.0,0.0,0.0,0.0,0.0,0.0,0.0,0.0,0.0,0.0,0.0,0.0,0.0,0.0,0.0,0.0,0.0,0.0,0.0,0.8576,0.8939,0.0,0.0,0.0,0.0,0.9025,0.9476,0.9962,1.0535,1.1021,1.1752,1.2754,1.3242,1.3662,1.4009,1.4521,1.4746,1.4756,1.5156,1.5342,1.5361,1.5771,1.6027,1.5947,1.5527,1.5342,1.5283,1.435,1.3747,1.3437,1.3418,1.3164,1.2861,1.3291,1.3428,1.3467,1.3863,1.4,1.398,1.3961,1.374,1.3408,1.3359,1.335,0.0,0.0,1.3498,1.4153,1.3973,1.4321,1.4835,1.4937,1.4982,1.4982,1.4937,1.4619,1.4005,0.0,1.3371,1.3791,1.3213,0.0,1.3176,1.3231,1.3816,1.4441,1.504,1.5508,1.5777,1.5843,1.5749,1.5442,1.4953,1.489,1.4375,1.3273,1.3697,1.3518,1.2416,1.2366,1.2212,1.1891,1.0367,0.0,0.0,0.0,0.0,0.0,0.0,0.0,0.0,0.0,0.0,0.0,0.0,0.0,0.0,0.0,0.0,0.0,0.0,0.0,0.0,0.0,0.0,0.0,0.0,0.0,0.0,0.0,0.0,0.9493,0.9926,0.0,0.935,0.9839,1.0391,1.0939,1.1402,1.2002,1.2824,1.3004,1.3259,1.3682,1.4365,1.4805,1.4951,1.5674,1.6035,1.6035,1.6191,1.626,1.6269,1.6426,1.6494,1.6484,1.6328,1.626,1.624,1.5867,1.5002,1.3916,1.3916,1.3818,1.3711,1.3857,1.3916,1.3936,1.4029,1.4077,1.4077,1.4077,1.398,1.3916,1.3916,1.3916,1.3877,1.3834,1.4059,1.4336,1.4481,1.4692,1.4892,1.5003,1.5053,1.4967,1.4655,1.4687,1.458,1.3928,1.3764,1.3549,1.3069,1.3174,1.3283,1.3043,1.3488,1.3935,1.4123,1.4339,1.4461,1.4473,1.4967,1.5254,1.5016,1.5271,1.5078,1.4337,1.4173,1.3745,1.2935,1.2897,1.2701,1.2287,1.1355,1.0298,0.0,0.0,0.0,0.0,0.0,0.0,0.0,0.0,0.0,0.0,0.0,0.0,0.0,0.0,0.0,0.0,0.0,0.0,0.0,0.0,0.0,0.0,0.0,0.0,0.0,0.0,1.0055,0.9678,1.0632,1.1062,1.0464,1.1266,1.2029,1.2577,1.2938,1.3401,1.4058,1.4305,1.446,1.4561,1.541,1.5859,1.5859,1.6436,1.6665,1.6665,1.6665,1.6665,1.6738,1.6885,1.6953,1.6953,1.6953,1.6953,1.6943,1.6797,1.5994,1.4953,1.4953,1.4953,1.4953,1.4953,1.4953,1.4953,1.4953,1.4953,1.4953,1.4953,1.4902,1.4785,1.4785,1.4678,1.4531,1.4503,1.4518,1.4542,1.4606,1.4724,1.4829,1.4882,1.4945,1.4914,1.4604,1.4784,1.4939,1.4639,1.4283,1.395,1.3629,1.3788,1.3888,1.3575,1.3858,1.4124,1.4068,1.4116,1.4182,1.4182,1.4575,1.494,1.5088,1.5199,1.4996,1.442,1.4221,1.3779,1.3015,1.308,1.3006,1.2651,1.2111,1.1118,0.9632,0.0,0.0,0.0,0.0,0.0,0.0,0.0,0.0,0.0,0.0,0.0,0.0,0.0,0.0,0.0,0.0,0.0,0.0,0.0,0.0,0.0,0.0,0.0,0.8032,0.94,1.0138,0.9283,1.1048,1.2124,1.1504,1.2898,1.3828,1.3847,1.3965,1.4038,1.4048,1.4943,1.5449,1.5449,1.6299,1.6748,1.6748,1.6704,1.6714,1.6714,1.6714,1.6714,1.6787,1.7207,1.7402,1.7402,1.7402,1.7402,1.7373,1.6943,1.6714,1.6768,1.6685,1.6665,1.6665,1.6665,1.6665,1.6665,1.6665,1.6665,1.6665,1.6665,1.6436,1.6145,1.6145,1.5791,1.5371,1.4961,1.4966,1.4978,1.4478,1.4626,1.4838,1.487,1.4933,1.5038,1.5028,1.5018,1.5018,1.4997,1.505,1.5108,1.5108,1.5108,1.5084,1.5028,1.5032,0.0,1.4969,1.5023,1.5051,1.5062,1.466,1.4557,1.5039,1.466,1.4144,1.3417,1.3877,1.3664,1.2532,1.2884,1.3106,1.3106,1.2564,1.1699,1.051,0.0,0.0,0.0,0.0,0.0,0.0,0.0,0.0,0.0,0.0,0.0,0.0,0.0,0.0,0.0,0.0,0.0,0.0,0.0,0.0,0.0,0.0,0.9533,0.9551,1.0515,1.131,1.1565,1.2404,1.2913,1.2748,1.3503,1.416,1.447,1.4836,1.5148,1.5518,1.6064,1.6367,1.6367,1.6914,1.7207,1.7207,1.751,1.7656,1.7656,1.7656,1.7656,1.7666,1.7783,1.7842,1.7842,1.7842,1.7842,1.7832,1.7705,1.7656,1.7598,1.6973,1.6665,1.6665,1.6665,1.6665,1.6665,1.6665,1.6665,1.6665,1.6665,1.665,1.6553,1.6553,1.6465,1.6348,1.623,1.6314,1.6336,1.6008,1.6073,1.6222,1.6017,1.6001,1.5908,1.5566,1.5504,1.5401,1.5059,1.4996,1.502,1.502,1.502,1.5012,1.4986,1.4708,0.0,1.4482,1.3931,1.3651,1.4003,1.4253,1.4316,1.4083,1.4903,1.4729,1.3133,1.3506,1.3413,1.2666,1.2731,1.2965,1.3243,1.2539,1.1768,0.0,0.0,0.0,0.0,0.0,0.0,0.0,0.0,0.0,0.0,0.0,0.0,0.0,0.0,0.0,0.0,0.0,0.0,0.0,0.0,0.0,0.0,0.893,0.9861,1.0598,1.1157,1.1722,1.2378,1.2831,1.3182,1.3405,1.4335,1.4925,1.4945,1.5534,1.6074,1.6328,1.6768,1.7002,1.7002,1.7422,1.7646,1.7646,1.7891,1.8096,1.8271,1.8271,1.8369,1.8545,1.8545,1.8545,0.0,1.8545,1.8545,1.8545,1.8545,1.8437,0.0,0.0,0.0,0.0,0.0,1.7266,1.7266,1.7266,1.7266,1.7266,1.7266,1.7139,1.7056,1.7056,1.6992,1.6971,1.6971,1.7034,1.7099,1.69,1.6951,1.7072,1.6886,1.6739,1.6581,1.6312,1.6105,1.5898,1.5628,1.5577,0.0,1.5577,1.5256,1.5059,1.5256,1.4894,1.4666,1.4863,1.4076,1.361,1.3879,1.3841,1.3761,1.3686,1.4218,0.0,0.0,0.0,1.339,1.2965,1.2943,0.0,0.0,0.0,0.0,0.0,0.0,0.0,0.0,1.1008,1.0844,0.0,0.0,0.0,0.0,0.0,0.0,0.0,0.0,0.0,0.0,0.0,0.0,0.0,0.0,0.0,0.0,0.9275,1.0034,1.1223,1.1396,1.1639,1.2282,1.2717,1.313,1.3647,1.5072,1.5708,1.5067,1.6103,1.6743,1.667,0.0,0.0,0.0,0.0,1.8037,1.8076,1.8076,1.8291,1.8711,1.8711,1.8916,1.9287,1.9287,1.9287,1.9287,1.9287,1.9287,1.9287,1.9287,1.9053,1.8662,1.8193,1.8037,1.8076,1.8076,1.8076,1.8076,1.8076,0.0,0.0,1.8008,1.7878,1.7684,1.7684,1.761,1.7425,1.7425,1.7425,1.7478,1.7427,1.748,1.7595,1.7554,1.7297,1.7049,1.6997,1.6736,1.6436,1.6394,1.6384,1.6384,1.6384,1.5701,1.5297,1.5711,1.5421,1.5277,1.5639,1.4925,1.4386,1.4386,0.0,0.0,1.3589,1.3289,1.3186,1.3445,1.3443,1.3365,1.3265,1.3318,1.3384,1.3423,1.3909,1.4224,1.4264,1.4728,1.4969,1.4933,1.2492,1.2196,0.0,0.0,0.0,0.0,0.0,0.0,0.0,0.0,0.0,0.0,0.0,0.0,0.0,0.0,0.0,0.927,1.014,1.0836,1.1137,1.1383,1.1692,1.194,1.2322,1.2765,1.3119,1.4462,1.5131,1.4634,1.6281,1.6975,1.6346,1.7302,0.0,1.7891,1.7969,1.8174,1.8516,1.8446,1.873,1.916,0.0,0.0,1.9287,1.9287,1.9287,1.9287,1.9287,1.9287,1.9287,1.9287,1.9238,1.9082,1.8311,1.8213,1.8446,1.8446,1.8446,1.8446,1.8446,1.8291,1.8008,1.8202,1.821,1.8208,1.8285,1.8292,0.0,1.8298,1.8354,1.8395,1.8029,1.8066,1.8101,1.775,1.7606,1.743,1.7059,1.6915,1.6808,1.6446,1.6384,1.6384,1.6384,1.6229,1.6146,1.6239,1.6177,1.6011,1.5732,1.5204,1.4863,1.4863,1.4366,1.3921,1.3641,1.3869,1.361,1.2629,1.2816,1.3007,1.2962,1.3325,1.3527,1.3459,1.3925,1.4167,1.4123,1.4619,1.5062,1.543,1.4962,1.4947,0.0,0.0,0.0,0.0,0.0,0.0,0.0,0.0,0.0,0.0,0.0,0.7516,0.801,0.0,0.9656,1.0135,1.0646,1.1076,1.1297,1.1458,1.1742,1.2153,1.2498,1.2846,1.2956,1.4264,1.4898,1.4362,1.6071,1.6985,1.656,1.7464,1.8105,1.832,1.832,1.8525,1.8955,1.8965,1.918,1.96,1.96,1.9717,1.9922,1.9922,1.9922,1.9922,1.9922,1.9922,1.9912,1.9687,1.96,1.9541,1.8896,1.8779,1.8965,1.8965,1.8965,1.8965,1.8965,1.8828,1.8652,1.8783,1.8863,1.8943,1.9014,1.9143,1.9222,1.9079,1.9155,1.9178,1.8715,1.8658,1.8671,1.8454,1.8226,1.7999,1.7761,1.7543,1.7265,1.7098,1.7057,1.6984,1.6746,1.6715,1.6632,1.6415,1.6384,1.6301,1.6063,1.5628,1.5339,1.5339,1.4718,1.421,1.3983,1.3962,1.3672,1.2979,1.3362,1.3621,1.3621,1.4066,1.4289,1.4253,1.4475,1.4682,1.4912,1.5432,1.5969,1.6452,1.7063,1.7065,0.0,0.0,0.0,0.0,0.0,0.0,0.0,0.0,0.5745,0.6762,0.765,0.8421,0.8983,0.9701,1.0369,1.0802,1.0955,1.1146,1.1524,1.1622,1.1802,1.2274,1.2641,1.2842,1.2975,1.4162,1.4668,1.4041,1.5765,1.6862,1.6655,1.7586,1.8291,1.8623,1.8721,1.8975,1.9404,1.9404,1.9619,2.0039,2.0039,2.0225,2.0566,2.0566,2.0566,2.0566,2.0566,2.0566,2.0537,2.0185,2.0039,2.0,1.9668,1.9615,1.9605,1.9443,1.9404,1.9404,1.9478,1.9429,1.936,1.9433,1.9598,1.9753,1.9743,1.9939,2.0073,1.9786,1.9823,1.9779,1.9323,1.9266,1.9178,1.9085,1.8785,1.8485,1.8402,1.8102,1.7833,1.7688,1.7668,1.7554,1.7183,1.7038,1.6832,1.6446,1.6384,1.6353,1.626,1.5918,1.5659,1.5566,1.4883,1.4438,1.4438,1.4097,1.389,1.389,1.4242,1.4438,1.4438,1.48,1.4997,1.4997,1.509,1.5332,1.5687,1.6372,1.6915,1.729,1.8448,1.8524,0.4239,0.4661,0.5217,0.5542,0.5815,0.6319,0.0,0.0,0.7113,0.8278,0.8632,0.8844,0.9296,0.9897,1.0502,1.0763,1.1067,1.1329,1.156,1.1622,1.1622,1.1685,1.1966,1.2329,1.291,1.37,1.4003,1.3628,1.5649,1.6585,1.5877,1.7572,1.8584,1.8562,1.9014,1.9414,1.9844,1.9844,2.0059,2.0498,2.0498,2.0518,2.0566,2.0566,2.0566,2.0566,2.0566,2.0566,2.0634,2.0508,2.0498,2.0488,2.0439,2.0584,2.0631,2.0066,1.9844,1.9844,2.0058,1.9885,1.964,1.9949,2.0093,2.0165,2.0288,2.0359,2.0349,2.0287,2.0348,2.0245,1.9799,1.9754,1.965,1.9168,1.9034,1.8878,1.8464,1.834,1.8195,1.7812,1.7668,1.7657,1.7606,1.7255,1.6832,1.6446,1.6384,1.6229,1.5815,1.5722,1.5535,1.5121,1.4987,1.4925,1.4925,1.4873,1.4842,1.4842,1.4894,1.4925,1.4925,1.4976,1.4997,1.4997,1.5401,1.5662,1.5717,1.6688,1.7148,1.7258,1.8431,1.8937,0.5154,0.5681,0.0,0.0,0.6481,0.7038,0.7653,0.765,0.774,0.8804,0.9444,0.9886,1.0068,1.0629,1.1117,0.0,1.1403,1.1498,1.156,1.1622,1.1626,1.1816,1.1955,1.2219,1.268,1.3342,1.369,1.3484,1.518,1.5972,1.5404,1.6938,1.8131,1.8619,1.8807,1.9326,2.0293,2.0293,2.0381,2.0566,2.0566,2.0566,2.0566,2.0566,2.0566,2.0566,2.0566,2.0654,2.0741,2.0741,2.0819,2.0964,2.0964,2.0974,2.1031,2.0611,2.0542,2.0685,2.0761,2.0641,2.0567,2.0727,2.0802,2.0802,2.0866,2.0941,2.0954,2.0687,2.0751,2.0721,2.0265,2.0151,2.0027,1.9582,1.9536,1.9344,1.8878,1.8785,1.8733,1.8547,1.8506,1.8423,1.8154,1.7947,1.7678,1.7233,1.6715,1.6312,1.6115,1.6094,1.5918,1.5452,1.5401,1.5297,1.5018,1.4997,1.4997,1.4997,1.5245,1.5401,1.5401,1.5659,1.5804,1.5804,1.5991,1.6094,1.6094,1.6847,1.7202,1.7202,1.8093,1.8643,0.5529,0.0,0.0,0.6432,0.7062,0.7708,0.7715,0.8037,0.8592,0.9266,0.9996,1.0565,1.0709,1.1152,1.1498,1.1498,1.157,1.1663,1.1637,1.1633,1.1743,1.1889,1.1977,1.2102,1.2489,1.3031,1.3397,1.3484,1.4776,1.5444,1.5118,1.6793,1.8008,1.8592,1.8951,1.962,2.0566,2.0566,2.0566,2.0566,2.0566,2.0566,2.0566,2.0654,2.0654,2.0654,2.0654,2.0741,2.0906,2.0829,2.0896,2.1041,2.1041,2.1051,2.1138,2.0984,2.0984,2.1138,2.1205,2.1128,2.1128,2.1282,2.1282,2.1282,2.1359,2.1512,2.1507,2.1179,2.1162,2.1197,2.0731,2.0617,2.0503,2.0048,1.9851,1.9734,1.9401,1.9158,1.9075,1.9075,1.9075,1.8961,1.863,1.8464,1.8278,1.7957,1.7253,1.6705,1.6581,1.6456,1.6249,1.5918,1.5877,1.5742,1.5411,1.538,1.538,1.538,1.5701,1.5877,1.5877,1.6208,1.6384,1.6384,1.6384,1.6384,1.6384,1.6944,1.7202,1.7324,1.8242,1.891,0.0,0.0,0.6024,0.6497,0.7565,0.8554,0.8455,0.9163,0.9843,0.9853,1.0174,1.0573,1.0989,1.1115,1.1185,1.131,1.1561,1.1725,1.1604,1.1823,1.1911,1.1611,1.1845,1.2102,0.0,1.2826,1.3155,1.347,1.4494,1.5118,1.5133,1.7308,1.8583,1.861,1.985,2.0547,2.0566,2.0566,2.0566,2.0566,2.0566,2.0566,2.0644,2.0819,2.0906,2.0906,2.0906,2.0906,2.0906,2.0654,2.0644,2.0644,2.0644,2.0731,2.0906,2.0906,2.0906,2.0906,2.1138,2.1061,2.0984,2.1359,2.1512,2.1502,2.1731,2.1807,2.1807,2.1787,2.1787,2.1683,2.1217,2.1093,2.0979,2.0514,2.0069,1.9827,1.9806,1.9453,1.9075,1.9075,1.9075,1.9131,1.9054,1.8671,1.8371,1.8361,1.7978,1.7533,1.7018,1.6643,1.6374,1.6363,1.6363,1.6353,1.6343,1.6332,1.6332,1.6332,1.6353,1.6363,1.6363,1.6374,1.6384,1.6384,1.6384,1.6384,1.6384,1.6944,1.7268,1.7534,1.9164,2.0116,0.0,0.0,0.6345,0.6742,0.7557,0.8398,0.8823,0.9169,0.9503,1.0037,0.9907,0.9989,1.0912,1.0793,1.0724,1.124,1.1632,1.1861,1.1604,1.2021,1.216,1.1689,1.1838,0.0,0.0,0.0,0.0,1.347,1.4502,1.4945,1.4736,1.6635,1.763,1.7313,1.8894,1.9775,1.9775,2.0333,2.0566,2.0566,2.0566,2.0566,2.0566,2.0654,2.0731,2.0731,2.0731,2.0819,2.0906,2.0819,2.0896,2.0994,2.1282,2.148,2.152,2.197,2.208,2.192,2.1561,2.1359,2.1359,2.1578,2.1731,2.1731,2.1807,2.1807,2.1807,2.1807,2.1807,2.1766,2.1611,2.1569,2.1455,2.1,2.0772,2.0576,2.0276,1.9841,1.953,1.953,1.9282,1.9075,1.9075,1.894,1.8733,1.8423,1.775,1.7162,1.6997,1.6653,1.6384,1.6384,1.6384,1.6384,1.6384,1.6384,1.6384,1.6384,1.6384,1.6384,1.6384,1.6384,1.6384,1.6384,1.6384,1.6384,1.6384,1.6827,1.7148,1.7402,1.8372,1.9122,0.5327,0.592,0.6569,0.7196,0.7795,0.8293,0.8743,0.8883,0.9033,0.943,0.9253,0.9286,1.0124,1.0166,1.0254,1.0863,1.1553,1.1963,1.1758,1.2189,1.2372,1.1955,1.1984,0.0,0.0,0.0,0.0,1.347,1.4335,1.4759,1.4535,1.6205,1.7031,1.669,1.8407,1.9301,1.9301,2.0167,2.0566,2.0566,2.0566,2.0566,2.0566,2.0654,2.0731,2.0731,2.0731,2.0819,2.0916,2.1065,2.1202,2.1399,2.1929,2.21,2.2141,2.2585,2.2615,2.2432,2.1934,2.1781,2.1863,2.1768,2.1845,2.1948,2.1859,2.1807,2.1807,2.1807,2.1807,2.1807,2.1807,2.1807,2.1725,2.1435,2.1238,2.1031,2.0741,2.0317,1.9996,1.9996,1.9634,1.938,1.938,1.9178,1.8971,1.8671,1.7999,1.746,1.7245,1.7036,1.686,1.686,1.686,1.686,1.686,1.6705,1.6612,1.6612,1.6467,1.6446,1.6612,1.6514,1.6561,1.6728,1.6628,1.6618,1.6775,1.7068,1.7357,1.7726,1.8588,1.9282,0.5958,0.6351,0.6799,0.7752,0.8155,0.832,0.8315,0.8491,0.8521,0.8083,0.822,0.8514,0.0,0.0,0.9649,1.0267,1.129,1.1992,1.1971,1.2343,1.2555,0.0,0.0,0.0,0.0,0.0,0.0,1.3492,0.0,1.4472,1.4472,1.5932,1.6698,1.6617,1.8407,1.9301,1.9222,2.0167,2.0566,2.0566,2.0586,2.0596,2.0605,2.0878,2.0976,2.0976,2.0976,2.0976,2.1005,2.1481,2.164,2.169,2.2392,2.2665,2.2665,2.2695,2.2695,2.2635,2.241,2.2442,2.2493,2.1781,2.1869,2.2213,2.1937,2.188,2.1869,2.1849,2.1849,2.1838,2.1818,2.1807,2.1807,2.1807,2.1476,2.1155,2.1155,2.0793,2.0462,2.0462,2.01,1.9858,1.9768,1.9396,1.9162,1.9075,1.8692,1.8257,1.7823,1.7688,1.7668,1.7668,1.7668,1.7668,1.7668,1.7265,1.7018,1.7018,1.6684,1.6643,1.6997,1.6827,1.6854,1.7364,1.7048,1.7094,1.7579,1.76,1.7916,1.8581,1.9817,2.0523,0.6303,0.6788,0.7277,0.7801,0.7922,0.7908,0.7959,0.7949,0.7938,0.7874,0.7506,0.7441,0.0,0.0,0.0,0.9806,1.1284,0.0,1.2065,1.2731,0.0,1.2577,0.0,1.2826,1.2994,1.3009,0.0,0.0,1.4238,1.4472,1.4472,1.5932,1.6378,1.5748,1.8086,1.8975,1.8318,1.9844,2.0566,2.0566,2.0908,2.1064,2.1074,2.1487,2.1644,2.1644,2.1644,2.1715,2.1878,2.1987,2.2199,2.2412,2.2855,2.3036,2.3066,2.3568,2.3785,2.3724,2.3515,2.3217,2.2839,2.2755,2.2835,2.2907,2.2873,2.2832,2.276,2.2418,2.2325,2.2242,2.189,2.1807,2.1807,2.1807,2.1714,2.1631,2.1631,2.1269,2.0938,2.0938,2.0565,2.0151,1.982,1.9734,1.9536,1.9116,1.8971,1.8733,1.8278,1.7936,1.7668,1.7668,1.7668,1.7668,1.7668,1.7564,1.7492,1.7492,1.745,1.744,1.7492,1.7622,1.7733,1.7959,1.8012,1.8202,1.8463,1.879,1.9091,1.9441,2.0221,2.0635,0.7011,0.7339,0.7705,0.8064,0.7923,0.7663,0.7596,0.7335,0.7048,0.6937,0.6557,0.0,0.0,0.0,0.0,0.0,0.0,0.0,1.2233,1.2723,1.3038,0.0,1.2987,0.0,1.3206,1.3221,1.3433,0.0,1.4289,1.4531,1.467,1.5627,1.5906,1.5431,1.761,1.8886,1.9116,2.027,2.0859,2.0869,2.1309,2.1523,2.1533,2.1777,2.1967,2.205,0.0,2.2132,2.2389,2.2661,2.2825,2.3041,2.3561,2.3744,2.3859,2.419,2.4368,2.4337,2.4165,2.3918,2.3556,2.3318,2.3329,2.3453,2.3246,2.3184,2.3132,2.2873,2.2801,2.2687,2.2232,2.2108,2.2056,2.1859,2.1807,2.1807,2.1807,2.16,2.1362,2.1155,2.0907,2.0586,2.0131,1.9893,1.9744,1.9484,1.9199,1.8971,1.8713,1.8464,1.8319,1.8319,1.8319,1.8319,1.8319,1.8133,1.8019,1.8019,1.7833,1.7812,1.8009,1.8071,1.8246,1.8561,1.8664,1.8918,1.926,1.9503,1.982,2.0128,2.0587,2.0892,0.773,0.7985,0.8064,0.8334,0.8016,0.7529,0.7245,0.6689,0.6171,0.584,0.0,0.5588,0.5602,0.0,0.8081,0.849,0.0,1.1701,1.2372,1.2533,1.2797,1.336,1.3221,1.3184,1.347,1.3492,1.3653,1.4018,1.4311,1.4611,1.4926,1.5248,1.5514,1.5748,1.7196,1.8877,2.0566,2.0947,2.1143,2.1152,2.1592,2.1797,2.1879,2.2007,2.2138,2.2376,2.2353,0.0,2.2837,2.3378,2.3614,2.3655,2.4299,2.454,2.454,2.454,2.454,2.454,2.454,2.454,2.4416,2.3629,2.3639,2.3888,2.3494,2.337,2.335,2.3298,2.3277,2.3174,2.2708,2.2542,2.2397,2.1994,2.1849,2.1807,2.1807,2.1807,2.1683,2.128,2.1207,2.1062,2.0596,2.0193,1.9924,1.9862,1.9458,1.9158,1.9158,1.9106,1.9075,1.9075,1.9075,1.9075,1.9075,1.8702,1.8475,1.8475,1.8123,1.8081,1.8518,1.8406,1.8698,1.9253,1.9225,1.9521,2.0048,2.0048,2.0284,2.0797,2.0967,2.1262,0.8003,0.8296,0.8334,0.8107,0.7889,0.7551,0.6987,0.6423,0.0,0.0,0.0,0.5426,0.5015,0.6463,0.0,0.8129,0.0,0.0,0.0,0.0,1.2965,0.0,0.0,0.0,0.0,0.0,0.0,0.0,0.0,1.4611,1.4926,1.5248,1.6072,1.7521,1.7836,1.8877,2.0566,2.0644,2.0684,2.0684,2.1133,2.1428,2.1609,2.234,2.2834,2.3022,2.3373,0.0,2.3896,2.4053,2.417,2.4341,2.4423,2.454,2.454,2.454,2.454,2.454,2.454,2.454,2.4519,2.4353,2.4364,2.4416,2.4333,2.4302,2.4229,2.3857,2.3764,2.365,2.3184,2.278,2.248,2.2397,2.2087,2.1807,2.1807,2.1807,2.1787,2.1694,2.1683,2.1538,2.1073,2.0928,2.0752,2.0369,1.9924,1.9713,1.9713,1.9313,1.9075,1.9075,1.9075,1.9075,1.9075,1.9058,1.8951,1.8951,1.8878,1.8934,1.9149,1.9272,1.9598,2.0149,2.0328,2.0572,2.0957,2.0957,2.1003,2.1094,2.1514,2.1753,0.8086,0.8328,0.842,0.8037,0.7778,0.7491,0.6959,0.0,0.0,0.0,0.0,0.5313,0.5119,0.0,0.0,0.0,0.0,0.0,0.0,0.0,0.0,0.0,0.0,0.0,0.0,0.0,0.0,0.0,0.0,1.4677,1.5167,1.5343,1.6237,1.7917,1.7997,1.8877,2.0566,2.0801,2.0908,2.0918,2.1357,2.1654,2.1907,2.2562,2.3028,2.3385,2.3831,0.0,2.4378,2.4378,2.4368,2.454,2.454,2.454,2.454,2.454,2.454,2.454,2.454,2.454,2.454,2.454,2.454,2.454,2.454,2.454,2.4498,2.4281,2.4219,2.4115,2.366,2.3381,2.3091,2.2615,2.2149,2.1807,2.1807,2.1807,2.1807,2.1807,2.1807,2.1735,2.1507,2.1269,2.1041,2.0824,2.0389,2.0017,1.9858,1.963,1.9344,1.9162,1.9075,1.9075,1.9075,1.9142,1.9208,1.9208,1.9274,1.9407,1.9473,1.9726,2.0064,2.041,2.0658,2.0914,2.1221,2.1463,2.1588,2.1588,2.2063,2.2433,0.8072,0.8215,0.8254,0.7876,0.7662,0.7374,0.6734,0.6192,0.0,0.0,0.5453,0.5251,0.5388,0.0,0.0,0.0,0.0,0.0,0.0,0.0,0.0,0.0,0.0,0.0,0.0,0.0,0.0,0.0,0.0,0.0,1.5394,1.5431,1.6072,1.7674,1.7755,1.8559,2.0323,2.0591,2.0924,2.1094,2.1526,2.1774,2.2028,2.2649,2.314,2.3494,2.4047,0.0,0.0,2.454,2.454,2.454,2.454,2.454,2.454,2.454,2.454,2.454,2.454,2.454,2.454,2.454,2.454,2.454,2.454,2.454,2.454,2.454,2.454,2.4467,2.4115,2.395,2.365,2.2718,2.2149,2.1807,2.1807,2.1807,2.1807,2.1807,2.1807,2.1807,2.1807,2.1507,2.1269,2.1269,2.0866,2.0452,2.017,2.0035,1.9865,1.9406,1.9204,1.9142,1.9142,1.9274,1.9407,1.9417,1.9615,1.9681,1.9736,2.0053,2.0248,2.0464,2.0775,2.1031,2.1348,2.1702,2.1939,2.2063,2.2665,2.3155,0.7768,0.7849,0.78,0.741,0.7295,0.7012,0.6239,0.0,0.0,0.5382,0.5241,0.5185,0.5465,0.0,0.0,0.0,0.0,0.0,0.0,0.0,0.0,0.0,0.0,0.0,0.0,0.0,0.0,0.0,0.0,0.0,1.5409,1.5431,1.5824,1.678,1.6854,1.7674,1.9381,1.9497,1.9831,2.0625,2.084,2.1103,2.1356,2.2372,2.3012,2.3298,2.4083,0.0,0.0,2.454,2.454,2.454,2.454,2.454,2.454,2.454,2.454,2.454,2.454,2.454,2.454,2.454,2.454,2.454,2.454,2.454,2.454,2.454,2.454,2.4529,2.4488,2.4178,2.365,2.2718,2.2149,2.1807,2.1807,2.1807,2.1807,2.1807,2.1807,2.1807,2.1807,2.1766,2.1745,2.1745,2.1352,2.1104,2.1209,2.0904,2.0544,2.0228,1.967,1.9285,1.9285,1.9473,1.9671,1.9802,1.9868,2.0009,2.0335,2.0335,2.0529,2.0839,2.0903,2.121,2.1827,2.1877,2.2113,2.2543,2.3553,2.4113,0.7526,0.7533,0.7528,0.7291,0.7007,0.6673,0.6236,0.0,0.5198,0.5301,0.5147,0.515,0.5462,0.5709,0.0,0.0,0.0,0.0,0.0,0.0,0.0,0.0,0.0,0.0,0.0,0.0,0.0,0.0,0.0,0.0,1.5131,1.5321,1.5824,1.6698,1.6698,1.7269,1.8487,1.9054,1.946,1.9854,2.0586,2.0984,2.1225,2.2097,2.2611,2.2811,2.3453,0.0,0.0,2.4022,2.4146,2.4167,2.4436,2.454,2.454,2.454,2.454,2.454,2.454,2.454,2.454,2.454,2.454,2.454,2.454,2.454,2.454,2.454,2.454,2.454,2.454,2.4209,2.3712,2.307,2.2563,2.2149,2.1869,2.1807,2.1807,2.1807,2.1807,2.1807,2.1807,2.1807,2.1807,2.1807,2.1717,2.1648,2.1439,2.1458,2.1304,2.0973,2.0552,2.026,2.013,2.0243,2.0432,2.0621,2.0489,2.0464,2.0604,2.0658,2.0775,2.0903,2.1325,2.1628,2.1877,2.2812,2.3344,2.3602,2.4692,2.5148,0.7138,0.7234,0.7287,0.7165,0.6879,0.6474,0.0,0.5536,0.5063,0.5079,0.5035,0.5095,0.5489,0.5754,0.6393,0.0,0.0,0.0,0.0,0.0,0.0,0.0,0.0,0.0,0.0,0.0,0.0,0.0,0.0,0.0,0.0,1.5248,1.5665,1.6304,1.6304,1.6698,1.7594,1.8487,1.9054,1.9371,2.0498,2.1051,2.1292,2.1982,2.2343,2.2522,2.2987,0.0,0.0,2.3536,2.367,2.3722,2.4167,2.4343,2.4364,2.4498,2.454,2.454,2.454,2.454,2.454,2.454,2.454,2.454,2.454,2.454,2.454,2.454,2.454,2.4509,2.4374,2.4012,2.3557,2.3091,2.2625,2.2201,2.188,2.1807,2.1807,2.1807,2.1807,2.1807,2.1807,2.1807,2.1807,2.1807,2.1959,2.206,2.1797,2.2049,2.2158,2.1811,2.1745,2.1583,2.1043,2.1136,2.1284,2.1264,2.1207,2.1169,2.1088,2.1323,2.144,2.144,2.1898,2.2259,2.2603,2.3679,2.4327,2.4705,2.561,2.6164,0.6689,0.6912,0.7085,0.7085,0.6923,0.6531,0.0,0.5545,0.5236,0.4701,0.4806,0.5139,0.5616,0.6307,0.7036,0.0,0.0,0.0,0.0,0.0,0.0,0.0,0.0,0.0,0.0,0.0,0.0,0.0,0.0,0.0,0.0,1.5248,1.5431,1.5431,1.5431,1.5824,1.6698,1.7594,1.8559,1.9599,2.0644,2.1282,2.1522,2.2206,2.2501,0.0,0.0,0.0,0.0,2.3194,2.3194,2.3236,2.3701,2.3888,2.3939,2.4374,2.454,2.454,2.454,2.454,2.454,2.454,2.454,2.454,2.454,2.454,2.454,2.454,2.454,2.4436,2.4002,2.3536,2.308,2.2615,2.2149,2.1818,2.1807,2.1807,2.1807,2.1807,2.1807,2.1807,2.1807,2.1807,2.1807,2.1807,2.1959,2.2252,2.2628,2.2841,2.2952,2.2898,2.329,2.3106,2.1973,2.2056,2.2071,2.172,2.2128,2.223,2.1873,2.2374,2.2698,2.2698,2.2639,2.312,2.4177,2.4177,2.473,2.5824,2.6399,2.6974,0.6503,0.6557,0.6611,0.6611,0.6298,0.5862,0.5491,0.5103,0.4752,0.4546,0.4714,0.4955,0.5287,0.5847,0.6631,0.789,0.0,0.0,0.0,0.0,0.0,0.0,0.0,0.0,0.0,0.0,0.0,0.0,0.0,0.0,0.0,1.4918,1.5196,1.5423,1.5431,1.5582,1.5974,1.7504,1.847,1.8957,2.0634,2.1436,2.1512,2.1876,2.2025,0.0,0.0,0.0,0.0,2.2584,2.2718,2.2791,2.3577,2.3877,2.3929,2.4374,2.454,2.454,2.454,2.454,2.454,2.454,2.454,2.454,2.454,2.454,2.454,2.454,2.454,2.4436,2.3991,2.3774,2.3463,2.2687,2.2387,2.219,2.188,2.1807,2.1807,2.1807,2.1807,2.1807,2.1807,2.1807,2.1883,2.1959,2.2176,2.2478,2.2852,2.3224,2.3463,2.3598,2.3879,2.3697,2.2886,2.3178,2.3467,2.3452,2.3656,2.3743,2.3639,2.3758,2.3835,2.3835,2.4165,2.4469,2.4849,2.5537,2.6284,2.6987,2.717,2.7353,0.0,0.632,0.6396,0.6288,0.5936,0.5533,0.5241,0.4823,0.4495,0.4449,0.4543,0.4801,0.5236,0.5826,0.6654,0.7918,0.0,0.0,0.0,0.0,0.0,0.0,0.0,0.0,0.0,0.0,0.0,0.0,0.0,0.0,0.0,1.4765,1.5168,1.5899,1.559,1.5665,1.6214,1.7577,1.8621,1.9186,2.0779,2.1502,2.1655,2.1731,2.1807,0.0,0.0,0.0,0.0,2.2118,2.2232,2.2304,2.306,2.336,2.3432,2.4064,2.4291,2.4312,2.4478,2.454,2.454,2.454,2.454,2.454,2.454,2.454,2.454,2.454,2.454,2.4436,2.3991,2.3743,2.3422,2.2677,2.2366,2.2159,2.1869,2.1807,2.1807,2.1883,2.1873,2.1959,2.2025,2.2035,2.2101,2.2176,2.2478,2.2777,2.3075,2.3446,2.3824,2.397,2.4127,2.4135,2.3931,2.419,2.4388,2.4279,2.4682,2.4858,2.4649,2.4834,2.49,2.49,2.523,2.5486,2.5692,2.6583,2.7183,2.7523,2.7523,2.7523,0.0,0.6091,0.6288,0.6011,0.5736,0.5466,0.5083,0.4726,0.0,0.4313,0.4412,0.4723,0.5387,0.6135,0.6976,0.8051,0.0,0.0,0.0,0.0,0.0,0.0,0.0,0.0,0.0,0.0,0.0,0.0,0.0,0.0,0.0,1.4735,1.5448,1.6569,1.5891,1.6064,1.7082,1.7971,1.9009,2.0197,2.1098,2.1655,2.1807,2.1807,2.1807,0.0,0.0,0.0,0.0,2.1807,2.1807,2.1849,2.2315,2.2501,2.2604,2.3505,2.3826,2.3898,2.4343,2.4498,2.4498,2.4529,2.454,2.454,2.454,2.454,2.454,2.454,2.454,2.4436,2.395,2.3505,2.306,2.2563,2.2118,2.1807,2.1807,2.1807,2.1883,2.2025,2.2101,2.2176,2.2402,2.2402,2.2478,2.2478,2.2777,2.3075,2.3298,2.3666,2.397,2.4189,2.42,2.4394,2.4933,2.5004,2.4885,2.4489,2.5453,2.5778,2.5259,2.5715,2.5902,2.5902,2.5935,2.6203,2.6739,2.7275,2.7523,2.7523,2.7523,2.7523,0.4778,0.0,0.5567,0.5305,0.5251,0.5209,0.0,0.4674,0.4449,0.0,0.0,0.0,0.0,0.0,0.0,0.0,0.0,0.0,0.0,0.0,0.0,0.0,0.0,0.0,0.0,0.0,0.0,0.0,0.0,0.0,0.0,1.4399,1.4959,1.5836,1.6401,1.7172,1.823,1.9097,1.9816,2.0459,2.1328,2.1731,2.1807,2.1807,2.1807,0.0,0.0,0.0,2.1807,2.1807,2.1807,2.1849,2.2315,2.2501,2.2563,2.3143,2.335,2.3412,2.3877,2.4033,2.4084,2.4436,2.454,2.454,2.454,2.454,2.454,2.454,2.454,2.4353,2.3557,2.3267,2.2977,2.2159,2.189,2.1807,2.1807,2.1959,2.2025,2.2111,2.2327,2.2553,2.2628,2.2777,2.2927,2.3075,2.315,2.3372,2.374,2.3824,2.397,2.4189,2.42,2.4394,2.4933,2.5429,2.5812,2.6115,2.6773,2.7056,2.6915,2.7048,2.7115,2.7115,2.713,2.7196,2.7327,2.7458,2.7523,2.7523,2.7523,2.7523,0.3934,0.4705,0.5368,0.5129,0.5179,0.5162,0.4965,0.0,0.0,0.0,0.0,0.0,0.0,0.0,0.0,0.0,0.0,0.0,0.0,0.0,0.0,0.0,0.0,0.0,0.0,0.0,0.0,0.0,0.0,0.0,0.0,1.415,1.4987,1.6561,1.7058,1.788,1.8948,1.9659,2.0372,2.1098,2.1568,2.1807,2.1807,2.1807,2.1807,0.0,0.0,0.0,2.1807,2.1807,2.1807,2.1828,2.2087,2.218,2.2232,2.2697,2.2873,2.2936,2.3401,2.3567,2.3598,2.3836,2.3919,2.3919,2.3919,2.4064,2.4281,2.4478,2.454,2.4385,2.3681,2.335,2.3008,2.2294,2.1963,2.1807,2.1959,2.2025,2.2176,2.2478,2.2703,2.2927,2.3075,2.3224,2.3298,2.3446,2.353,2.3666,2.3897,2.397,2.4189,2.4539,2.4539,2.4886,2.5721,2.6082,2.6358,2.6645,2.7188,2.7523,2.7523,2.7523,2.7523,2.7523,2.7523,2.7523,2.7523,2.7523,2.7523,2.7523,2.7523,2.7523,0.3378,0.4423,0.5384,0.5109,0.5129,0.5185,0.4973,0.0,0.0,0.0,0.0,0.0,0.0,0.0,0.0,0.0,0.0,0.0,0.0,0.0,0.0,0.0,0.0,0.0,0.0,0.0,0.0,0.0,0.0,0.0,0.0,1.4103,1.5268,1.7449,1.7835,1.8434,1.9399,2.01,2.0847,2.1807,2.1807,2.1807,2.1807,2.1807,2.1807,2.1807,0.0,0.0,2.1807,2.1807,2.1807,2.1807,2.1807,2.1807,2.1859,2.2242,2.2387,2.2459,2.2925,2.3132,2.3184,2.3184,2.3184,2.3184,2.3184,2.3515,2.396,2.4333,2.4488,2.4436,2.3991,2.3536,2.307,2.2683,2.2226,2.1883,2.2101,2.2176,2.2402,2.2927,2.3075,2.3224,2.3604,2.374,2.3813,2.3813,2.4032,2.4177,2.4177,2.4322,2.4599,2.5087,2.5146,2.5581,2.6577,2.6714,2.6714,2.6794,2.7255,2.7523,2.7523,2.7523,2.7523,2.7523,2.7523,2.7523,2.7523,2.7523,2.7523,2.7523,2.7523,2.7523,0.383,0.4843,0.5477,0.4447,0.4649,0.5052,0.0,0.0,0.0,0.0,0.0,0.0,0.0,0.0,0.0,0.0,0.0,0.0,0.0,0.0,0.0,0.0,0.0,0.0,0.0,0.0,0.0,0.0,0.0,0.0,0.0,1.4622,1.5486,1.6252,1.7806,1.9077,2.0066,2.0907,2.1492,2.1807,2.1807,2.1807,2.1807,2.1807,2.1807,2.1807,0.0,2.1807,2.1807,2.1807,2.1807,2.1807,2.1807,2.1807,2.1818,2.189,2.1911,2.1973,2.2439,2.2863,2.3184,2.3184,2.3184,2.3184,2.3184,2.3515,2.3888,2.396,2.425,2.4436,2.3991,2.3536,2.3151,2.2841,2.237,2.2101,2.2327,2.2628,2.2927,2.3001,2.3372,2.3751,2.3824,2.4383,2.4802,2.4802,2.5229,2.5581,2.5581,2.5652,2.5652,2.5721,2.5791,2.6013,2.6645,2.6714,2.6918,2.7323,2.7456,2.7523,2.7523,2.7523,2.7523,2.7523,2.7523,2.7523,2.7523,2.7523,2.7523,2.7523,2.7523,2.759,0.3547,0.436,0.5014,0.4461,0.5415,0.6416,0.0,0.0,0.0,0.0,0.0,0.0,0.0,0.0,0.0,0.0,0.0,0.0,0.0,0.0,0.0,0.0,0.0,0.0,0.0,0.0,0.0,0.0,0.0,0.0,1.4266,1.5193,1.6232,1.7225,1.8128,1.9164,2.0285,2.0728,2.1236,2.1807,2.1807,2.1807,2.1807,2.1807,2.1807,2.1807,0.0,2.1807,2.1807,2.1807,2.1807,2.1807,2.1807,2.1807,2.1807,2.1807,2.1807,2.1838,2.2056,2.2263,2.2439,2.2439,2.2439,2.2439,2.2439,2.277,2.3184,2.3432,2.4002,2.4436,2.3991,2.3794,2.3688,2.3297,2.2981,2.2862,2.3091,2.3394,2.3685,2.3921,2.4371,2.4623,2.4477,2.502,2.5349,2.5052,2.5499,2.5931,2.5931,2.5931,2.6,2.6289,2.6358,2.6564,2.7053,2.7121,2.7255,2.7456,2.7523,2.7523,2.7523,2.7523,2.7523,2.7523,2.7523,2.7523,2.7523,2.759,2.7656,2.7656,2.7802,2.7868,0.3409,0.4069,0.4737,0.485,0.0,0.0,0.0,0.0,0.0,0.0,0.0,0.0,0.0,0.0,0.0,0.0,0.0,0.0,0.0,0.0,0.0,0.0,0.0,0.0,0.0,0.0,0.0,0.0,0.0,0.0,1.4832,1.5799,1.6912,1.8148,1.8437,1.9084,2.0265,2.0265,2.0679,2.1487,2.159,2.1642,2.1652,2.1756,2.1807,2.1807,2.1807,2.1807,2.1807,2.1807,2.1807,2.1807,2.1807,2.1807,2.1807,2.1807,2.1807,2.1807,2.1807,2.1807,2.1807,2.1807,2.1807,2.1807,2.1807,2.2128,2.2594,2.306,2.3764,2.4418,2.4179,2.42,2.4187,2.3992,2.3774,2.3742,2.3974,2.4205,2.45,2.5032,2.5417,2.5643,2.5529,2.5991,2.6299,2.5876,2.6313,2.6664,2.6664,2.6552,2.6615,2.7041,2.6994,2.7053,2.7469,2.7523,2.7523,2.7523,2.7523,2.7523,2.7523,2.7523,2.7523,2.7523,2.7523,2.7523,2.759,2.7723,2.7842,2.7908,2.8066,2.8197,0.402,0.4576,0.5166,0.5528,0.0,0.0,0.0,0.0,0.0,0.0,0.0,0.0,0.0,0.0,0.0,0.0,0.0,0.0,0.0,0.0,0.0,0.0,0.0,0.0,0.0,0.0,0.0,0.0,0.0,0.0,1.4601,1.6349,1.7345,1.7442,1.8492,1.9344,1.9869,1.981,2.0048,2.0534,2.0959,2.1166,2.1176,2.1611,2.1807,2.1807,2.1807,2.1807,2.1807,2.1807,2.1807,2.1807,2.1807,2.1807,2.1807,2.1807,2.1807,2.1807,2.1807,2.1807,2.1807,2.1807,2.1807,2.1807,2.1807,2.2128,2.2594,2.306,2.37,2.4336,2.4714,2.4661,2.457,2.4957,2.4749,2.4546,2.4949,2.5182,2.5481,2.606,2.6387,2.6713,2.7299,2.7875,2.8227,2.8176,2.8705,2.9086,2.9086,2.8591,2.8239,2.8252,2.7769,2.7469,2.7523,2.7523,2.7523,2.7523,2.7523,2.7523,2.7523,2.7523,2.7523,2.7523,2.7523,2.759,2.7776,2.7776,2.7973,2.8287,2.83,2.8481,0.3854,0.4731,0.5659,0.5849,0.0,0.0,0.0,0.0,0.0,0.0,0.0,0.0,0.0,0.0,0.0,0.0,0.0,0.0,0.0,0.0,0.0,0.0,0.0,0.0,0.0,0.0,0.0,0.0,0.0,0.0,0.0,1.7276,1.8046,1.825,1.8664,1.9091,1.9323,1.9334,1.9417,1.9592,2.0327,2.069,2.07,2.1166,2.1373,2.1393,2.1683,2.1807,2.1807,2.1807,2.1807,2.1807,2.1807,2.1807,2.1807,2.1807,2.1807,2.1807,2.1807,2.1807,2.1807,2.1807,2.1807,2.1807,2.1807,2.1921,2.2159,2.2783,2.3482,2.4172,2.4925,2.5241,2.5445,2.5766,2.5636,2.5667,2.623,2.6477,2.6853,2.7444,2.7851,2.8139,2.8037,2.8512,2.8768,2.8426,2.8905,2.9274,2.9274,2.9078,2.8935,2.8935,2.8412,2.8059,2.8059,2.7732,2.7523,2.7523,2.7523,2.7523,2.7523,2.7523,2.7523,2.7523,2.759,2.7723,2.7776,2.8118,2.8379,2.8509,2.8702,2.8894,0.4151,0.4972,0.5897,0.0,0.0,0.0,0.0,0.0,0.0,0.0,0.0,0.0,0.0,0.0,0.0,0.0,0.0,0.0,0.0,0.0,0.0,0.0,0.0,0.0,0.0,0.0,0.0,0.0,0.0,0.0,0.0,1.7852,1.8482,1.8684,1.8808,1.8942,1.9075,1.9075,1.9075,1.9075,1.9696,2.0079,2.0234,2.069,2.0897,2.0917,2.1238,2.1455,2.159,2.159,2.1673,2.1807,2.1807,2.1807,2.1807,2.1807,2.1807,2.1807,2.1807,2.1807,2.1807,2.1807,2.1959,2.2101,2.1883,2.2025,2.2423,2.2956,2.3484,2.4083,2.5348,2.581,2.6063,2.6373,2.6363,2.6508,2.7317,2.7565,2.7867,2.8694,2.9145,2.9359,2.9214,2.9466,2.9651,2.9266,2.9593,2.9823,2.9823,2.9653,2.9483,2.9301,2.8739,2.8386,2.8386,2.7863,2.7523,2.7523,2.7523,2.7523,2.7523,2.7523,2.7523,2.7523,2.7723,2.7842,2.7973,2.8392,2.8716,2.8844,2.9099,2.9226,0.5092,0.5413,0.0,0.0,0.0,0.0,0.0,0.0,0.0,0.0,0.0,0.0,0.0,0.0,0.0,0.0,0.0,0.0,0.0,0.0,0.0,0.0,0.0,0.0,0.0,0.0,0.0,0.0,0.0,0.0,0.0,1.791,1.8472,1.8482,1.8875,1.9075,1.9075,1.9075,1.9075,1.9075,1.9075,1.9313,1.9837,2.0213,2.042,2.042,2.042,2.0679,2.1104,2.1114,2.1383,2.1807,2.1807,2.1807,2.1807,2.1807,2.1807,2.1807,2.1807,2.1807,2.1807,2.1807,2.2327,2.2852,2.2101,2.2553,2.3397,2.3829,2.3842,2.4204,2.6193,2.6484,2.6302,2.6798,2.688,2.7126,2.7995,2.8247,2.8554,2.9793,3.0037,3.019,3.0911,3.0986,3.0986,3.0986,3.0986,3.0986,3.0986,3.049,2.9928,2.9353,2.8765,2.8399,2.8386,2.7863,2.7536,2.7523,2.7523,2.7523,2.7523,2.7523,2.7523,2.7523,2.7723,2.7973,2.8287,2.8509,2.8908,2.9415,2.9429,2.9491,0.5275,0.5761,0.0,0.0,0.0,0.0,0.0,0.0,0.0,0.0,0.0,0.0,0.0,0.0,0.0,0.0,0.0,0.0,0.0,0.0,0.0,0.0,0.0,0.0,0.0,0.0,0.0,0.0,0.0,0.0,0.0,1.7671,1.8151,1.8664,1.8808,1.8942,1.9075,1.9075,1.9075,1.9075,1.9075,1.9137,1.9292,1.9748,1.9955,1.9975,2.0286,2.0503,2.0659,2.0979,2.1383,2.1807,2.1807,2.1807,2.1807,2.1807,2.1807,2.1883,2.2478,2.2681,2.2872,2.3243,2.3756,2.4108,2.3756,2.3975,2.436,2.4571,2.4885,2.5284,2.6188,2.6602,2.6818,2.7203,2.7567,2.7891,2.82,2.8574,2.9151,2.9928,3.04,3.0748,3.0986,3.0986,3.0986,3.0986,3.0986,3.0986,3.0986,3.083,3.0673,3.0503,2.9967,2.9457,2.9052,2.8464,2.8022,2.7749,2.7723,2.7656,2.7523,2.7656,2.7723,2.7723,2.7973,2.83,2.8509,2.8844,2.9099,2.9429,3.0353,3.074,0.5783,0.0,0.0,0.0,0.0,0.0,0.0,0.0,0.0,0.0,0.0,0.0,0.0,0.0,0.0,0.0,0.0,0.0,0.0,0.0,0.0,0.0,0.0,0.0,0.0,0.0,0.0,0.0,0.0,0.0,0.0,1.7486,1.788,1.8522,1.8598,1.8823,1.9075,1.9075,1.9075,1.9075,1.9075,1.9075,1.9085,1.9354,1.9557,1.9578,1.9965,2.0162,2.0193,2.0648,2.1114,2.1528,2.1528,2.1642,2.1807,2.1807,2.2014,2.2446,2.2894,2.339,2.3868,2.4241,2.4672,2.5028,2.4612,2.4886,2.5252,2.5392,2.5563,2.5804,2.6611,2.7033,2.7286,2.7348,2.7655,2.7952,2.8233,2.8733,2.9361,2.9978,3.0594,3.0986,3.0986,3.0986,3.0986,3.0986,3.0986,3.0986,3.0986,3.0986,3.0986,3.0986,3.0551,2.9974,2.9398,2.8934,2.8409,2.7961,2.7987,2.7908,2.7842,2.7855,2.7921,2.7973,2.83,2.8624,2.9085,2.9338,2.9826,3.0454,3.1199,3.1689,0.0,0.0,0.0,0.0,0.0,0.0,0.0,0.0,0.0,0.0,0.0,0.0,0.0,0.0,0.0,0.0,0.0,0.0,0.0,0.0,0.0,0.0,0.0,0.0,0.0,0.0,0.0,0.0,0.0,0.0,0.0,1.7286,1.7614,1.8053,1.8297,1.8578,1.9003,1.9054,1.9075,1.9075,1.9075,1.9075,1.9075,1.9075,1.9075,1.9096,1.9588,1.9796,1.9858,2.0193,2.0638,2.1062,2.1093,2.1447,2.1897,2.1939,2.251,2.3368,2.343,2.4013,2.4803,2.4886,2.538,2.5812,2.5169,2.5533,2.6264,2.6264,2.5988,2.6045,2.7175,2.7575,2.7589,2.7432,2.7447,2.7618,2.8091,2.8667,2.9282,2.9822,3.0477,3.0908,3.0908,3.0947,3.0986,3.0986,3.0986,3.0986,3.0986,3.0986,3.0986,3.1061,3.0737,3.0256,2.9676,2.9342,2.8919,2.8345,2.8475,2.8514,2.8514,2.8316,2.8197,2.8352,2.8573,2.9113,2.9893,3.014,3.0899,3.2075,3.2195,3.2581,0.0,0.0,0.0,0.0,0.0,0.0,0.0,0.0,0.0,0.0,0.0,0.0,0.0,0.0,0.0,0.0,0.0,0.0,0.0,0.0,0.0,0.0,0.0,0.0,0.0,0.0,0.0,0.0,0.0,0.0,1.6799,1.694,1.7216,1.7802,1.8206,1.8433,1.8526,1.8889,1.9075,0.0,1.9075,1.9075,1.9075,1.9075,1.9075,1.9075,1.9178,1.9427,1.9837,1.9862,2.0162,2.0607,2.0969,2.167,2.2433,2.2805,2.3514,2.4446,2.5028,2.5463,2.5906,2.6358,2.6769,2.7108,2.6824,2.6973,2.7175,2.7175,2.7175,2.7175,2.7456,2.7481,2.753,2.7524,2.7816,2.8079,2.7721,2.814,2.8612,2.8752,2.9601,3.032,3.032,3.0699,3.0986,3.0986,3.0986,3.0986,3.0986,3.0986,3.1061,3.1198,3.1167,3.0997,3.0686,3.0596,3.047,3.0147,3.0173,3.024,3.0374,2.9258,2.8675,2.8675,2.9247,2.9924,3.0797,3.1217,3.1907,3.2786,3.3769,3.4284,0.0,0.0,0.0,0.0,0.0,0.0,0.0,0.0,0.0,0.0,0.0,0.0,0.0,0.0,0.0,0.0,0.0,0.0,0.0,0.0,0.0,0.0,0.0,0.0,0.0,0.0,0.0,0.0,0.0,1.6052,1.6451,1.654,1.6814,1.7327,1.7616,1.7843,1.8071,1.8516,1.8733,1.8744,1.8961,1.9075,1.9075,1.9075,1.9075,1.9075,1.9075,1.921,1.9427,1.9427,1.9696,2.0201,2.0773,2.149,2.2306,2.3131,2.4084,2.503,2.5726,2.6333,2.6824,2.7134,2.7335,2.7456,2.7403,2.7469,2.7523,2.7523,2.7523,2.7523,2.7523,2.7523,2.7523,2.7523,2.7758,2.7889,2.7589,2.7968,2.8386,2.8386,2.9327,3.0137,3.0137,3.0607,3.0986,3.0986,3.0986,3.0986,3.0986,3.1061,3.1198,3.1272,3.1569,3.1562,3.1186,3.133,3.1198,3.0801,3.1149,3.1349,3.1415,3.1013,3.0658,3.0367,3.094,3.1613,3.2382,3.2627,3.3275,3.4227,3.4851,3.5324,0.0,0.0,0.0,0.0,0.0,0.0,0.0,0.0,0.0,0.0,0.0,0.0,0.0,0.0,0.0,0.0,0.0,0.0,0.0,0.0,0.0,0.0,0.0,0.0,0.0,0.0,0.0,0.0,0.0,1.6114,1.6171,1.6306,1.655,1.6922,1.6935,1.7162,1.7605,1.805,1.8268,1.8278,1.8733,1.8992,1.9075,1.9075,1.9075,1.9075,1.9075,1.9075,1.9075,1.9142,1.9427,1.9975,2.0773,2.1453,2.2207,2.3454,2.4529,2.5419,2.5995,2.6684,2.7406,2.7497,2.7523,2.7523,2.7523,2.7523,2.7523,2.7523,2.7523,2.7523,2.7523,2.7523,2.7523,2.7523,2.7523,2.7523,2.7523,2.7902,2.8229,2.8229,2.9183,3.0019,3.0111,3.0607,3.0986,3.0986,3.0986,3.0986,3.1061,3.1198,3.1347,3.1421,3.1877,3.2051,3.1619,3.1832,3.182,3.1322,3.199,3.2385,3.2385,3.3064,3.3191,3.2645,3.2874,3.3315,3.3955,3.4076,3.4607,3.566,3.566,3.5953,0.0,0.0,0.0,0.0,0.0,0.0,0.0,0.0,0.0,0.0,0.0,0.0,0.0,0.0,0.0,0.0,0.0,0.0,0.0,0.0,0.0,0.0,0.0,0.0,0.0,0.0,0.0,0.0,1.6009,1.6181,1.6374,1.6374,1.6405,1.6467,1.6839,1.7018,1.708,1.7595,1.7812,1.7823,1.8257,1.8682,1.9075,1.9075,1.9075,1.9075,1.9075,1.9075,1.9142,1.9208,1.9626,2.0281,2.0964,2.2155,2.3524,2.4063,2.4935,2.5818,2.6388,2.6713,2.687,2.7366,2.7523,2.7523,2.7523,2.7523,2.7523,2.7523,2.7523,2.7523,2.7523,2.7523,2.7523,2.7523,2.7523,2.7523,2.7523,2.7589,2.7641,2.7641,2.8595,2.9549,3.0045,3.0607,3.0986,3.0986,3.0986,3.1061,3.1272,3.1272,3.1495,3.2023,3.2169,3.2359,3.2735,3.2792,3.2919,3.3003,3.3514,3.3825,3.3825,3.4821,3.5289,3.5224,3.4162,3.4,3.4634,3.508,3.563,3.6353,3.6353,3.6399,0.0,0.0,0.0,0.0,0.0,0.0,0.0,0.0,0.0,0.0,0.0,0.0,0.0,0.0,0.0,0.0,0.0,0.0,0.0,0.0,0.0,0.0,0.0,0.0,0.0,0.0,0.0,0.0,1.6192,1.6306,1.6384,1.6384,1.6384,1.6384,1.657,1.6663,1.6663,1.7059,1.742,1.7668,1.7926,1.8247,1.8682,1.8682,1.8827,1.9075,1.9208,1.9208,1.9208,1.9407,1.9846,2.0549,2.1353,2.2261,2.3331,2.4354,2.5019,2.5419,2.5994,2.6412,2.6713,2.6974,2.7262,2.7523,2.7523,2.7523,2.7523,2.7523,2.7523,2.7523,2.7523,2.7523,2.7523,2.7523,2.7523,2.7523,2.7523,2.7523,2.7628,2.7941,2.8699,2.9457,3.0032,3.0607,3.0986,3.0986,3.1136,3.1198,3.1272,3.1582,3.1877,3.2182,3.2444,3.2717,3.2988,3.3072,3.3353,3.3701,3.4221,3.4677,3.4942,3.5752,3.6163,3.6163,3.5583,3.5492,3.5783,3.5984,3.6199,3.6492,3.6492,3.6492,0.0,0.0,0.0,0.0,0.0,0.0,0.0,0.0,0.0,0.0,0.0,0.0,0.0,0.0,0.0,0.0,0.0,0.0,0.0,0.0,0.0,0.0,0.0,0.0,0.0,0.0,0.0,0.0,1.6306,1.6384,1.6384,1.6384,1.6384,1.6384,1.6384,1.6384,1.6384,1.6715,1.7038,1.7492,1.7492,1.7781,1.8269,1.8394,1.8708,1.9031,1.9233,1.9407,1.966,1.9868,2.042,2.1215,2.1916,2.2604,2.3258,2.439,2.4753,2.4831,2.5406,2.589,2.6295,2.6582,2.6961,2.734,2.7484,2.7523,2.7523,2.7523,2.7523,2.7523,2.7523,2.7523,2.7523,2.7523,2.7523,2.7523,2.7523,2.7523,2.7693,2.8268,2.8869,2.9457,3.0032,3.0607,3.0986,3.1061,3.1198,3.1347,3.1495,3.2009,3.2444,3.2588,3.3129,3.3465,3.3465,3.3618,3.3908,3.4274,3.4824,3.5285,3.5688,3.6226,3.6492,3.6492,3.6492,3.6492,3.6492,3.6492,3.6492,3.6492,3.6492,3.6492,0.0,0.0,0.0,0.0,0.0,0.0,0.0,0.0,0.0,0.0,0.0,0.0,0.0,0.0,0.0,0.0,0.0,0.0,0.0,0.0,0.0,0.0,0.0,0.0,0.0,0.0,0.0,0.0,1.6306,1.6384,1.6384,1.6384,1.6384,1.6384,1.6384,1.6384,1.6384,1.6405,1.6632,1.7018,1.7018,1.7376,1.7936,1.8459,1.8743,1.8892,1.9217,1.9781,2.0537,2.0764,2.1553,2.2701,2.2955,2.3471,2.4054,2.4093,2.4164,2.4243,2.4818,2.5088,2.5297,2.6321,2.6687,2.6817,2.7366,2.7523,2.7523,2.7523,2.7523,2.7523,2.7523,2.7523,2.7523,2.7523,2.7523,2.7523,2.7523,2.7523,2.7693,2.8268,2.8869,2.9457,3.0032,3.0607,3.1061,3.1272,3.1272,3.1495,3.2096,3.2547,3.3087,3.3659,3.4192,3.4595,3.481,3.481,3.481,3.4876,3.535,3.5688,3.5688,3.6226,3.6492,3.6492,3.6492,3.6492,3.6492,3.6492,3.6492,3.6492,3.6492,3.6492,0.0,0.0,0.0,0.0,0.0,0.0,0.0,0.0,0.0,0.0,0.0,0.0,0.0,0.0,0.0,0.0,0.0,0.0,0.0,0.0,0.0,0.0,0.0,0.0,0.0,0.0,0.0,0.0,0.0,1.6063,1.6363,1.6384,1.6384,1.6384,1.6384,1.6384,1.6384,1.6384,1.6514,1.6717,1.6717,1.7074,1.7645,1.7935,1.8462,1.923,1.9761,2.0322,2.0816,2.1439,2.2163,2.3015,2.3088,2.3531,2.4112,2.4112,2.4112,2.4151,2.4347,2.4661,2.5092,2.5876,2.6373,2.6778,2.7353,2.7523,2.7523,2.7523,2.7523,2.7523,2.7523,2.7523,2.7523,2.7523,2.7523,2.7523,2.7523,2.7811,2.8137,2.8347,2.917,2.9889,3.0098,3.0682,3.1198,3.1272,3.1896,3.239,3.2618,3.3422,3.4041,3.4259,3.4595,3.481,3.4876,3.4876,3.5073,3.5415,3.5608,3.5816,3.6226,3.6414,3.6492,3.6492,3.6492,3.6492,3.6492,3.6492,3.6492,3.6492,3.6492,3.6492,0.0,0.0,0.0,0.0,0.0,0.0,0.0,0.0,0.0,0.0,0.0,0.0,0.0,0.0,0.0,0.0,0.0,0.0,0.0,0.0,0.0,0.0,0.0,0.0,0.0,0.0,0.0,0.0,0.0,0.0,1.6125,1.6146,1.6218,1.6374,1.6384,1.6384,1.6384,1.6384,1.6477,1.657,1.6637,1.692,1.747,1.789,1.8541,1.9354,2.0519,2.1146,2.1451,2.2175,2.2847,2.3412,2.3412,2.3721,2.4112,2.4112,2.4112,2.4112,2.4112,2.436,2.4779,2.5354,2.5916,2.6491,2.7066,2.7379,2.7523,2.7523,2.7523,2.7523,2.7523,2.7523,2.7523,2.7523,2.7523,2.7523,2.759,2.8048,2.8438,2.8634,2.9529,3.0262,3.0459,3.1229,3.1776,3.1823,3.2648,3.3353,3.3478,3.4312,3.4861,3.4927,3.5285,3.5415,3.5415,3.5415,3.5608,3.5958,3.5958,3.6148,3.6492,3.6492,3.6492,3.6492,3.6492,3.6492,3.6492,3.6492,3.6492,3.6492,3.6492,3.6492,0.0,0.0,0.0,0.0,0.0,0.0,0.0,0.0,0.0,0.0,0.0,0.0,0.0,0.0,0.0,0.0,0.0,0.0,0.0,0.0,0.0,0.0,0.0,0.0,0.0,0.0,0.0,0.0,1.4976,1.5183,1.5639,1.568,1.5898,1.6343,1.6374,1.6384,1.6431,1.6431,1.6477,1.6627,1.6751,1.6987,1.7401,1.8351,1.8884,1.9111,2.1231,2.2253,2.247,2.2907,2.3531,2.4112,2.4112,2.4112,2.4112,2.4112,2.4112,2.4112,2.4112,2.4112,2.4217,2.4779,2.5354,2.5929,2.6504,2.7079,2.7523,2.7523,2.7523,2.7523,2.7523,2.7523,2.7523,2.7523,2.7523,2.759,2.7789,2.8116,2.8651,2.917,2.9889,3.0613,3.1254,3.2055,3.2761,3.2875,3.3547,3.4163,3.4581,3.5124,3.5544,3.5688,3.6226,3.6492,3.6492,3.6492,3.6492,3.6492,3.6492,3.6492,3.6492,3.6492,3.6492,3.6492,3.6492,3.6492,3.6492,3.6492,3.6492,3.6492,3.6492,3.6492,0.5196,0.0,0.0,0.0,0.0,0.0,0.0,0.0,0.0,0.0,0.0,0.0,0.0,0.0,0.0,0.0,0.0,0.0,0.0,0.0,0.0,0.0,0.0,0.0,0.0,0.0,0.0,0.0,1.449,1.4707,1.5163,1.5504,1.5742,1.5877,1.6208,1.6431,1.6524,1.6524,1.6853,1.7512,1.7579,1.7909,1.8518,1.8917,1.9287,1.9713,2.0789,2.17,2.2548,2.3436,2.3923,2.4112,2.4112,2.4112,2.4112,2.4112,2.4112,2.4112,2.4112,2.4112,2.4217,2.4779,2.5354,2.5929,2.6504,2.7079,2.7523,2.7523,2.7523,2.7523,2.7523,2.759,2.7723,2.7723,2.7802,2.7947,2.8,2.8865,2.9611,2.9658,3.0506,3.1409,3.1703,3.2345,3.2946,3.3073,3.4163,3.5044,3.519,3.5737,3.6226,3.6289,3.6429,3.6492,3.6492,3.6492,3.6492,3.6492,3.6492,3.6492,3.6492,3.6492,3.6492,3.6492,3.6492,3.6492,3.6492,3.6492,3.6492,3.6492,3.6492,3.6492,0.0,0.0,0.0,0.0,0.0,0.0,0.0,0.76,0.0,0.0,0.0,0.0,0.0,0.0,0.0,0.0,0.0,0.0,0.0,0.0,0.0,0.0,0.0,0.0,0.0,1.3621,1.3724,1.4003,1.4014,1.4221,1.4687,1.5152,1.5401,1.5401,1.5846,1.6297,1.6654,1.6858,1.739,1.8201,1.8333,1.8602,1.9093,1.9384,1.9661,1.9982,2.0818,2.1504,2.2185,2.328,2.389,2.4112,2.4112,2.4112,2.4112,2.4112,2.4112,2.4112,2.4112,2.4112,2.4178,2.4504,2.5158,2.589,2.6216,2.6883,2.7523,2.7523,2.759,2.7656,2.7656,2.7789,2.7921,2.7973,2.8235,2.8481,2.8675,2.9879,3.0867,3.0337,3.1384,3.2345,3.269,3.3422,3.3959,3.4109,3.5124,3.5879,3.5879,3.6211,3.6492,3.6492,3.6492,3.6492,3.6492,3.6492,3.6492,3.6492,3.6492,3.6492,3.6492,3.6492,3.6492,3.6492,3.6492,3.6554,3.66,3.6554,3.6554,3.66,3.66,3.6616,0.5995,0.0,0.0,0.0,0.0,0.0,0.8293,0.7862,0.0,0.0,0.0,0.0,0.0,0.0,0.0,0.0,0.0,0.0,0.0,0.0,0.0,0.0,0.0,0.0,1.3538,1.3589,1.3621,1.3621,1.3621,1.3796,1.421,1.4676,1.4925,1.4925,1.5477,1.6041,1.6758,1.7245,1.7915,1.8821,1.9016,1.9198,1.9384,1.9837,2.0093,2.0131,2.1017,2.1446,2.159,2.2609,2.342,2.4021,2.4086,2.4112,2.4112,2.4112,2.4112,2.4112,2.4112,2.4112,2.4112,2.4112,2.4844,2.5733,2.5798,2.6582,2.7445,2.751,2.7656,2.7855,2.7842,2.7987,2.8197,2.8417,2.8776,2.9192,2.9518,3.094,3.1926,3.1293,3.237,3.3492,3.3959,3.478,3.54,3.54,3.6006,3.6492,3.6492,3.6492,3.6492,3.6492,3.6492,3.6492,3.6492,3.6492,3.6492,3.6492,3.6492,3.6492,3.6492,3.6492,3.6492,3.6492,3.6492,3.66,3.6723,3.66,3.66,3.6723,3.6723,3.6862,0.6641,0.6797,0.7066,0.0,0.0,0.0,0.0,0.7168,0.0,0.0,0.0,0.0,0.0,0.0,0.0,0.0,0.0,0.0,0.0,0.0,0.0,0.0,0.0,0.0,1.3062,1.3393,1.3621,1.3621,1.3621,1.3652,1.3745,1.419,1.4499,1.46,1.544,1.6265,1.7085,1.7554,1.8374,1.9592,1.9643,1.9914,2.0385,2.0549,2.0549,2.0549,2.0767,2.108,2.1525,2.1747,2.2452,2.3446,2.3929,2.4112,2.4112,2.4112,2.4112,2.4112,2.4112,2.4112,2.4112,2.4112,2.4583,2.5223,2.568,2.6295,2.7,2.7591,2.7868,2.8066,2.817,2.8379,2.8638,2.9142,2.947,2.9794,3.0208,3.1119,3.205,3.2827,3.3573,3.4177,3.4461,3.4993,3.5464,3.5608,3.6148,3.6492,3.6492,3.6492,3.6492,3.6492,3.6492,3.6492,3.6492,3.6492,3.6492,3.6492,3.6492,3.6492,3.6492,3.6492,3.6492,3.6492,3.66,3.6662,3.6723,3.6662,3.6739,3.6938,3.7029,3.7134,0.7182,0.7182,0.743,0.743,0.0,0.0,0.0,0.0,0.0,0.0,0.0,0.0,0.0,0.0,0.0,0.0,0.0,0.0,0.0,0.0,0.0,0.0,0.0,0.0,1.2596,1.2803,1.3031,1.3258,1.3486,1.3621,1.3621,1.3838,1.4098,1.4473,1.5159,1.6067,1.7169,1.7943,1.8808,1.981,2.0092,2.0385,2.0699,2.0699,2.0699,2.0699,2.0699,2.0869,2.1106,2.1394,2.2021,2.2871,2.3446,2.3851,2.4112,2.4112,2.4112,2.4112,2.4112,2.4112,2.4112,2.4112,2.4504,2.5079,2.5654,2.6476,2.7341,2.7894,2.8183,2.8392,2.8481,2.8867,2.9324,2.9732,3.0208,3.0703,3.0999,3.1871,3.272,3.3304,3.4256,3.5026,3.5484,3.5737,3.6006,3.6085,3.6352,3.6492,3.6492,3.6492,3.6492,3.6492,3.6492,3.6492,3.6492,3.6492,3.6492,3.6492,3.6492,3.6492,3.6492,3.6492,3.6554,3.66,3.6739,3.6923,3.7074,3.7074,3.7074,3.721,3.7389,3.7508,0.0,0.0,0.0,0.0,0.0,0.7758,0.0,0.0,0.0,0.0,0.0,0.0,0.0,0.0,0.0,0.0,0.0,0.0,0.0,0.0,0.0,0.0,0.0,0.0,0.0,1.2172,1.2359,1.2762,1.3144,1.3393,1.3476,1.3569,1.3931,1.4503,1.5032,1.5893,1.7222,1.8144,1.8963,1.9812,2.027,2.0607,2.0699,2.0699,2.0699,2.0699,2.0699,2.0699,2.0738,2.1159,2.1773,2.2465,2.3001,2.3589,2.4112,2.4112,2.4112,2.4112,2.4112,2.4112,2.4112,2.4112,2.4504,2.5127,2.5703,2.6735,2.7841,2.826,2.8573,2.8894,2.8994,2.9484,3.0054,3.0358,3.1014,3.161,3.1781,3.2547,3.3244,3.3367,3.4306,3.5337,3.6153,3.6399,3.6492,3.6492,3.6492,3.6492,3.6492,3.6492,3.6492,3.6492,3.6492,3.6492,3.6492,3.6492,3.6492,3.6492,3.6554,3.6554,3.6554,3.6554,3.6677,3.6769,3.6984,3.721,3.7476,3.7535,3.7535,3.7476,3.7685,3.7876,0.0,0.0,0.0,0.0,0.8582,0.0,0.0,0.0,0.0,0.0,0.0,0.0,0.0,0.0,0.0,0.0,0.0,0.0,0.0,0.0,0.0,0.0,0.0,0.0,0.0,1.1684,1.1882,1.2349,1.2432,1.2586,1.2979,1.3497,1.4035,1.4663,1.5244,1.6134,1.737,1.7894,1.8702,1.9799,1.9865,2.0165,2.0699,2.0699,2.0699,2.0699,2.0699,2.0699,2.0712,2.0777,2.1407,2.2465,2.3001,2.3589,2.4112,2.4112,2.4112,2.4112,2.4112,2.4112,2.4112,2.4112,2.4623,2.5308,2.5889,2.6836,2.7859,2.8373,2.9085,2.9685,2.987,3.0297,3.0837,3.1379,3.161,3.1781,3.2231,3.2404,3.269,3.329,3.3537,3.406,3.5368,3.6107,3.6492,3.6492,3.6492,3.6492,3.6492,3.6492,3.6492,3.6492,3.6492,3.6492,3.6492,3.6492,3.6492,3.6492,3.66,3.6662,3.6662,3.6862,3.6984,3.7134,3.7298,3.7433,3.77,3.7934,3.7992,3.786,3.8049,3.818,0.0,0.0,0.0,0.0,0.0,0.0,0.7959,0.0,0.7937,0.0,0.0,0.0,0.0,0.0,0.0,0.0,0.0,0.0,0.0,0.0,0.0,0.0,0.0,0.0,0.0,0.0,0.0,0.0,1.2161,1.2339,1.3372,1.3397,1.385,1.4903,1.5377,1.6061,1.6979,1.773,1.8493,1.929,1.963,2.0113,2.0699,2.0699,2.0699,2.0699,2.0699,2.0699,2.0699,2.0699,2.1355,2.2426,2.2648,2.3289,2.4112,2.4112,2.4112,2.4112,2.4112,2.4112,2.4112,2.4203,2.4656,2.5368,2.6243,2.7093,2.789,2.8807,2.9512,3.0007,3.019,3.0792,3.1379,3.1625,3.1894,3.2176,3.2342,3.2398,3.2475,3.2767,3.3136,3.3721,3.4722,3.546,3.6045,3.643,3.6492,3.6492,3.6492,3.6492,3.6492,3.6492,3.6492,3.6554,3.66,3.6616,3.6677,3.6754,3.6907,3.7013,3.7013,3.7285,3.7405,3.7508,3.761,3.7902,3.8359,3.8488,3.8678,3.8865,3.8488,3.8351,1.0023,0.0,0.0,0.0,0.0,0.0,0.0,0.0,0.0,0.0,0.0,0.0,0.0,0.0,0.0,0.0,0.0,0.0,0.0,0.0,0.0,0.0,0.0,0.0,0.0,0.0,0.0,0.0,0.0,1.1923,1.3135,1.316,1.3671,1.4834,1.5351,1.5996,1.668,1.7458,1.8205,1.8911,1.9342,1.9943,2.0699,2.0699,2.0699,2.0699,2.0699,2.0699,2.0699,2.0699,2.1355,2.24,2.2374,2.308,2.4112,2.4112,2.4112,2.4112,2.4112,2.4112,2.4157,2.4305,2.4819,2.5595,2.6532,2.7387,2.8312,2.9296,3.0068,3.0539,3.0673,3.1248,3.1894,3.1894,3.2176,3.2398,3.2398,3.2398,3.2398,3.2398,3.2936,3.3629,3.4352,3.5029,3.5707,3.6384,3.6492,3.6492,3.6492,3.6492,3.6492,3.6554,3.6554,3.6616,3.6785,3.6846,3.6907,3.7181,3.727,3.7373,3.7373,3.7626,3.7759,3.7817,3.8033,3.8359,3.886,3.8952,3.9206,3.961,3.9007,3.875,0.0,0.0,0.0,0.9109,0.0,0.0,0.0,0.0,0.9555,0.0,0.0,0.0,0.0,0.0,0.0,0.0,0.0,0.0,0.0,0.0,0.0,0.0,0.0,0.0,0.0,0.0,0.0,0.0,0.0,0.0,1.1653,1.2689,1.3564,1.4221,1.5262,1.6095,1.6667,1.7044,1.7787,1.8911,1.8924,1.9538,2.0699,2.0699,2.0699,2.0699,2.0699,2.0699,2.0699,2.0699,2.1355,2.24,2.2374,2.308,2.4112,2.4112,2.4112,2.4112,2.4112,2.4203,2.4363,2.4549,2.5181,2.5995,2.6592,2.7917,2.9268,2.9883,3.0837,3.1682,3.1667,3.2007,3.2398,3.2398,3.2398,3.2398,3.2398,3.2398,3.2398,3.2398,3.2936,3.3629,3.4352,3.5029,3.5707,3.6384,3.6492,3.6492,3.6492,3.6492,3.6554,3.6662,3.6723,3.6785,3.6938,3.7089,3.7314,3.7642,3.77,3.7759,3.7876,3.7876,3.7992,3.818,3.86,3.886,3.8969,3.9401,3.9594,3.961,3.9558,3.9558,0.0,0.0,1.0895,0.9888,0.0,0.0,0.0,0.0,0.0,0.0,0.0,0.0,0.0,0.0,0.0,0.0,0.0,0.0,0.0,0.0,0.0,0.0,0.0,0.0,0.0,0.0,0.0,0.0,1.1778,0.0,0.0,1.2966,1.339,1.4575,1.5089,1.5679,1.6349,1.6905,1.7774,1.8911,1.8911,1.9525,2.0699,2.0699,2.0699,2.0699,2.0699,2.0699,2.0699,2.0699,2.1355,2.24,2.2374,2.308,2.4112,2.4112,2.4112,2.4112,2.4203,2.4305,2.4465,2.4778,2.5627,2.6691,2.7509,2.8597,2.9784,3.0483,3.1204,3.1682,3.1682,3.2064,3.2398,3.2398,3.2398,3.2398,3.2398,3.2398,3.2398,3.2398,3.2936,3.3629,3.4352,3.5029,3.5707,3.6384,3.6492,3.6492,3.6492,3.6492,3.6554,3.6662,3.68,3.6984,3.7254,3.7508,3.7685,3.7817,3.7934,3.8049,3.8123,3.8432,3.8639,3.8711,3.9098,3.9523,3.9867,4.002,4.0221,4.0451,4.0451,4.0137,1.0629,1.0938,0.0,1.0348,1.0649,0.0,1.0036,0.0,0.0,0.0,0.0,0.0,0.0,0.0,0.0,0.0,0.0,0.0,0.0,0.0,0.0,0.0,0.0,0.0,0.0,0.0,1.2109,1.282,1.1944,0.0,0.0,0.0,1.3389,1.4609,1.5071,1.5622,1.6349,1.6905,1.7774,1.8911,1.8911,1.9525,2.0699,2.0699,2.0699,2.0699,2.0699,2.0699,2.0699,2.0699,2.1224,2.2113,2.235,2.2949,2.3825,2.4034,2.4099,2.4216,2.4363,2.4536,2.4734,2.5263,2.6299,2.7513,2.8311,2.9464,3.0656,3.1144,3.161,3.1951,3.1951,3.2176,3.2398,3.2398,3.2398,3.2398,3.2398,3.2398,3.2398,3.2398,3.3152,3.3921,3.4398,3.523,3.5984,3.643,3.6492,3.6492,3.6492,3.6554,3.6616,3.68,3.6984,3.727,3.7669,3.786,3.8049,3.8049,3.8335,3.8488,3.8488,3.8952,3.9222,3.9222,3.9627,4.0003,4.0305,4.0436,4.0631,4.0888,4.0888,4.0614]},{"header":{"parameterUnit":"m.s-1","parameterCategory":1,"la1":30.6,"la2":29.2853,"lo1":-89.7004,"lo2":-87.6739,"dy":0.0162,"dx":0.0183,"nx":112,"ny":82,"refTime":"2026-03-15T12:00:00:Z","depth":0,"parameterNumber":3,"parameterNumberName":"V-component_of_WINDS"},"data":[0.0,0.0,0.0,0.0,0.0,0.0,0.0,0.0,0.0,0.0,0.0,0.0,0.0,0.0,0.0,0.0,0.0,0.0,0.0,0.0,0.0,0.0,0.0,0.0,0.0,0.0,0.0,0.0,0.0,0.0,0.0,0.0,0.0,0.0,0.0,0.0,0.0,0.0,0.0,0.0,0.0,0.0,0.0,0.0,0.0,0.0,0.0,0.0,0.0,0.0,0.0,0.0,0.0,0.0,0.0,0.0,0.0,0.0,0.0,0.0,0.0,0.0,0.0,0.0,0.0,0.0,0.0,0.0,0.0,0.0,0.0,0.0,0.0,0.0,0.0,0.0,0.0,0.0,0.0,0.0,0.0,0.0,0.0,0.0,0.0,0.0,0.0,0.0,0.0,0.0,0.0,-1.3252,-1.4815,-1.5683,-1.5329,-1.5011,-1.4424,-1.3481,0.0,0.0,0.0,0.0,0.0,0.0,0.0,0.0,0.0,0.0,0.0,0.0,0.0,0.0,0.0,0.0,0.0,0.0,0.0,0.0,0.0,0.0,0.0,0.0,0.0,0.0,0.0,0.0,0.0,0.0,0.0,0.0,0.0,0.0,0.0,0.0,0.0,0.0,0.0,0.0,0.0,0.0,0.0,0.0,0.0,0.0,0.0,0.0,0.0,0.0,0.0,0.0,0.0,0.0,0.0,0.0,0.0,0.0,0.0,0.0,0.0,0.0,0.0,0.0,0.0,0.0,0.0,0.0,0.0,0.0,0.0,0.0,0.0,0.0,0.0,0.0,0.0,0.0,0.0,0.0,0.0,0.0,0.0,0.0,0.0,0.0,0.0,0.0,0.0,0.0,0.0,0.0,0.0,0.0,0.0,0.0,0.0,0.0,0.0,0.0,0.0,0.0,0.0,0.0,-1.2298,-1.4306,-1.5289,-1.5551,-1.4949,-1.4839,-1.429,-1.3146,0.0,0.0,0.0,0.0,0.0,0.0,0.0,0.0,0.0,0.0,0.0,0.0,0.0,0.0,0.0,0.0,0.0,0.0,0.0,0.0,0.0,0.0,0.0,0.0,0.0,0.0,0.0,0.0,0.0,0.0,0.0,0.0,0.0,0.0,0.0,0.0,0.0,0.0,0.0,0.0,0.0,0.0,0.0,0.0,0.0,0.0,0.0,0.0,0.0,0.0,0.0,0.0,0.0,0.0,0.0,0.0,0.0,0.0,0.0,0.0,0.0,0.0,0.0,0.0,0.0,0.0,0.0,0.0,0.0,0.0,0.0,0.0,0.0,0.0,0.0,0.0,0.0,0.0,0.0,0.0,0.0,0.0,0.0,0.0,0.0,0.0,0.0,0.0,0.0,0.0,0.0,0.0,0.0,0.0,0.0,0.0,0.0,0.0,0.0,0.0,0.0,0.0,0.0,-1.2133,-1.3023,-1.5109,-1.5461,-1.5344,-1.4825,-1.4651,-1.4093,-1.2996,-1.199,0.0,0.0,0.0,0.0,0.0,0.0,0.0,0.0,0.0,0.0,0.0,0.0,0.0,0.0,0.0,0.0,0.0,0.0,0.0,0.0,0.0,0.0,0.0,0.0,0.0,0.0,0.0,0.0,0.0,0.0,0.0,0.0,0.0,0.0,0.0,0.0,0.0,0.0,0.0,0.0,0.0,0.0,0.0,0.0,0.0,0.0,0.0,0.0,0.0,0.0,0.0,0.0,0.0,0.0,0.0,0.0,0.0,0.0,0.0,0.0,0.0,0.0,0.0,0.0,0.0,0.0,0.0,0.0,0.0,0.0,0.0,0.0,0.0,0.0,0.0,0.0,0.0,0.0,0.0,0.0,0.0,0.0,0.0,0.0,0.0,0.0,0.0,0.0,0.0,0.0,0.0,0.0,0.0,0.0,0.0,0.0,0.0,0.0,0.0,0.0,0.0,0.0,-1.3152,-1.398,-1.5619,-1.5507,-1.5179,-1.4839,-1.4355,-1.3744,-1.2941,-1.1485,0.0,0.0,0.0,0.0,0.0,0.0,0.0,0.0,0.0,0.0,0.0,0.0,0.0,0.0,0.0,0.0,0.0,0.0,0.0,0.0,0.0,0.0,0.0,0.0,0.0,0.0,0.0,0.0,0.0,0.0,0.0,0.0,0.0,0.0,0.0,0.0,0.0,0.0,0.0,0.0,0.0,0.0,0.0,0.0,0.0,0.0,0.0,0.0,0.0,0.0,0.0,0.0,0.0,0.0,0.0,0.0,0.0,0.0,0.0,0.0,0.0,0.0,0.0,0.0,0.0,0.0,0.0,0.0,0.0,0.0,0.0,0.0,0.0,0.0,0.0,0.0,0.0,0.0,0.0,0.0,0.0,0.0,0.0,0.0,0.0,0.0,0.0,0.0,0.0,0.0,0.0,0.0,0.0,0.0,0.0,0.0,0.0,0.0,0.0,0.0,0.0,0.0,-1.37,-1.4974,-1.5724,-1.5507,-1.5179,-1.4839,-1.3912,-1.3249,-1.2913,-1.1073,0.0,0.0,0.0,0.0,0.0,0.0,0.0,0.0,0.0,0.0,0.0,0.0,0.0,0.0,0.0,0.0,0.0,0.0,0.0,0.0,0.0,0.0,0.0,0.0,0.0,0.0,0.0,0.0,0.0,0.0,0.0,0.0,0.0,0.0,0.0,0.0,0.0,0.0,0.0,0.0,0.0,0.0,0.0,0.0,0.0,0.0,0.0,0.0,0.0,0.0,0.0,0.0,0.0,0.0,0.0,0.0,0.0,0.0,0.0,0.0,0.0,0.0,0.0,0.0,0.0,0.0,0.0,0.0,0.0,0.0,0.0,0.0,0.0,0.0,0.0,0.0,0.0,0.0,0.0,0.0,0.0,0.0,0.0,0.0,0.0,0.0,0.0,0.0,0.0,0.0,0.0,0.0,0.0,0.0,0.0,0.0,0.0,0.0,0.0,0.0,0.0,0.0,-1.4062,-1.5049,0.0,-1.58,-1.5566,-1.5025,-1.429,-1.3649,-1.3132,0.0,0.0,0.0,0.0,0.0,0.0,0.0,0.0,0.0,0.0,0.0,0.0,0.0,0.0,0.0,0.0,0.0,0.0,0.0,0.0,0.0,0.0,0.0,0.0,0.0,0.0,0.0,0.0,0.0,0.0,0.0,0.0,0.0,0.0,0.0,0.0,0.0,0.0,0.0,0.0,0.0,0.0,0.0,0.0,0.0,0.0,0.0,0.0,0.0,0.0,0.0,0.0,0.0,0.0,0.0,0.0,0.0,0.0,0.0,0.0,0.0,0.0,0.0,0.0,0.0,0.0,0.0,0.0,0.0,0.0,0.0,0.0,0.0,0.0,0.0,0.0,0.0,0.0,0.0,0.0,0.0,0.0,0.0,0.0,0.0,0.0,0.0,0.0,0.0,0.0,0.0,0.0,0.0,0.0,0.0,0.0,0.0,0.0,0.0,0.0,0.0,0.0,-1.3273,-1.4597,-1.5424,0.0,-1.5682,-1.5437,-1.4455,-1.3709,-1.3056,-1.2496,0.0,0.0,0.0,0.0,0.0,0.0,0.0,0.0,0.0,0.0,0.0,0.0,0.0,0.0,0.0,0.0,0.0,0.0,0.0,0.0,0.0,0.0,0.0,0.0,0.0,0.0,0.0,0.0,0.0,0.0,0.0,0.0,0.0,0.0,0.0,0.0,0.0,0.0,0.0,0.0,0.0,0.0,0.0,0.0,0.0,0.0,0.0,0.0,0.0,0.0,0.0,0.0,0.0,0.0,0.0,0.0,0.0,0.0,0.0,0.0,0.0,0.0,0.0,0.0,0.0,0.0,0.0,0.0,0.0,0.0,0.0,0.0,0.0,0.0,0.0,0.0,0.0,0.0,0.0,0.0,0.0,0.0,0.0,0.0,0.0,0.0,0.0,0.0,0.0,0.0,0.0,0.0,0.0,0.0,0.0,0.0,0.0,0.0,0.0,0.0,0.0,0.0,-1.3309,-1.5339,-1.6204,-1.4932,-1.5037,-1.4572,-1.2955,-1.1899,-1.1214,0.0,0.0,0.0,0.0,0.0,0.0,0.0,0.0,0.0,0.0,0.0,0.0,0.0,0.0,0.0,0.0,0.0,0.0,0.0,0.0,0.0,0.0,0.0,0.0,0.0,0.0,0.0,0.0,0.0,0.0,0.0,0.0,0.0,0.0,0.0,0.0,0.0,0.0,0.0,0.0,0.0,0.0,0.0,0.0,0.0,0.0,0.0,0.0,0.0,0.0,0.0,0.0,0.0,0.0,0.0,0.0,0.0,0.0,0.0,0.0,0.0,0.0,0.0,0.0,0.0,0.0,0.0,0.0,0.0,0.0,0.0,0.0,0.0,0.0,0.0,0.0,0.0,0.0,0.0,0.0,0.0,0.0,0.0,0.0,0.0,0.0,0.0,0.0,0.0,0.0,0.0,0.0,0.0,0.0,0.0,0.0,0.0,0.0,0.0,0.0,0.0,0.0,0.0,-1.3367,-1.5021,-1.5725,-1.4887,-1.5624,-1.5609,-1.4193,-1.3628,-1.2793,-1.1485,0.0,0.0,0.0,0.0,0.0,0.0,0.0,0.0,0.0,0.0,0.0,0.0,0.0,0.0,0.0,0.0,0.0,0.0,0.0,0.0,0.0,0.0,0.0,0.0,0.0,0.0,0.0,0.0,0.0,0.0,0.0,0.0,0.0,0.0,0.0,0.0,0.0,0.0,0.0,0.0,0.0,0.0,0.0,0.0,0.0,0.0,0.0,0.0,0.0,0.0,0.0,0.0,0.0,0.0,0.0,0.0,0.0,0.0,0.0,0.0,0.0,0.0,0.0,0.0,0.0,0.0,0.0,0.0,0.0,0.0,0.0,0.0,0.0,0.0,0.0,0.0,0.0,0.0,0.0,0.0,0.0,0.0,0.0,0.0,0.0,0.0,0.0,0.0,0.0,0.0,0.0,0.0,0.0,0.0,0.0,0.0,0.0,0.0,0.0,0.0,0.0,0.0,-1.369,-1.4969,-1.543,-1.4748,-1.5536,-1.5566,-1.416,-1.3635,-1.2848,-1.1607,0.0,0.0,0.0,0.0,0.0,0.0,0.0,0.0,0.0,0.0,0.0,0.0,0.0,0.0,0.0,0.0,0.0,0.0,0.0,0.0,0.0,0.0,0.0,0.0,0.0,0.0,0.0,0.0,0.0,0.0,0.0,0.0,0.0,0.0,0.0,0.0,0.0,0.0,0.0,0.0,0.0,0.0,0.0,0.0,0.0,0.0,0.0,0.0,0.0,0.0,0.0,0.0,0.0,0.0,0.0,0.0,0.0,0.0,0.0,0.0,0.0,0.0,0.0,0.0,0.0,0.0,0.0,0.0,0.0,0.0,0.0,0.0,0.0,0.0,0.0,0.0,0.0,0.0,0.0,0.0,0.0,0.0,0.0,0.0,0.0,0.0,0.0,0.0,0.0,0.0,0.0,0.0,0.0,0.0,0.0,0.0,0.0,0.0,0.0,0.0,0.0,0.0,-1.4045,-1.4985,-1.5197,-1.458,-1.5066,-1.4863,-1.345,-1.2656,-1.2023,-1.1444,0.0,0.0,0.0,0.0,0.0,0.0,0.0,0.0,0.0,0.0,0.0,0.0,0.0,0.0,0.0,0.0,0.0,0.0,0.0,0.0,0.0,0.0,0.0,0.0,0.0,0.0,0.0,0.0,0.0,0.0,0.0,0.0,0.0,0.0,0.0,0.0,0.0,0.0,0.0,0.0,0.0,0.0,0.0,0.0,0.0,0.0,0.0,0.0,0.0,0.0,0.0,0.0,0.0,0.0,0.0,0.0,0.0,0.0,0.0,0.0,-1.5452,0.0,0.0,0.0,0.0,0.0,0.0,0.0,0.0,0.0,0.0,0.0,0.0,0.0,0.0,0.0,0.0,0.0,0.0,0.0,0.0,0.0,0.0,0.0,0.0,0.0,0.0,0.0,0.0,0.0,0.0,0.0,0.0,0.0,0.0,0.0,0.0,0.0,0.0,0.0,0.0,0.0,-1.3425,-1.3977,-1.4325,-1.4629,-1.5196,-1.5212,-1.4308,-1.3689,-1.2834,-1.1629,-1.0436,0.0,0.0,0.0,0.0,0.0,0.0,0.0,0.0,0.0,0.0,0.0,0.0,0.0,0.0,0.0,0.0,0.0,0.0,0.0,0.0,0.0,0.0,0.0,0.0,0.0,0.0,0.0,0.0,0.0,0.0,0.0,0.0,0.0,0.0,0.0,0.0,0.0,0.0,0.0,0.0,0.0,0.0,0.0,0.0,0.0,0.0,0.0,0.0,0.0,0.0,0.0,0.0,0.0,0.0,0.0,0.0,0.0,0.0,0.0,0.0,-1.6581,0.0,0.0,0.0,0.0,0.0,0.0,0.0,0.0,0.0,0.0,0.0,0.0,0.0,0.0,0.0,0.0,0.0,0.0,0.0,0.0,0.0,0.0,0.0,0.0,0.0,0.0,0.0,0.0,0.0,0.0,0.0,0.0,0.0,0.0,0.0,0.0,0.0,0.0,0.0,0.0,-1.4137,-1.4253,-1.4382,-1.5003,-1.5373,-1.5418,-1.5065,-1.4527,-1.3738,-1.2719,-1.1508,0.0,0.0,0.0,0.0,0.0,0.0,0.0,0.0,0.0,0.0,0.0,0.0,0.0,0.0,0.0,0.0,0.0,0.0,0.0,0.0,0.0,0.0,0.0,0.0,0.0,0.0,0.0,0.0,0.0,0.0,0.0,0.0,0.0,0.0,0.0,0.0,0.0,0.0,0.0,0.0,0.0,0.0,0.0,0.0,0.0,0.0,0.0,0.0,0.0,0.0,0.0,0.0,0.0,-1.9918,-2.0288,-2.073,-2.0271,-2.023,-2.0475,-1.9401,-1.9015,-1.8995,0.0,0.0,0.0,0.0,0.0,0.0,0.0,0.0,0.0,0.0,0.0,0.0,0.0,0.0,0.0,0.0,0.0,0.0,0.0,0.0,0.0,0.0,0.0,0.0,0.0,-1.5294,-1.4648,0.0,0.0,0.0,0.0,0.0,0.0,0.0,0.0,0.0,0.0,0.0,0.0,-1.5246,-1.5014,-1.4934,-1.5595,-1.5684,-1.5669,-1.5595,-1.5045,-1.4504,-1.3993,-1.2718,-1.1775,0.0,0.0,0.0,0.0,0.0,0.0,0.0,0.0,0.0,0.0,0.0,0.0,0.0,0.0,0.0,0.0,0.0,0.0,0.0,0.0,0.0,0.0,0.0,0.0,0.0,0.0,0.0,0.0,0.0,0.0,0.0,0.0,-1.2957,-1.4405,0.0,0.0,0.0,0.0,0.0,0.0,0.0,0.0,0.0,0.0,0.0,0.0,0.0,-1.8901,-2.0077,-2.144,-2.1721,-2.096,-2.2875,-2.3507,-2.2999,-2.3541,-2.3829,-2.3802,-2.3021,0.0,-1.9458,-1.8635,0.0,0.0,0.0,0.0,0.0,0.0,0.0,0.0,0.0,0.0,0.0,0.0,0.0,0.0,0.0,0.0,0.0,0.0,0.0,0.0,0.0,0.0,-1.7197,-1.6667,-1.6487,-1.6383,0.0,-1.4825,-1.3403,-1.2681,-1.1899,0.0,0.0,0.0,0.0,0.0,0.0,0.0,-1.5613,-1.562,-1.5684,-1.6287,-1.6408,-1.6187,-1.5566,-1.5017,-1.4671,-1.4582,-1.3366,-1.2882,-1.3391,-1.1655,0.0,0.0,0.0,0.0,0.0,0.0,0.0,0.0,0.0,0.0,0.0,0.0,0.0,0.0,0.0,0.0,0.0,0.0,0.0,0.0,0.0,0.0,0.0,0.0,0.0,0.0,0.0,0.0,0.0,-1.2836,-1.4086,-1.5699,-1.5666,-1.5677,0.0,0.0,0.0,0.0,0.0,0.0,0.0,0.0,0.0,-1.9526,-2.0292,-2.0948,-2.1516,-2.2976,-2.3471,-2.3067,-2.4049,-2.4337,-2.4019,-2.4371,-2.4506,-2.4489,-2.4167,-2.3384,-2.2236,-2.0656,-1.9909,-1.9695,0.0,0.0,0.0,0.0,-1.9005,-1.8818,-1.9992,-2.0145,0.0,-1.8856,0.0,0.0,0.0,0.0,0.0,0.0,0.0,0.0,0.0,0.0,-1.8643,-1.8384,-1.8203,-1.8161,-1.8305,-1.7406,-1.6076,0.0,-1.4239,-1.405,-1.3135,0.0,0.0,0.0,0.0,-1.5298,-1.6493,-1.6683,-1.6842,-1.7139,-1.72,-1.7081,-1.6753,-1.6174,-1.5667,-1.5338,-1.4438,-1.3885,-1.381,-1.2996,-1.2417,0.0,0.0,0.0,0.0,0.0,0.0,0.0,0.0,0.0,0.0,0.0,0.0,0.0,0.0,0.0,0.0,0.0,0.0,0.0,0.0,0.0,0.0,0.0,0.0,0.0,0.0,0.0,0.0,-1.4476,-1.5452,-1.6938,-1.7035,-1.6978,0.0,0.0,0.0,0.0,0.0,0.0,-1.9777,-1.9908,-2.0241,-2.0872,-2.2051,-2.2722,-2.2868,-2.4137,-2.4763,-2.4763,-2.498,-2.5082,-2.505,-2.5253,-2.5338,-2.5321,-2.5118,-2.5082,-2.4929,-2.2863,-2.1942,-2.1722,-2.1215,-2.0892,-2.0824,-2.1501,-2.1417,-2.1128,-2.244,-2.2496,-2.1966,-2.1363,0.0,-2.066,-1.9587,0.0,0.0,0.0,0.0,-1.987,-2.0086,-1.9935,-1.9747,-1.9894,-1.9764,-1.9661,-1.985,-1.9618,-1.8672,0.0,-1.6316,-1.6281,-1.4991,0.0,0.0,0.0,0.0,-1.6814,-1.7593,-1.7799,-1.787,-1.7918,-1.7951,-1.7876,-1.7697,-1.7234,-1.6622,-1.5858,-1.547,-1.4932,-1.4094,-1.409,-1.3724,-1.287,0.0,0.0,0.0,0.0,0.0,0.0,0.0,0.0,0.0,0.0,0.0,0.0,0.0,0.0,0.0,0.0,0.0,0.0,0.0,0.0,0.0,0.0,0.0,0.0,0.0,0.0,0.0,0.0,0.0,-1.8392,-1.8327,0.0,0.0,0.0,0.0,-1.969,-2.0321,-2.0653,-2.0454,-2.106,-2.1644,-2.2203,-2.2936,-2.3663,-2.4388,-2.5152,-2.5541,-2.5558,-2.6251,-2.6573,-2.6607,-2.7317,-2.762,-2.7621,-2.6894,-2.6573,-2.6471,-2.498,-2.393,-2.3274,-2.3241,-2.2801,-2.2276,-2.3021,-2.3257,-2.3325,-2.4133,-2.4371,-2.4337,-2.4303,-2.3799,-2.3224,-2.3139,-2.3122,0.0,0.0,-2.2354,-2.2432,-2.162,-2.1132,-2.0798,-2.0749,-2.0716,-2.0716,-2.0749,-2.0975,-2.0473,0.0,-1.7115,-1.6804,-1.7065,0.0,-1.7486,-1.8464,-1.8251,-1.8236,-1.8908,-1.8729,-1.8554,-1.855,-1.8604,-1.8403,-1.7742,-1.7667,-1.7131,-1.5888,-1.6323,-1.6039,-1.4797,-1.4737,-1.4815,-1.4949,-1.3092,0.0,0.0,0.0,0.0,0.0,0.0,0.0,0.0,0.0,0.0,0.0,0.0,0.0,0.0,0.0,0.0,0.0,0.0,0.0,0.0,0.0,0.0,0.0,0.0,0.0,0.0,0.0,0.0,-1.9903,-1.98,0.0,-1.9603,-1.9952,-2.0615,-2.1586,-2.1787,-2.222,-2.3016,-2.334,-2.3556,-2.3697,-2.4881,-2.5642,-2.5896,-2.7148,-2.7774,-2.7774,-2.8044,-2.8163,-2.818,-2.845,-2.8569,-2.8552,-2.8281,-2.8163,-2.8129,-2.7622,-2.6115,-2.4103,-2.4103,-2.3934,-2.3748,-2.4002,-2.4103,-2.4137,-2.4421,-2.4506,-2.4506,-2.4506,-2.4337,-2.4103,-2.4103,-2.4103,-2.4036,-2.3722,-2.3748,-2.3742,-2.3287,-2.3061,-2.2932,-2.2883,-2.2851,-2.272,-2.2247,-2.2085,-2.1616,-2.0265,-1.9475,-1.8908,-1.8578,-1.8384,-1.8451,-1.8977,-1.8736,-1.8577,-1.8827,-1.8687,-1.8593,-1.8608,-1.8816,-1.8837,-1.8627,-1.8443,-1.7969,-1.7086,-1.6816,-1.6308,-1.5484,-1.5439,-1.5272,-1.4905,-1.3775,-1.2947,0.0,0.0,0.0,0.0,0.0,0.0,0.0,0.0,0.0,0.0,0.0,0.0,0.0,0.0,0.0,0.0,0.0,0.0,0.0,0.0,0.0,0.0,0.0,0.0,0.0,0.0,-2.039,-2.0873,-2.1325,-2.1479,-2.1103,-2.1527,-2.2271,-2.3285,-2.3221,-2.3566,-2.4472,-2.5028,-2.53,-2.522,-2.6691,-2.7469,-2.7469,-2.8467,-2.9011,-2.9011,-2.9011,-2.9011,-2.8991,-2.9245,-2.9364,-2.9364,-2.9364,-2.9364,-2.9347,-2.9093,-2.7842,-2.603,-2.603,-2.603,-2.603,-2.603,-2.603,-2.603,-2.603,-2.603,-2.603,-2.603,-2.5812,-2.5609,-2.5609,-2.5423,-2.5169,-2.4869,-2.477,-2.4688,-2.4309,-2.4146,-2.4081,-2.4049,-2.4033,-2.3868,-2.3371,-2.3095,-2.2785,-2.2328,-2.1275,-2.0297,-1.983,-1.9601,-1.965,-2.0221,-1.9791,-1.9529,-1.9906,-1.9608,-1.9342,-1.9342,-1.9342,-1.9383,-1.9663,-1.928,-1.8768,-1.8128,-1.7562,-1.6864,-1.6,-1.6224,-1.6133,-1.5692,-1.5023,-1.4166,-1.3136,0.0,0.0,0.0,0.0,0.0,0.0,0.0,0.0,0.0,0.0,0.0,0.0,0.0,0.0,0.0,0.0,0.0,0.0,0.0,0.0,0.0,0.0,0.0,-2.0389,-2.1363,-2.1866,-2.135,-2.2904,-2.3414,-2.1865,-2.3511,-2.4692,-2.4726,-2.4683,-2.4686,-2.4703,-2.6013,-2.6759,-2.6759,-2.823,-2.9008,-2.9008,-2.9079,-2.9096,-2.9096,-2.9096,-2.9096,-2.9076,-2.9803,-3.0142,-3.0142,-3.0142,-3.0142,-3.0091,-2.9347,-2.9096,-2.9042,-2.9045,-2.9011,-2.9011,-2.9011,-2.9011,-2.9011,-2.9011,-2.9011,-2.9011,-2.9011,-2.8467,-2.7823,-2.7823,-2.7351,-2.6623,-2.5913,-2.5662,-2.5428,-2.4702,-2.4342,-2.4214,-2.4148,-2.4132,-2.4067,-2.405,-2.4033,-2.4033,-2.4,-2.2313,-2.089,-2.089,-2.089,-2.1244,-2.228,-2.1568,0.0,-2.2297,-2.1455,-2.0811,-2.0827,-2.0178,-2.0036,-2.0699,-2.0178,-1.9467,-1.881,-1.8499,-1.7728,-1.6406,-1.7021,-1.7392,-1.7392,-1.6749,-1.581,-1.4599,0.0,0.0,0.0,0.0,0.0,0.0,0.0,0.0,0.0,0.0,0.0,0.0,0.0,0.0,0.0,0.0,0.0,0.0,0.0,0.0,0.0,0.0,-2.1411,-2.0717,-2.2422,-2.358,-2.3195,-2.4083,-2.4545,-2.4102,-2.4359,-2.4774,-2.5317,-2.5827,-2.6369,-2.6877,-2.7824,-2.8349,-2.8349,-2.9296,-2.9803,-2.9803,-3.0328,-3.0581,-3.0581,-3.0581,-3.0581,-3.0598,-3.0801,-3.0903,-3.0903,-3.0903,-3.0903,-3.0886,-3.0666,-3.0581,-3.048,-2.9397,-2.9011,-2.9011,-2.9011,-2.9011,-2.9011,-2.9011,-2.9011,-2.9011,-2.9011,-2.8839,-2.867,-2.867,-2.8518,-2.8315,-2.8112,-2.7973,-2.7734,-2.6907,-2.6617,-2.6343,-2.5758,-2.5607,-2.5458,-2.4911,-2.4812,-2.4646,-2.41,-2.3539,-2.3129,-2.3129,-2.3129,-2.3227,-2.3523,-2.2866,0.0,-2.2732,-2.1554,-2.0921,-2.146,-2.1131,-2.0733,-2.0395,-2.0893,-2.0273,-1.8076,-1.8336,-1.821,-1.7354,-1.7523,-1.7522,-1.7337,-1.6792,-1.5759,0.0,0.0,0.0,0.0,0.0,0.0,0.0,0.0,0.0,0.0,0.0,0.0,0.0,0.0,0.0,0.0,0.0,0.0,0.0,0.0,0.0,0.0,-2.1965,-2.2952,-2.2858,-2.4063,-2.4855,-2.4557,-2.5181,-2.5594,-2.5478,-2.5729,-2.6114,-2.6686,-2.7318,-2.7841,-2.8281,-2.9042,-2.9448,-2.9448,-3.0176,-3.0565,-3.0565,-3.0987,-3.1343,-3.1647,-3.1647,-3.1816,-3.2121,-3.2121,-3.2121,0.0,-3.2121,-3.2121,-3.2121,-3.2121,-3.1935,0.0,0.0,0.0,0.0,0.0,-2.9905,-2.9905,-2.9905,-2.9905,-2.9905,-2.9905,-2.9685,-2.9394,-2.9394,-2.9138,-2.8811,-2.8811,-2.8774,-2.8598,-2.8126,-2.7935,-2.7724,-2.7288,-2.6919,-2.6535,-2.6104,-2.5773,-2.5441,-2.5011,-2.4928,0.0,-2.4928,-2.4414,-2.41,-2.4414,-2.3835,-2.347,-2.3785,-2.2526,-2.1781,-2.2212,-2.1519,-2.0989,-2.0874,-2.1178,0.0,0.0,0.0,-1.9212,-1.8865,-1.8833,0.0,0.0,0.0,0.0,0.0,0.0,0.0,0.0,-1.4153,-1.4132,0.0,0.0,0.0,0.0,0.0,0.0,0.0,0.0,0.0,0.0,0.0,0.0,0.0,0.0,0.0,0.0,-2.3699,-2.4679,-2.581,-2.6054,-2.5989,-2.5605,-2.6219,-2.6626,-2.6497,-2.7331,-2.8049,-2.8487,-2.8902,-2.9146,-2.9166,0.0,0.0,0.0,0.0,-3.1241,-3.1309,-3.1309,-3.1681,-3.2408,-3.2408,-3.2763,-3.3406,-3.3406,-3.3406,-3.3406,-3.3406,-3.3406,-3.3406,-3.3406,-3.3,-3.2324,-3.1512,-3.1241,-3.1309,-3.1309,-3.1309,-3.1309,-3.1309,0.0,0.0,-3.119,-3.0656,-3.0022,-3.0022,-2.9453,-2.8858,-2.8858,-2.8858,-2.8803,-2.872,-2.8665,-2.8572,-2.8505,-2.7952,-2.7417,-2.7334,-2.6783,-2.6303,-2.6236,-2.622,-2.622,-2.622,-2.5127,-2.4481,-2.5143,-2.4679,-2.4448,-2.5027,-2.3884,-2.3023,-2.3023,0.0,0.0,-2.1748,-2.1267,-2.1102,-2.1516,-2.08,-2.0384,-2.0426,-2.0508,-2.0907,-2.1691,-2.1521,-2.0891,-1.9814,-1.9545,-1.8989,-1.8115,-1.5918,-1.5752,0.0,0.0,0.0,0.0,0.0,0.0,0.0,0.0,0.0,0.0,0.0,0.0,0.0,0.0,0.0,-2.3533,-2.5415,-2.6819,-2.7055,-2.7651,-2.7713,-2.6817,-2.7353,-2.801,-2.8621,-2.8383,-2.8608,-2.9674,-2.9831,-3.0003,-3.0262,-3.0738,0.0,-3.0987,-3.1123,-3.1478,-3.207,-3.211,-3.2442,-3.3186,0.0,0.0,-3.3406,-3.3406,-3.3406,-3.3406,-3.3406,-3.3406,-3.3406,-3.3406,-3.3322,-3.3051,-3.1715,-3.1546,-3.211,-3.211,-3.211,-3.211,-3.211,-3.1681,-3.119,-3.1055,-3.0914,-3.0757,-3.0734,-3.0593,0.0,-3.0453,-3.0396,-3.0166,-2.9565,-2.9337,-2.9108,-2.8544,-2.8312,-2.803,-2.7433,-2.7201,-2.6899,-2.6319,-2.622,-2.622,-2.622,-2.5971,-2.5839,-2.5988,-2.5889,-2.5624,-2.5176,-2.4332,-2.3785,-2.3785,-2.299,-2.2278,-2.1831,-2.2195,-2.1781,-2.0114,-2.0411,-2.0615,-2.0643,-2.1222,-2.1233,-2.0626,-2.1138,-2.0906,-1.9891,-2.04,-2.0827,-2.114,-1.8895,-1.8052,0.0,0.0,0.0,0.0,0.0,0.0,0.0,0.0,0.0,0.0,0.0,-2.0792,-2.1568,0.0,-2.4829,-2.5564,-2.6685,-2.7586,-2.796,-2.8359,-2.8348,-2.762,-2.8237,-2.8852,-2.9272,-2.9572,-3.0044,-3.08,-3.0872,-3.0959,-3.1145,-3.1185,-3.136,-3.1732,-3.1732,-3.2087,-3.2831,-3.2848,-3.322,-3.3947,-3.3947,-3.415,-3.4506,-3.4506,-3.4506,-3.4506,-3.4506,-3.4506,-3.4489,-3.41,-3.3947,-3.3846,-3.273,-3.2527,-3.2848,-3.2848,-3.2848,-3.2848,-3.2848,-3.2611,-3.2307,-3.2208,-3.2184,-3.216,-3.2118,-3.2018,-3.1834,-3.1441,-3.1258,-3.0991,-3.0244,-3.0004,-2.988,-2.9533,-2.9168,-2.8804,-2.8423,-2.8075,-2.7765,-2.7363,-2.7296,-2.7181,-2.68,-2.675,-2.6617,-2.627,-2.622,-2.6087,-2.5706,-2.5011,-2.4547,-2.4547,-2.3553,-2.2742,-2.2377,-2.2344,-2.188,-2.0771,-2.1383,-2.1797,-2.1797,-2.251,-2.2646,-2.2159,-2.2504,-2.2393,-2.1698,-2.1836,-2.1979,-2.2133,-2.1166,-2.061,0.0,0.0,0.0,0.0,0.0,0.0,0.0,0.0,-1.836,-2.0063,-2.1906,-2.3456,-2.4186,-2.5607,-2.6836,-2.7422,-2.7634,-2.7937,-2.8522,-2.8587,-2.8492,-2.8228,-2.8899,-2.9536,-2.984,-3.0721,-3.1455,-3.1911,-3.1794,-3.1714,-3.1823,-3.1564,-3.1681,-3.2256,-3.2425,-3.2865,-3.3609,-3.3609,-3.3981,-3.4709,-3.4709,-3.503,-3.5622,-3.5622,-3.5622,-3.5622,-3.5622,-3.5622,-3.5571,-3.4962,-3.4709,-3.4641,-3.4066,-3.3803,-3.3786,-3.3677,-3.3609,-3.3609,-3.3567,-3.3482,-3.3364,-3.3322,-3.327,-3.3201,-3.3184,-3.3021,-3.2757,-3.2131,-3.1878,-3.1653,-3.0924,-3.0683,-3.0692,-3.0543,-3.0063,-2.9582,-2.945,-2.8969,-2.8539,-2.8445,-2.8412,-2.8229,-2.7632,-2.74,-2.7068,-2.6319,-2.622,-2.617,-2.6021,-2.5475,-2.506,-2.4911,-2.3818,-2.3106,-2.3106,-2.2559,-2.2228,-2.2228,-2.2791,-2.3106,-2.3106,-2.3686,-2.4,-2.4,-2.4149,-2.4066,-2.3813,-2.349,-2.3175,-2.2945,-2.2985,-2.2773,-1.9945,-1.9047,-1.8497,-1.9013,-1.8584,-1.8749,0.0,0.0,-2.0954,-2.3217,-2.3878,-2.43,-2.5029,-2.6472,-2.7538,-2.75,-2.8094,-2.8578,-2.8612,-2.8587,-2.8587,-2.8562,-2.9248,-3.0324,-3.1753,-3.1697,-3.2013,-3.3105,-3.2264,-3.186,-3.2196,-3.2196,-3.2188,-3.2313,-3.2933,-3.3626,-3.437,-3.437,-3.4742,-3.5504,-3.5504,-3.5537,-3.5622,-3.5622,-3.5622,-3.5622,-3.5622,-3.5622,-3.556,-3.552,-3.5504,-3.5487,-3.5402,-3.5296,-3.52,-3.458,-3.437,-3.437,-3.4223,-3.3758,-3.3177,-3.3038,-3.295,-3.2907,-3.2785,-3.2741,-3.2724,-3.2625,-3.2564,-3.2398,-3.1686,-3.1461,-3.1295,-3.0675,-3.046,-3.0212,-2.9549,-2.935,-2.9118,-2.8506,-2.8412,-2.8395,-2.8312,-2.7748,-2.7068,-2.6319,-2.622,-2.5971,-2.5309,-2.516,-2.4862,-2.4199,-2.3984,-2.3884,-2.3884,-2.3802,-2.3752,-2.3752,-2.3835,-2.3884,-2.3884,-2.3967,-2.4,-2.4,-2.4646,-2.4943,-2.4909,-2.5094,-2.5185,-2.511,-2.4458,-2.3594,-2.2323,-2.1771,0.0,0.0,-2.0401,-2.0733,-2.207,-2.2216,-2.2639,-2.4522,-2.5599,-2.6267,-2.6575,-2.751,-2.8221,0.0,-2.8402,-2.8637,-2.8612,-2.8587,-2.8775,-2.9246,-2.959,-3.0242,-3.1383,-3.2209,-3.2847,-3.3375,-3.2553,-3.2389,-3.3224,-3.2887,-3.3048,-3.3939,-3.4281,-3.4686,-3.5148,-3.5148,-3.5301,-3.5622,-3.5622,-3.5622,-3.5622,-3.5622,-3.5622,-3.5622,-3.5622,-3.5594,-3.5566,-3.5566,-3.552,-3.5412,-3.5412,-3.5429,-3.535,-3.5166,-3.5049,-3.4942,-3.4897,-3.4695,-3.4399,-3.4325,-3.428,-3.428,-3.4218,-3.4172,-3.4027,-3.3594,-3.3371,-3.316,-3.2431,-3.2249,-3.205,-3.1338,-3.1113,-3.0957,-3.0212,-3.0063,-2.998,-2.9682,-2.9615,-2.9483,-2.9052,-2.8721,-2.829,-2.7578,-2.675,-2.6104,-2.5789,-2.5756,-2.5475,-2.4729,-2.4646,-2.4481,-2.4033,-2.4,-2.4,-2.4,-2.4398,-2.4646,-2.4646,-2.506,-2.5292,-2.5292,-2.559,-2.5756,-2.5756,-2.5575,-2.5503,-2.5503,-2.4902,-2.4296,-2.3479,0.0,0.0,-2.1541,-2.1897,-2.2547,-2.2565,-2.3342,-2.4432,-2.5809,-2.6915,-2.7702,-2.7898,-2.8312,-2.8637,-2.8637,-2.8819,-2.8866,-2.8623,-2.8793,-2.9065,-2.9427,-2.9644,-3.0142,-3.0912,-3.2252,-3.3158,-3.3375,-3.2995,-3.3119,-3.3955,-3.3682,-3.4047,-3.5152,-3.527,-3.5395,-3.5622,-3.5622,-3.5622,-3.5622,-3.5622,-3.5622,-3.5622,-3.5594,-3.5594,-3.5594,-3.5594,-3.5566,-3.5492,-3.5537,-3.5475,-3.5367,-3.5367,-3.5383,-3.5354,-3.5446,-3.5446,-3.5354,-3.5291,-3.5337,-3.5337,-3.5245,-3.5245,-3.5245,-3.5198,-3.5105,-3.4925,-3.4392,-3.4197,-3.3922,-3.3176,-3.2994,-3.2812,-3.2083,-3.1769,-3.1427,-3.0898,-3.0659,-3.0526,-3.0526,-3.0526,-3.0344,-2.9814,-2.9549,-2.9251,-2.8738,-2.7611,-2.6733,-2.6535,-2.6336,-2.6005,-2.5475,-2.5408,-2.5193,-2.4663,-2.4613,-2.4613,-2.4613,-2.5127,-2.5408,-2.5408,-2.5938,-2.622,-2.622,-2.622,-2.622,-2.622,-2.5721,-2.5503,-2.5443,-2.5108,-2.4756,0.0,0.0,-2.2286,-2.2112,-2.311,-2.4155,-2.4211,-2.5348,-2.668,-2.7632,-2.7765,-2.7908,-2.8627,-2.8767,-2.8761,-2.8712,-2.9348,-2.9577,-2.8721,-2.9264,-2.9481,-2.8739,-2.9318,-3.0142,0.0,-3.1745,-3.256,-3.3339,-3.3737,-3.3955,-3.399,-3.4714,-3.5134,-3.5186,-3.5445,-3.5588,-3.5622,-3.5622,-3.5622,-3.5622,-3.5622,-3.5622,-3.5577,-3.552,-3.5492,-3.5492,-3.5492,-3.5492,-3.5492,-3.5594,-3.5577,-3.5577,-3.5577,-3.5549,-3.5492,-3.5492,-3.5492,-3.5492,-3.5354,-3.54,-3.5446,-3.5198,-3.5105,-3.5088,-3.4947,-3.4899,-3.4899,-3.4866,-3.4866,-3.47,-3.3955,-3.3756,-3.3574,-3.2829,-3.2116,-3.1576,-3.1543,-3.0981,-3.0526,-3.0526,-3.0526,-3.0468,-3.0493,-2.988,-2.94,-2.9383,-2.8771,-2.8058,-2.7367,-2.6634,-2.6203,-2.6187,-2.6187,-2.617,-2.6154,-2.6137,-2.6137,-2.6137,-2.617,-2.6187,-2.6187,-2.6203,-2.622,-2.622,-2.622,-2.622,-2.622,-2.5721,-2.5481,-2.5394,-2.5201,-2.4952,0.0,0.0,-2.3272,-2.3708,-2.4526,-2.5467,-2.6561,-2.7207,-2.7795,-2.854,-2.8772,-2.8805,-2.8803,-2.8868,-2.8874,-2.8718,-2.9341,-2.9544,-2.8721,-2.9753,-3.0097,-2.875,-2.93,0.0,0.0,0.0,0.0,-3.3339,-3.3755,-3.4372,-3.5141,-3.5473,-3.5948,-3.6708,-3.6295,-3.6045,-3.6045,-3.5756,-3.5622,-3.5622,-3.5622,-3.5622,-3.5622,-3.5594,-3.5549,-3.5549,-3.5549,-3.552,-3.5492,-3.552,-3.5475,-3.5463,-3.595,-3.6105,-3.6172,-3.6563,-3.6748,-3.6662,-3.5532,-3.5198,-3.5198,-3.5041,-3.4947,-3.4947,-3.4899,-3.4899,-3.4899,-3.4899,-3.4899,-3.4833,-3.4584,-3.4518,-3.4336,-3.3607,-3.3243,-3.2928,-3.2448,-3.1752,-3.1255,-3.1255,-3.0858,-3.0526,-3.0526,-3.0311,-2.998,-2.9483,-2.8406,-2.7599,-2.7334,-2.6651,-2.622,-2.622,-2.622,-2.622,-2.622,-2.622,-2.622,-2.622,-2.622,-2.622,-2.622,-2.622,-2.622,-2.622,-2.622,-2.622,-2.622,-2.6541,-2.666,-2.6542,-2.6856,-2.6809,-2.3305,-2.3746,-2.4304,-2.5305,-2.6107,-2.6915,-2.7941,-2.8389,-2.8649,-2.8808,-2.8907,-2.8793,-2.8198,-2.8121,-2.8172,-2.8299,-2.9141,-2.9608,-2.9101,-3.017,-3.0622,-2.959,-2.9663,0.0,0.0,0.0,0.0,-3.3339,-3.4186,-3.4983,-3.5752,-3.6185,-3.6732,-3.7487,-3.6719,-3.6301,-3.6301,-3.5827,-3.5622,-3.5622,-3.5622,-3.5622,-3.5622,-3.5594,-3.5549,-3.5549,-3.5549,-3.552,-3.5508,-3.5761,-3.5816,-3.579,-3.6496,-3.6781,-3.6848,-3.7219,-3.7452,-3.7334,-3.5969,-3.5719,-3.5852,-3.5177,-3.5129,-3.5295,-3.4982,-3.4899,-3.4899,-3.4899,-3.4899,-3.4899,-3.4899,-3.4899,-3.4767,-3.4303,-3.3988,-3.3657,-3.3193,-3.2514,-3.2,-3.2,-3.1421,-3.0865,-3.0865,-3.0692,-3.0361,-2.988,-2.8804,-2.7942,-2.7732,-2.7263,-2.6982,-2.6982,-2.6982,-2.6982,-2.6982,-2.6733,-2.6584,-2.6584,-2.6352,-2.6319,-2.6584,-2.63,-2.6247,-2.6512,-2.6228,-2.6211,-2.6458,-2.692,-2.7245,-2.7427,-2.7818,-2.7795,-2.4581,-2.5007,-2.5374,-2.6812,-2.7752,-2.8315,-2.8296,-2.8895,-2.9233,-2.8424,-2.8201,-2.7849,0.0,0.0,-2.6875,-2.746,-2.8846,-2.987,-2.9816,-3.055,-3.1075,0.0,0.0,0.0,0.0,0.0,0.0,-3.3393,0.0,-3.582,-3.582,-3.686,-3.7505,-3.7542,-3.6719,-3.6301,-3.6343,-3.5827,-3.5622,-3.5622,-3.5656,-3.5673,-3.569,-3.5621,-3.5609,-3.5609,-3.5609,-3.5609,-3.566,-3.6286,-3.6555,-3.6639,-3.7267,-3.7535,-3.7535,-3.7585,-3.7585,-3.7485,-3.657,-3.6802,-3.7251,-3.5719,-3.5688,-3.6072,-3.5278,-3.5015,-3.4998,-3.4965,-3.4965,-3.4949,-3.4916,-3.4899,-3.4899,-3.4899,-3.4369,-3.3856,-3.3856,-3.3276,-3.2746,-3.2746,-3.2166,-3.1626,-3.1636,-3.104,-3.0518,-3.0526,-2.9914,-2.9218,-2.8522,-2.8445,-2.8412,-2.8412,-2.8412,-2.8412,-2.8412,-2.7765,-2.7367,-2.7367,-2.67,-2.6634,-2.7334,-2.6541,-2.6455,-2.7125,-2.6377,-2.6323,-2.694,-2.6973,-2.7326,-2.794,-2.804,-2.7989,-2.4818,-2.5782,-2.6924,-2.7894,-2.8327,-2.8514,-2.8459,-2.8664,-2.8383,-2.6797,-2.7064,-2.7062,0.0,0.0,0.0,-2.6943,-2.9016,0.0,-2.9862,-3.151,0.0,-3.1129,0.0,-3.1745,-3.2162,-3.2198,0.0,0.0,-3.524,-3.582,-3.582,-3.686,-3.7667,-3.802,-3.6878,-3.6451,-3.6741,-3.5985,-3.5622,-3.5622,-3.6214,-3.6485,-3.6502,-3.703,-3.73,-3.73,-3.73,-3.7236,-3.7141,-3.7326,-3.7314,-3.73,-3.8037,-3.8338,-3.8388,-3.8838,-3.9004,-3.8904,-3.8,-3.7518,-3.727,-3.6771,-3.6721,-3.6837,-3.6605,-3.6539,-3.6423,-3.5876,-3.5727,-3.5595,-3.5032,-3.4899,-3.4899,-3.4899,-3.475,-3.4618,-3.4618,-3.4038,-3.3508,-3.3508,-3.2911,-3.2249,-3.1719,-3.1427,-3.1113,-3.0593,-3.0361,-2.998,-2.9251,-2.8704,-2.8412,-2.8412,-2.8412,-2.8412,-2.8412,-2.8246,-2.813,-2.813,-2.7926,-2.7909,-2.813,-2.7795,-2.7701,-2.7787,-2.7473,-2.7371,-2.7502,-2.7989,-2.8304,-2.842,-2.8878,-2.9064,-2.6167,-2.7151,-2.8022,-2.8835,-2.8813,-2.86,-2.8598,-2.8364,-2.7752,-2.6348,-2.6546,0.0,0.0,0.0,0.0,0.0,0.0,0.0,-3.0278,-3.1492,-3.227,0.0,-3.2144,0.0,-3.2687,-3.2723,-3.3248,0.0,-3.5367,-3.5965,-3.6309,-3.7266,-3.7933,-3.8192,-3.7129,-3.6474,-3.6333,-3.6195,-3.6129,-3.6146,-3.6907,-3.728,-3.7297,-3.7719,-3.7858,-3.781,0.0,-3.7761,-3.7633,-3.7902,-3.7986,-3.797,-3.8637,-3.8937,-3.8935,-3.9282,-3.9379,-3.9329,-3.8861,-3.8463,-3.8066,-3.7317,-3.7334,-3.7533,-3.7201,-3.7102,-3.7019,-3.6605,-3.6489,-3.6307,-3.5578,-3.5379,-3.5297,-3.4982,-3.4899,-3.4899,-3.4899,-3.4568,-3.4187,-3.3856,-3.3458,-3.2945,-3.2216,-3.1835,-3.1444,-3.1031,-3.0725,-3.0361,-2.9947,-2.9549,-2.9317,-2.9317,-2.9317,-2.9317,-2.9317,-2.9019,-2.8837,-2.8837,-2.8539,-2.8506,-2.882,-2.8366,-2.823,-2.8445,-2.7932,-2.7784,-2.8023,-2.8378,-2.8705,-2.9014,-2.9265,-2.9289,-2.7874,-2.8553,-2.8835,-2.955,-2.9152,-2.8596,-2.8528,-2.7861,-2.6999,-2.6073,0.0,-2.5468,-2.3562,0.0,-2.5631,-2.5375,0.0,-2.9145,-3.0622,-3.1021,-3.1673,-3.3067,-3.2723,-3.2632,-3.3339,-3.3393,-3.3791,-3.4697,-3.5421,-3.6164,-3.6942,-3.7739,-3.8158,-3.802,-3.7301,-3.6457,-3.5622,-3.6282,-3.662,-3.6637,-3.7398,-3.7753,-3.7706,-3.7925,-3.7961,-3.7799,-3.7949,0.0,-3.782,-3.8337,-3.8535,-3.8602,-3.9076,-3.9272,-3.9272,-3.9272,-3.9272,-3.9272,-3.9272,-3.9272,-3.9073,-3.7814,-3.7831,-3.8228,-3.7599,-3.74,-3.7367,-3.7284,-3.7251,-3.7085,-3.634,-3.6075,-3.5843,-3.5197,-3.4965,-3.4899,-3.4899,-3.4899,-3.47,-3.4054,-3.3938,-3.3707,-3.2961,-3.2315,-3.1885,-3.1785,-3.1139,-3.0659,-3.0659,-3.0576,-3.0526,-3.0526,-3.0526,-3.0526,-3.0526,-2.993,-2.9566,-2.9566,-2.9003,-2.8936,-2.9492,-2.8754,-2.8519,-2.9088,-2.8236,-2.8009,-2.8499,-2.8499,-2.8834,-2.9428,-2.9259,-2.8997,-2.8142,-2.8932,-2.955,-2.9735,-2.9187,-2.8428,-2.7767,-2.6498,0.0,0.0,0.0,-2.3503,-2.1092,-2.3503,0.0,-2.4651,0.0,0.0,0.0,0.0,-3.2089,0.0,0.0,0.0,0.0,0.0,0.0,0.0,0.0,-3.6164,-3.6942,-3.7739,-3.7863,-3.715,-3.6978,-3.6457,-3.5622,-3.5757,-3.5825,-3.5825,-3.6603,-3.6928,-3.6868,-3.8115,-3.8572,-3.8506,-3.9092,0.0,-3.9187,-3.9251,-3.9249,-3.9143,-3.9276,-3.9272,-3.9272,-3.9272,-3.9272,-3.9272,-3.9272,-3.9272,-3.9239,-3.8974,-3.899,-3.9073,-3.8941,-3.8891,-3.8775,-3.8179,-3.803,-3.7847,-3.7102,-3.6456,-3.5976,-3.5843,-3.5346,-3.4899,-3.4899,-3.4899,-3.4866,-3.4717,-3.47,-3.4468,-3.3723,-3.3491,-3.321,-3.2597,-3.1885,-3.1394,-3.1394,-3.0907,-3.0526,-3.0526,-3.0526,-3.0526,-3.0526,-3.0352,-3.0328,-3.0328,-3.0212,-3.0154,-3.0203,-2.9962,-2.975,-2.9592,-2.9303,-2.9109,-2.8978,-2.8978,-2.9041,-2.9167,-2.8811,-2.8606,-2.8199,-2.9044,-2.9607,-2.9228,-2.8529,-2.7716,-2.6908,0.0,0.0,0.0,0.0,-2.2787,-2.1529,0.0,0.0,0.0,0.0,0.0,0.0,0.0,0.0,0.0,0.0,0.0,0.0,0.0,0.0,0.0,0.0,-3.6327,-3.754,-3.7975,-3.7792,-3.6939,-3.69,-3.6457,-3.5622,-3.6028,-3.6214,-3.6231,-3.6992,-3.7317,-3.7191,-3.8302,-3.8707,-3.8538,-3.9272,0.0,-3.9395,-3.9395,-3.9379,-3.9272,-3.9272,-3.9272,-3.9272,-3.9272,-3.9272,-3.9272,-3.9272,-3.9272,-3.9272,-3.9272,-3.9272,-3.9272,-3.9272,-3.9272,-3.9206,-3.8858,-3.8758,-3.8593,-3.7864,-3.7417,-3.6953,-3.6191,-3.5446,-3.4899,-3.4899,-3.4899,-3.4899,-3.4899,-3.4899,-3.4783,-3.4419,-3.4038,-3.3673,-3.3326,-3.263,-3.2034,-3.1626,-3.1262,-3.0957,-3.0518,-3.0526,-3.0526,-3.0526,-3.0485,-3.0443,-3.0443,-3.0401,-3.0316,-3.0274,-3.0087,-2.9886,-2.9697,-2.9502,-2.9321,-2.9075,-2.8873,-2.8779,-2.8779,-2.8367,-2.8076,-2.7919,-2.865,-2.9025,-2.8401,-2.7629,-2.6817,-2.6038,-2.4604,0.0,0.0,-2.2714,-2.23,-2.2227,0.0,0.0,0.0,0.0,0.0,0.0,0.0,0.0,0.0,0.0,0.0,0.0,0.0,0.0,0.0,0.0,0.0,-3.8101,-3.8192,-3.7863,-3.7055,-3.7017,-3.662,-3.5739,-3.6395,-3.661,-3.6535,-3.7097,-3.7337,-3.7211,-3.8069,-3.8321,-3.8151,-3.9049,0.0,0.0,-3.9272,-3.9272,-3.9272,-3.9272,-3.9272,-3.9272,-3.9272,-3.9272,-3.9272,-3.9272,-3.9272,-3.9272,-3.9272,-3.9272,-3.9272,-3.9272,-3.9272,-3.9272,-3.9272,-3.9272,-3.9156,-3.8593,-3.8328,-3.7847,-3.6357,-3.5446,-3.4899,-3.4899,-3.4899,-3.4899,-3.4899,-3.4899,-3.4899,-3.4899,-3.4419,-3.4038,-3.4038,-3.3392,-3.2729,-3.2122,-3.1907,-3.1483,-3.0757,-3.0584,-3.0485,-3.0485,-3.0401,-3.0316,-3.0333,-3.0205,-3.0162,-3.0103,-2.987,-2.9738,-2.9637,-2.9396,-2.9213,-2.8982,-2.8669,-2.8463,-2.8367,-2.8115,-2.784,-2.7092,-2.7373,-2.7428,-2.7415,-2.6758,-2.5944,-2.5256,0.0,0.0,-2.1585,-2.1419,-2.1392,-2.1323,0.0,0.0,0.0,0.0,0.0,0.0,0.0,0.0,0.0,0.0,0.0,0.0,0.0,0.0,0.0,0.0,0.0,-3.8138,-3.8192,-3.7967,-3.7469,-3.7414,-3.7055,-3.6259,-3.6285,-3.6148,-3.5723,-3.5734,-3.5648,-3.5542,-3.6868,-3.7369,-3.7284,-3.8728,0.0,0.0,-3.9272,-3.9272,-3.9272,-3.9272,-3.9272,-3.9272,-3.9272,-3.9272,-3.9272,-3.9272,-3.9272,-3.9272,-3.9272,-3.9272,-3.9272,-3.9272,-3.9272,-3.9272,-3.9272,-3.9272,-3.9255,-3.9189,-3.8692,-3.7847,-3.6357,-3.5446,-3.4899,-3.4899,-3.4899,-3.4899,-3.4899,-3.4899,-3.4899,-3.4899,-3.4833,-3.48,-3.48,-3.417,-3.3611,-3.3452,-3.2813,-3.2093,-3.1298,-3.0728,-3.0417,-3.0417,-3.0274,-3.0146,-3.006,-3.0017,-2.9946,-2.9726,-2.9726,-2.9592,-2.935,-2.9305,-2.9059,-2.8574,-2.8511,-2.8304,-2.7963,-2.8195,-2.8233,-2.6247,-2.6489,-2.647,-2.6516,-2.5925,-2.5125,-2.4331,0.0,-2.165,-2.1263,-2.0838,-2.0657,-2.1121,-2.1683,0.0,0.0,0.0,0.0,0.0,0.0,0.0,0.0,0.0,0.0,0.0,0.0,0.0,0.0,0.0,0.0,-3.7449,-3.792,-3.7967,-3.7505,-3.7505,-3.7246,-3.6678,-3.6409,-3.6216,-3.6002,-3.5656,-3.5446,-3.5325,-3.6235,-3.6538,-3.6506,-3.7533,0.0,0.0,-3.8444,-3.8642,-3.8676,-3.9106,-3.9272,-3.9272,-3.9272,-3.9272,-3.9272,-3.9272,-3.9272,-3.9272,-3.9272,-3.9272,-3.9272,-3.9272,-3.9272,-3.9272,-3.9272,-3.9272,-3.9272,-3.9272,-3.8742,-3.7947,-3.692,-3.6108,-3.5446,-3.4998,-3.4899,-3.4899,-3.4899,-3.4899,-3.4899,-3.4899,-3.4899,-3.4899,-3.4899,-3.4587,-3.4145,-3.3653,-3.3201,-3.2649,-3.1838,-3.1647,-3.1347,-3.0849,-3.0729,-3.0579,-3.0429,-2.9951,-2.9637,-2.9563,-2.9502,-2.9396,-2.9305,-2.8951,-2.8701,-2.8511,-2.8423,-2.8318,-2.8128,-2.8405,-2.855,-2.5098,-2.5437,-2.5625,-2.5618,-2.5231,-2.4592,0.0,-2.2412,-2.1502,-2.0956,-2.0383,-2.0248,-2.1034,-2.1287,-2.1756,0.0,0.0,0.0,0.0,0.0,0.0,0.0,0.0,0.0,0.0,0.0,0.0,0.0,0.0,0.0,0.0,-3.7739,-3.8054,-3.7721,-3.7721,-3.7505,-3.7094,-3.6678,-3.6409,-3.6241,-3.5684,-3.5383,-3.5261,-3.5871,-3.6107,-3.6042,-3.6787,0.0,0.0,-3.7665,-3.788,-3.7963,-3.8676,-3.8957,-3.899,-3.9206,-3.9272,-3.9272,-3.9272,-3.9272,-3.9272,-3.9272,-3.9272,-3.9272,-3.9272,-3.9272,-3.9272,-3.9272,-3.9272,-3.9222,-3.9007,-3.8427,-3.7698,-3.6953,-3.6208,-3.5528,-3.5015,-3.4899,-3.4899,-3.4899,-3.4899,-3.4899,-3.4899,-3.4899,-3.4899,-3.4899,-3.4804,-3.4462,-3.3888,-3.3631,-3.3161,-3.2336,-3.2544,-3.2301,-3.1345,-3.1189,-3.0969,-3.0651,-3.0286,-2.9954,-2.9701,-2.9484,-2.9375,-2.9375,-2.8667,-2.8363,-2.8415,-2.8344,-2.8358,-2.8419,-2.882,-2.9058,-2.352,-2.4107,-2.4707,-2.4707,-2.4753,-2.4374,0.0,-2.245,-2.2023,-2.0363,-2.0017,-2.0236,-2.096,-2.1639,-2.2315,0.0,0.0,0.0,0.0,0.0,0.0,0.0,0.0,0.0,0.0,0.0,0.0,0.0,0.0,0.0,0.0,-3.7739,-3.8192,-3.8192,-3.8192,-3.7967,-3.7505,-3.7094,-3.662,-3.6097,-3.5577,-3.5245,-3.5121,-3.571,-3.6009,0.0,0.0,0.0,0.0,-3.7119,-3.7119,-3.7185,-3.793,-3.8228,-3.8311,-3.9007,-3.9272,-3.9272,-3.9272,-3.9272,-3.9272,-3.9272,-3.9272,-3.9272,-3.9272,-3.9272,-3.9272,-3.9272,-3.9272,-3.9106,-3.8411,-3.7665,-3.6936,-3.6191,-3.5446,-3.4916,-3.4899,-3.4899,-3.4899,-3.4899,-3.4899,-3.4899,-3.4899,-3.4899,-3.4899,-3.4899,-3.4804,-3.4594,-3.4349,-3.4184,-3.3709,-3.2702,-3.3262,-3.3152,-3.1823,-3.1646,-3.123,-3.045,-3.1022,-3.1021,-3.0244,-2.9826,-2.958,-2.958,-2.8461,-2.8047,-2.8307,-2.8307,-2.8449,-2.8681,-2.9319,-2.9958,-2.268,-2.2867,-2.3055,-2.3055,-2.3102,-2.2874,-2.182,-2.1673,-2.1433,-2.0298,-2.0019,-2.0061,-2.0259,-2.0389,-2.103,-2.2753,0.0,0.0,0.0,0.0,0.0,0.0,0.0,0.0,0.0,0.0,0.0,0.0,0.0,0.0,0.0,-3.6924,-3.7612,-3.8174,-3.8192,-3.8088,-3.7862,-3.7114,-3.6643,-3.6416,-3.556,-3.5152,-3.5105,-3.5179,-3.5247,0.0,0.0,0.0,0.0,-3.6141,-3.6357,-3.6473,-3.7731,-3.8212,-3.8295,-3.9007,-3.9272,-3.9272,-3.9272,-3.9272,-3.9272,-3.9272,-3.9272,-3.9272,-3.9272,-3.9272,-3.9272,-3.9272,-3.9272,-3.9106,-3.8394,-3.8046,-3.7549,-3.6307,-3.5827,-3.5512,-3.5015,-3.4899,-3.4899,-3.4899,-3.4899,-3.4899,-3.4899,-3.4899,-3.4851,-3.4804,-3.4643,-3.4448,-3.4201,-3.3949,-3.3665,-3.3236,-3.3323,-3.3069,-3.2233,-3.1902,-3.1569,-3.1263,-3.0691,-3.0253,-2.9986,-2.9867,-2.9831,-2.9831,-2.9185,-2.8904,-2.8966,-2.9119,-2.9449,-2.9972,-3.0176,-3.0379,0.0,-2.2041,-2.2304,-2.2294,-2.235,-2.2192,-2.1419,-2.1317,-2.1149,-2.0279,-2.0078,-1.9998,-1.9889,-1.9988,-2.0633,-2.2205,0.0,0.0,0.0,0.0,0.0,0.0,0.0,0.0,0.0,0.0,0.0,0.0,0.0,0.0,0.0,-3.6544,-3.7308,-3.7915,-3.8106,-3.8054,-3.7739,-3.7058,-3.6545,-3.6274,-3.5453,-3.5088,-3.4994,-3.4947,-3.4899,0.0,0.0,0.0,0.0,-3.5396,-3.5578,-3.5694,-3.6903,-3.7384,-3.75,-3.851,-3.8874,-3.8907,-3.9172,-3.9272,-3.9272,-3.9272,-3.9272,-3.9272,-3.9272,-3.9272,-3.9272,-3.9272,-3.9272,-3.9106,-3.8394,-3.7996,-3.7483,-3.629,-3.5794,-3.5462,-3.4998,-3.4899,-3.4899,-3.4851,-3.4835,-3.4804,-3.4739,-3.4756,-3.4691,-3.4643,-3.4448,-3.425,-3.405,-3.3797,-3.3555,-3.345,-3.3361,-3.3066,-3.2489,-3.2248,-3.1927,-3.1641,-3.1029,-3.0561,-3.0303,-3.0126,-3.0072,-3.0072,-2.9411,-2.9189,-2.9425,-2.9784,-3.019,-3.0568,-3.0568,-3.0568,0.0,-2.1416,-2.2111,-2.2047,-2.218,-2.2128,-2.1377,-2.1318,0.0,-2.0289,-2.0108,-2.0057,-1.9929,-2.0386,-2.1001,-2.1678,0.0,0.0,0.0,0.0,0.0,0.0,0.0,0.0,0.0,0.0,0.0,0.0,0.0,0.0,0.0,-3.6472,-3.7066,-3.7434,-3.7897,-3.7845,-3.7268,-3.6847,-3.6323,-3.5698,-3.5287,-3.4994,-3.4899,-3.4899,-3.4899,0.0,0.0,0.0,0.0,-3.4899,-3.4899,-3.4965,-3.5711,-3.6009,-3.6174,-3.7615,-3.8129,-3.8245,-3.8957,-3.9206,-3.9206,-3.9255,-3.9272,-3.9272,-3.9272,-3.9272,-3.9272,-3.9272,-3.9272,-3.9106,-3.8328,-3.7615,-3.6903,-3.6108,-3.5396,-3.4899,-3.4899,-3.4899,-3.4851,-3.4739,-3.4691,-3.4643,-3.4497,-3.4497,-3.4448,-3.4448,-3.425,-3.405,-3.3899,-3.3642,-3.345,-3.3293,-3.3309,-3.3118,-3.2641,-3.2586,-3.2284,-3.1628,-3.1713,-3.155,-3.0915,-3.0511,-3.0327,-3.0327,-2.9315,-2.9102,-2.9697,-3.0292,-3.0568,-3.0568,-3.0568,-3.0568,-1.7989,0.0,-2.0245,-1.9628,-2.049,-2.1286,0.0,-2.087,-2.1158,0.0,0.0,0.0,0.0,0.0,0.0,0.0,0.0,0.0,0.0,0.0,0.0,0.0,0.0,0.0,0.0,0.0,0.0,0.0,0.0,0.0,0.0,-3.5639,-3.6338,-3.6859,-3.7274,-3.7248,-3.6764,-3.6298,-3.5933,-3.5616,-3.5148,-3.4947,-3.4899,-3.4899,-3.4899,0.0,0.0,0.0,-3.4899,-3.4899,-3.4899,-3.4965,-3.5711,-3.6009,-3.6108,-3.7036,-3.7367,-3.7466,-3.8212,-3.846,-3.8543,-3.9106,-3.9272,-3.9272,-3.9272,-3.9272,-3.9272,-3.9272,-3.9272,-3.8974,-3.7698,-3.7235,-3.6771,-3.5462,-3.5032,-3.4899,-3.4899,-3.4804,-3.4739,-3.4707,-3.4546,-3.4399,-3.4349,-3.425,-3.4151,-3.405,-3.4,-3.3848,-3.3591,-3.3555,-3.345,-3.3293,-3.3309,-3.3118,-3.2641,-3.2256,-3.1875,-3.1399,-3.1072,-3.0852,-3.069,-3.0573,-3.0513,-3.0513,-3.0264,-3.0205,-3.035,-3.0495,-3.0568,-3.0568,-3.0568,-3.0568,-1.6229,-1.8029,-1.9691,-1.9311,-2.0206,-2.1096,-2.0682,0.0,0.0,0.0,0.0,0.0,0.0,0.0,0.0,0.0,0.0,0.0,0.0,0.0,0.0,0.0,0.0,0.0,0.0,0.0,0.0,0.0,0.0,0.0,0.0,-3.5023,-3.5522,-3.6131,-3.6374,-3.6457,-3.6399,-3.602,-3.5644,-3.5287,-3.5024,-3.4899,-3.4899,-3.4899,-3.4899,0.0,0.0,0.0,-3.4899,-3.4899,-3.4899,-3.4932,-3.5346,-3.5495,-3.5578,-3.6324,-3.6605,-3.6704,-3.745,-3.7715,-3.7765,-3.8146,-3.8278,-3.8278,-3.8278,-3.851,-3.8858,-3.9172,-3.9272,-3.9023,-3.7897,-3.7367,-3.682,-3.5678,-3.5148,-3.4899,-3.4804,-3.4739,-3.4643,-3.4448,-3.43,-3.4151,-3.405,-3.3949,-3.3899,-3.3797,-3.3761,-3.3642,-3.3503,-3.345,-3.3293,-3.3011,-3.3011,-3.2726,-3.2048,-3.1781,-3.1552,-3.1336,-3.0866,-3.0568,-3.0568,-3.0568,-3.0568,-3.0568,-3.0568,-3.0568,-3.0568,-3.0568,-3.0568,-3.0568,-3.0568,-3.0568,-1.5395,-1.7577,-1.9748,-1.9579,-2.038,-2.1191,-2.1122,0.0,0.0,0.0,0.0,0.0,0.0,0.0,0.0,0.0,0.0,0.0,0.0,0.0,0.0,0.0,0.0,0.0,0.0,0.0,0.0,0.0,0.0,0.0,0.0,-3.4473,-3.47,-3.5189,-3.5192,-3.5411,-3.5916,-3.5708,-3.5391,-3.4899,-3.4899,-3.4899,-3.4899,-3.4899,-3.4899,-3.4899,0.0,0.0,-3.4899,-3.4899,-3.4899,-3.4899,-3.4899,-3.4899,-3.4982,-3.5595,-3.5827,-3.5943,-3.6688,-3.7019,-3.7102,-3.7102,-3.7102,-3.7102,-3.7102,-3.7632,-3.8344,-3.8941,-3.9189,-3.9106,-3.8394,-3.7665,-3.692,-3.6125,-3.5397,-3.4851,-3.4691,-3.4643,-3.4497,-3.4151,-3.405,-3.3949,-3.371,-3.3591,-3.3539,-3.3539,-3.3382,-3.3277,-3.3277,-3.3171,-3.2942,-3.2547,-3.2477,-3.216,-3.1394,-3.1278,-3.1278,-3.1234,-3.0807,-3.0568,-3.0568,-3.0568,-3.0568,-3.0568,-3.0568,-3.0568,-3.0568,-3.0568,-3.0568,-3.0568,-3.0568,-3.0568,-1.6755,-1.8396,-1.9418,-1.8175,-1.9552,-2.1043,0.0,0.0,0.0,0.0,0.0,0.0,0.0,0.0,0.0,0.0,0.0,0.0,0.0,0.0,0.0,0.0,0.0,0.0,0.0,0.0,0.0,0.0,0.0,0.0,0.0,-3.3831,-3.3981,-3.3882,-3.3844,-3.4065,-3.458,-3.4968,-3.5071,-3.4899,-3.4899,-3.4899,-3.4899,-3.4899,-3.4899,-3.4899,0.0,-3.4899,-3.4899,-3.4899,-3.4899,-3.4899,-3.4899,-3.4899,-3.4916,-3.5032,-3.5065,-3.5164,-3.5909,-3.6589,-3.7102,-3.7102,-3.7102,-3.7102,-3.7102,-3.7632,-3.8228,-3.8344,-3.8808,-3.9106,-3.8394,-3.7665,-3.6869,-3.6026,-3.5283,-3.4691,-3.4546,-3.4349,-3.4151,-3.4101,-3.3848,-3.3607,-3.3555,-3.3102,-3.2765,-3.2765,-3.2437,-3.216,-3.216,-3.2104,-3.2104,-3.2048,-3.1992,-3.1838,-3.1336,-3.1278,-3.1102,-3.0747,-3.0628,-3.0568,-3.0568,-3.0568,-3.0568,-3.0568,-3.0568,-3.0568,-3.0568,-3.0568,-3.0568,-3.0568,-3.0568,-3.0507,-1.5998,-1.7653,-1.8877,-1.7728,-1.9861,-2.2014,0.0,0.0,0.0,0.0,0.0,0.0,0.0,0.0,0.0,0.0,0.0,0.0,0.0,0.0,0.0,0.0,0.0,0.0,0.0,0.0,0.0,0.0,0.0,0.0,-3.3006,-3.2956,-3.2914,-3.2913,-3.2872,-3.3026,-3.3428,-3.3661,-3.415,-3.4899,-3.4899,-3.4899,-3.4899,-3.4899,-3.4899,-3.4899,0.0,-3.4899,-3.4899,-3.4899,-3.4899,-3.4899,-3.4899,-3.4899,-3.4899,-3.4899,-3.4899,-3.4949,-3.5297,-3.5628,-3.5909,-3.5909,-3.5909,-3.5909,-3.5909,-3.6439,-3.7102,-3.75,-3.8411,-3.9106,-3.8394,-3.7895,-3.7362,-3.6569,-3.5728,-3.5037,-3.4886,-3.4683,-3.4462,-3.4322,-3.4484,-3.452,-3.4,-3.3505,-3.3036,-3.2648,-3.2201,-3.1879,-3.1879,-3.1879,-3.1823,-3.161,-3.1552,-3.1379,-3.0984,-3.0925,-3.0807,-3.0628,-3.0568,-3.0568,-3.0568,-3.0568,-3.0568,-3.0568,-3.0568,-3.0568,-3.0568,-3.0507,-3.0447,-3.0447,-3.0341,-3.028,-1.5868,-1.7281,-1.8485,-1.7788,0.0,0.0,0.0,0.0,0.0,0.0,0.0,0.0,0.0,0.0,0.0,0.0,0.0,0.0,0.0,0.0,0.0,0.0,0.0,0.0,0.0,0.0,0.0,0.0,0.0,0.0,-3.2734,-3.2213,-3.1975,-3.2077,-3.1935,-3.2077,-3.2431,-3.2431,-3.3094,-3.4386,-3.4551,-3.4634,-3.4651,-3.4816,-3.4899,-3.4899,-3.4899,-3.4899,-3.4899,-3.4899,-3.4899,-3.4899,-3.4899,-3.4899,-3.4899,-3.4899,-3.4899,-3.4899,-3.4899,-3.4899,-3.4899,-3.4899,-3.4899,-3.4899,-3.4899,-3.5413,-3.6158,-3.6903,-3.803,-3.8887,-3.8507,-3.817,-3.7785,-3.7121,-3.6261,-3.5532,-3.5376,-3.5218,-3.499,-3.4612,-3.4984,-3.5133,-3.4344,-3.3872,-3.3361,-3.2824,-3.2349,-3.206,-3.206,-3.1925,-3.1719,-3.1383,-3.1191,-3.0984,-3.0642,-3.0568,-3.0568,-3.0568,-3.0568,-3.0568,-3.0568,-3.0568,-3.0568,-3.0568,-3.0568,-3.0568,-3.0507,-3.0387,-3.0251,-3.019,-3.0097,-2.9974,-1.8134,-1.8525,-1.8471,-1.8366,0.0,0.0,0.0,0.0,0.0,0.0,0.0,0.0,0.0,0.0,0.0,0.0,0.0,0.0,0.0,0.0,0.0,0.0,0.0,0.0,0.0,0.0,0.0,0.0,0.0,0.0,-3.2795,-3.1915,-3.1452,-3.1466,-3.0929,-3.0957,-3.1643,-3.1702,-3.2083,-3.2862,-3.3541,-3.3872,-3.3889,-3.4584,-3.4899,-3.4899,-3.4899,-3.4899,-3.4899,-3.4899,-3.4899,-3.4899,-3.4899,-3.4899,-3.4899,-3.4899,-3.4899,-3.4899,-3.4899,-3.4899,-3.4899,-3.4899,-3.4899,-3.4899,-3.4899,-3.5413,-3.6158,-3.6903,-3.7562,-3.82,-3.8793,-3.8339,-3.7654,-3.7351,-3.6691,-3.605,-3.5796,-3.5632,-3.5395,-3.4898,-3.4701,-3.45,-3.4013,-3.3517,-3.3196,-3.3136,-3.2731,-3.2445,-3.2445,-3.1893,-3.15,-3.1515,-3.0977,-3.0642,-3.0568,-3.0568,-3.0568,-3.0568,-3.0568,-3.0568,-3.0568,-3.0568,-3.0568,-3.0568,-3.0568,-3.0507,-3.0312,-3.0312,-3.0129,-2.9808,-2.9822,-2.9623,-1.6208,-1.7355,-1.8224,-1.7609,0.0,0.0,0.0,0.0,0.0,0.0,0.0,0.0,0.0,0.0,0.0,0.0,0.0,0.0,0.0,0.0,0.0,0.0,0.0,0.0,0.0,0.0,0.0,0.0,0.0,0.0,0.0,-3.149,-3.11,-3.0982,-3.0757,-3.0701,-3.0924,-3.094,-3.1073,-3.1355,-3.2531,-3.311,-3.3127,-3.3872,-3.4203,-3.4237,-3.47,-3.4899,-3.4899,-3.4899,-3.4899,-3.4899,-3.4899,-3.4899,-3.4899,-3.4899,-3.4899,-3.4899,-3.4899,-3.4899,-3.4899,-3.4899,-3.4899,-3.4899,-3.4899,-3.5081,-3.5462,-3.6109,-3.6682,-3.74,-3.8564,-3.8498,-3.8082,-3.7842,-3.7126,-3.6318,-3.5938,-3.5781,-3.5474,-3.497,-3.5171,-3.5217,-3.4622,-3.413,-3.3684,-3.3283,-3.2815,-3.2513,-3.2513,-3.2295,-3.2135,-3.2135,-3.1555,-3.1163,-3.1163,-3.08,-3.0568,-3.0568,-3.0568,-3.0568,-3.0568,-3.0568,-3.0568,-3.0568,-3.0507,-3.0387,-3.0312,-3.0021,-2.9775,-2.9651,-2.9463,-2.9275,-1.563,-1.6921,-1.8148,0.0,0.0,0.0,0.0,0.0,0.0,0.0,0.0,0.0,0.0,0.0,0.0,0.0,0.0,0.0,0.0,0.0,0.0,0.0,0.0,0.0,0.0,0.0,0.0,0.0,0.0,0.0,0.0,-3.1235,-3.0912,-3.079,-3.0692,-3.0609,-3.0526,-3.0526,-3.0526,-3.0526,-3.152,-3.2133,-3.2381,-3.311,-3.3442,-3.3475,-3.3988,-3.4336,-3.4551,-3.4551,-3.4684,-3.4899,-3.4899,-3.4899,-3.4899,-3.4899,-3.4899,-3.4899,-3.4899,-3.4899,-3.4899,-3.4899,-3.4804,-3.4691,-3.4851,-3.4739,-3.4693,-3.5349,-3.582,-3.6385,-3.7229,-3.7907,-3.8278,-3.8017,-3.7476,-3.6822,-3.625,-3.6086,-3.5829,-3.512,-3.5356,-3.5458,-3.4816,-3.45,-3.4109,-3.3667,-3.3302,-3.3122,-3.3122,-3.2933,-3.2745,-3.2542,-3.1917,-3.1526,-3.1526,-3.0945,-3.0568,-3.0568,-3.0568,-3.0568,-3.0568,-3.0568,-3.0568,-3.0568,-3.0387,-3.0251,-3.0129,-2.9789,-2.9477,-2.9352,-2.9099,-2.8972,-1.7191,-1.7707,0.0,0.0,0.0,0.0,0.0,0.0,0.0,0.0,0.0,0.0,0.0,0.0,0.0,0.0,0.0,0.0,0.0,0.0,0.0,0.0,0.0,0.0,0.0,0.0,0.0,0.0,0.0,0.0,0.0,-3.1179,-3.0895,-3.0912,-3.0651,-3.0526,-3.0526,-3.0526,-3.0526,-3.0526,-3.0526,-3.0907,-3.1593,-3.2348,-3.268,-3.268,-3.268,-3.3094,-3.3773,-3.3789,-3.422,-3.4899,-3.4899,-3.4899,-3.4899,-3.4899,-3.4899,-3.4899,-3.4899,-3.4899,-3.4899,-3.4899,-3.4546,-3.4201,-3.4691,-3.4399,-3.4043,-3.4671,-3.5017,-3.5053,-3.4602,-3.6285,-3.8091,-3.7743,-3.7685,-3.7508,-3.6815,-3.6646,-3.6383,-3.535,-3.5169,-3.5037,-3.4481,-3.4414,-3.4414,-3.4414,-3.4414,-3.4414,-3.4414,-3.3862,-3.3238,-3.26,-3.1946,-3.154,-3.1526,-3.0945,-3.0582,-3.0568,-3.0568,-3.0568,-3.0568,-3.0568,-3.0568,-3.0568,-3.0387,-3.0129,-2.9808,-2.9651,-2.9289,-2.878,-2.8794,-2.8729,-1.6235,-1.6731,0.0,0.0,0.0,0.0,0.0,0.0,0.0,0.0,0.0,0.0,0.0,0.0,0.0,0.0,0.0,0.0,0.0,0.0,0.0,0.0,0.0,0.0,0.0,0.0,0.0,0.0,0.0,0.0,0.0,-3.0302,-3.0359,-3.0757,-3.0692,-3.0609,-3.0526,-3.0526,-3.0526,-3.0526,-3.0526,-3.0626,-3.0874,-3.1603,-3.1934,-3.1967,-3.2464,-3.2812,-3.3061,-3.3574,-3.422,-3.4899,-3.4899,-3.4899,-3.4899,-3.4899,-3.4899,-3.4851,-3.4448,-3.4267,-3.407,-3.3818,-3.3459,-3.3182,-3.3459,-3.3303,-3.3071,-3.3206,-3.363,-3.4015,-3.3671,-3.4512,-3.5428,-3.5133,-3.5444,-3.5538,-3.4515,-3.4663,-3.4741,-3.4126,-3.4361,-3.4601,-3.4414,-3.4414,-3.4414,-3.4414,-3.4414,-3.4414,-3.4414,-3.424,-3.4066,-3.3877,-3.3282,-3.2716,-3.2266,-3.1613,-3.0985,-3.0416,-3.0387,-3.0447,-3.0568,-3.0447,-3.0387,-3.0387,-3.0129,-2.9822,-2.9651,-2.9352,-2.9099,-2.8794,-2.8678,-2.8665,-1.5998,0.0,0.0,0.0,0.0,0.0,0.0,0.0,0.0,0.0,0.0,0.0,0.0,0.0,0.0,0.0,0.0,0.0,0.0,0.0,0.0,0.0,0.0,0.0,0.0,0.0,0.0,0.0,0.0,0.0,0.0,-2.9391,-2.961,-3.0225,-3.0202,-3.0269,-3.0526,-3.0526,-3.0526,-3.0526,-3.0526,-3.0526,-3.0543,-3.0974,-3.1146,-3.1179,-3.1951,-3.2266,-3.2315,-3.3044,-3.3789,-3.4452,-3.4452,-3.4634,-3.4899,-3.4899,-3.4723,-3.4399,-3.4102,-3.3716,-3.3308,-3.3061,-3.2741,-3.247,-3.281,-3.2579,-3.2321,-3.221,-3.2573,-3.288,-3.2282,-3.2794,-3.3546,-3.3923,-3.4303,-3.4364,-3.3498,-3.3791,-3.4076,-3.3587,-3.3978,-3.4414,-3.4414,-3.4414,-3.4414,-3.4414,-3.4414,-3.4414,-3.4414,-3.4414,-3.4414,-3.4414,-3.3781,-3.3144,-3.2507,-3.1714,-3.1003,-3.0248,-3.0144,-3.019,-3.0251,-3.0266,-3.0205,-3.0129,-2.9822,-2.9512,-2.9085,-2.883,-2.8552,-2.8399,-2.8339,-2.8408,0.0,0.0,0.0,0.0,0.0,0.0,0.0,0.0,0.0,0.0,0.0,0.0,0.0,0.0,0.0,0.0,0.0,0.0,0.0,0.0,0.0,0.0,0.0,0.0,0.0,0.0,0.0,0.0,0.0,0.0,0.0,-2.8486,-2.8743,-2.9459,-2.9423,-2.9731,-3.041,-3.0493,-3.0526,-3.0526,-3.0526,-3.0526,-3.0526,-3.0526,-3.0526,-3.0559,-3.1196,-3.1527,-3.1626,-3.2315,-3.3027,-3.3707,-3.3756,-3.4157,-3.4704,-3.4771,-3.4333,-3.3684,-3.3617,-3.3203,-3.2617,-3.2579,-3.2195,-3.1875,-3.236,-3.2099,-3.158,-3.158,-3.1807,-3.1736,-3.0851,-3.1306,-3.2302,-3.3427,-3.3743,-3.3653,-3.3183,-3.3565,-3.3834,-3.3412,-3.3848,-3.4327,-3.4327,-3.437,-3.4414,-3.4414,-3.4414,-3.4414,-3.4414,-3.4414,-3.4414,-3.4346,-3.3691,-3.3019,-3.2385,-3.1604,-3.0877,-3.0264,-3.0007,-2.9916,-2.9916,-2.9969,-2.9974,-2.9747,-2.9588,-2.9113,-2.8368,-2.8106,-2.7943,-2.7882,-2.7864,-2.8074,0.0,0.0,0.0,0.0,0.0,0.0,0.0,0.0,0.0,0.0,0.0,0.0,0.0,0.0,0.0,0.0,0.0,0.0,0.0,0.0,0.0,0.0,0.0,0.0,0.0,0.0,0.0,0.0,0.0,0.0,-2.7684,-2.7644,-2.7956,-2.8627,-2.9135,-2.9499,-2.9648,-3.0228,-3.0526,0.0,-3.0526,-3.0526,-3.0526,-3.0526,-3.0526,-3.0526,-3.0692,-3.109,-3.1593,-3.1785,-3.2266,-3.2978,-3.3557,-3.3529,-3.3259,-3.3809,-3.3582,-3.2886,-3.247,-3.2155,-3.1849,-3.1552,-3.1204,-3.0911,-3.1131,-3.1029,-3.0851,-3.0851,-3.0851,-3.0851,-3.0628,-3.0789,-3.0981,-3.1247,-3.1718,-3.1877,-3.1333,-3.1667,-3.2057,-3.1932,-3.2875,-3.3674,-3.3674,-3.4095,-3.4414,-3.4414,-3.4414,-3.4414,-3.4414,-3.4414,-3.4346,-3.4196,-3.4013,-3.3532,-3.262,-3.2383,-3.1829,-3.0946,-3.0839,-3.0773,-3.0641,-2.9903,-2.9435,-2.9435,-2.8867,-2.8646,-2.8718,-2.8232,-2.8105,-2.8375,-2.8335,-2.8388,0.0,0.0,0.0,0.0,0.0,0.0,0.0,0.0,0.0,0.0,0.0,0.0,0.0,0.0,0.0,0.0,0.0,0.0,0.0,0.0,0.0,0.0,0.0,0.0,0.0,0.0,0.0,0.0,0.0,-2.6584,-2.6845,-2.6859,-2.7171,-2.7864,-2.8191,-2.8555,-2.892,-2.9632,-2.998,-2.9996,-3.0344,-3.0526,-3.0526,-3.0526,-3.0526,-3.0526,-3.0526,-3.0742,-3.109,-3.109,-3.152,-3.2172,-3.2295,-3.2315,-3.2305,-3.2729,-3.24,-3.175,-3.1769,-3.1522,-3.1131,-3.094,-3.0762,-3.0628,-3.0702,-3.0642,-3.0568,-3.0568,-3.0568,-3.0568,-3.0568,-3.0568,-3.0568,-3.0568,-3.0829,-3.0974,-3.064,-3.1061,-3.1526,-3.1526,-3.2571,-3.347,-3.347,-3.3993,-3.4414,-3.4414,-3.4414,-3.4414,-3.4414,-3.4346,-3.4196,-3.4128,-3.3854,-3.3405,-3.2577,-3.2302,-3.1886,-3.1071,-3.061,-3.0405,-3.0337,-2.943,-2.9094,-2.9454,-2.8852,-2.8464,-2.8273,-2.799,-2.7921,-2.8089,-2.8096,-2.8224,0.0,0.0,0.0,0.0,0.0,0.0,0.0,0.0,0.0,0.0,0.0,0.0,0.0,0.0,0.0,0.0,0.0,0.0,0.0,0.0,0.0,0.0,0.0,0.0,0.0,0.0,0.0,0.0,0.0,-2.6295,-2.626,-2.6222,-2.6485,-2.7081,-2.7234,-2.7599,-2.8174,-2.8887,-2.9234,-2.9251,-2.998,-3.0394,-3.0526,-3.0526,-3.0526,-3.0526,-3.0526,-3.0526,-3.0526,-3.0485,-3.079,-3.1205,-3.0797,-3.0924,-3.1277,-3.1408,-3.0976,-3.0428,-3.1117,-3.0968,-3.0437,-3.0539,-3.0568,-3.0568,-3.0568,-3.0568,-3.0568,-3.0568,-3.0568,-3.0568,-3.0568,-3.0568,-3.0568,-3.0568,-3.0568,-3.0568,-3.0568,-3.0988,-3.1351,-3.1351,-3.2411,-3.334,-3.3441,-3.3993,-3.4414,-3.4414,-3.4414,-3.4414,-3.4346,-3.4196,-3.4059,-3.3991,-3.3591,-3.3045,-3.2457,-3.2111,-3.1681,-3.1185,-3.0357,-2.9936,-2.9936,-2.9125,-2.898,-2.9652,-2.8957,-2.8328,-2.7866,-2.7718,-2.7775,-2.7861,-2.7861,-2.8089,0.0,0.0,0.0,0.0,0.0,0.0,0.0,0.0,0.0,0.0,0.0,0.0,0.0,0.0,0.0,0.0,0.0,0.0,0.0,0.0,0.0,0.0,0.0,0.0,0.0,0.0,0.0,0.0,-2.6382,-2.6277,-2.6203,-2.6203,-2.6253,-2.6352,-2.6949,-2.7367,-2.7466,-2.8158,-2.8506,-2.8522,-2.9218,-2.9897,-3.0526,-3.0526,-3.0526,-3.0526,-3.0526,-3.0526,-3.0485,-3.0443,-3.0222,-2.9927,-3.036,-2.994,-2.9179,-2.9848,-2.9585,-2.9053,-2.9696,-2.9799,-2.9842,-3.0393,-3.0568,-3.0568,-3.0568,-3.0568,-3.0568,-3.0568,-3.0568,-3.0568,-3.0568,-3.0568,-3.0568,-3.0568,-3.0568,-3.0568,-3.0568,-3.064,-3.0698,-3.0698,-3.1758,-3.2817,-3.3369,-3.3993,-3.4414,-3.4414,-3.4414,-3.4346,-3.4128,-3.4128,-3.3922,-3.3452,-3.3312,-3.3072,-3.2451,-3.2365,-3.2208,-3.201,-3.1389,-3.0995,-3.0995,-2.9872,-2.9349,-2.9426,-2.8413,-2.8027,-2.8424,-2.7904,-2.7963,-2.8402,-2.8402,-2.8438,0.0,0.0,0.0,0.0,0.0,0.0,0.0,0.0,0.0,0.0,0.0,0.0,0.0,0.0,0.0,0.0,0.0,0.0,0.0,0.0,0.0,0.0,0.0,0.0,0.0,0.0,0.0,0.0,-2.6293,-2.6222,-2.622,-2.622,-2.622,-2.622,-2.6518,-2.6667,-2.6667,-2.7433,-2.8014,-2.8412,-2.8688,-2.9201,-2.9897,-2.9897,-3.0129,-3.0526,-3.0443,-3.0443,-3.0443,-3.0316,-2.9984,-2.9483,-2.939,-2.8881,-2.8177,-2.8515,-2.8404,-2.8231,-2.8869,-2.9334,-2.9668,-2.9958,-3.0277,-3.0568,-3.0568,-3.0568,-3.0568,-3.0568,-3.0568,-3.0568,-3.0568,-3.0568,-3.0568,-3.0568,-3.0568,-3.0568,-3.0568,-3.0568,-3.0684,-3.1032,-3.1874,-3.2716,-3.3354,-3.3993,-3.4414,-3.4414,-3.4278,-3.4196,-3.4128,-3.3868,-3.3591,-3.3326,-3.3016,-3.2717,-3.2417,-3.2359,-3.2069,-3.1703,-3.1084,-3.0545,-3.0241,-2.9341,-2.8895,-2.8895,-2.8431,-2.8232,-2.8463,-2.824,-2.8282,-2.851,-2.851,-2.851,0.0,0.0,0.0,0.0,0.0,0.0,0.0,0.0,0.0,0.0,0.0,0.0,0.0,0.0,0.0,0.0,0.0,0.0,0.0,0.0,0.0,0.0,0.0,0.0,0.0,0.0,0.0,0.0,-2.6222,-2.622,-2.622,-2.622,-2.622,-2.622,-2.622,-2.622,-2.622,-2.675,-2.74,-2.813,-2.813,-2.8456,-2.9095,-2.9294,-2.965,-3.0162,-3.0335,-3.0316,-3.013,-3.0017,-2.9572,-2.8934,-2.8432,-2.7913,-2.7473,-2.7448,-2.749,-2.7578,-2.8216,-2.8753,-2.9203,-2.9523,-2.9943,-3.0364,-3.0524,-3.0568,-3.0568,-3.0568,-3.0568,-3.0568,-3.0568,-3.0568,-3.0568,-3.0568,-3.0568,-3.0568,-3.0568,-3.0568,-3.0756,-3.1395,-3.2063,-3.2716,-3.3354,-3.3993,-3.4414,-3.4346,-3.4196,-3.4059,-3.3922,-3.3437,-3.3016,-3.2874,-3.2273,-3.1896,-3.1896,-3.1763,-3.1482,-3.0996,-3.0406,-2.9871,-2.9419,-2.8816,-2.851,-2.851,-2.851,-2.851,-2.851,-2.851,-2.851,-2.851,-2.851,-2.851,0.0,0.0,0.0,0.0,0.0,0.0,0.0,0.0,0.0,0.0,0.0,0.0,0.0,0.0,0.0,0.0,0.0,0.0,0.0,0.0,0.0,0.0,0.0,0.0,0.0,0.0,0.0,0.0,-2.6222,-2.622,-2.622,-2.622,-2.622,-2.622,-2.622,-2.622,-2.622,-2.6253,-2.6617,-2.7367,-2.7367,-2.7673,-2.8289,-2.8975,-2.928,-2.9231,-3.002,-3.0027,-2.9467,-2.938,-2.8732,-2.7784,-2.76,-2.724,-2.6832,-2.6875,-2.6837,-2.6924,-2.7563,-2.7741,-2.7972,-2.9232,-2.9639,-2.9784,-3.0393,-3.0568,-3.0568,-3.0568,-3.0568,-3.0568,-3.0568,-3.0568,-3.0568,-3.0568,-3.0568,-3.0568,-3.0568,-3.0568,-3.0756,-3.1395,-3.2063,-3.2716,-3.3354,-3.3993,-3.4346,-3.4128,-3.4128,-3.3922,-3.3382,-3.2832,-3.2232,-3.1663,-3.1057,-3.0607,-3.0393,-3.0393,-3.0393,-3.0317,-2.9793,-2.9419,-2.9419,-2.8816,-2.851,-2.851,-2.851,-2.851,-2.851,-2.851,-2.851,-2.851,-2.851,-2.851,0.0,0.0,0.0,0.0,0.0,0.0,0.0,0.0,0.0,0.0,0.0,0.0,0.0,0.0,0.0,0.0,0.0,0.0,0.0,0.0,0.0,0.0,0.0,0.0,0.0,0.0,0.0,0.0,0.0,-2.5706,-2.6187,-2.622,-2.622,-2.622,-2.622,-2.622,-2.622,-2.622,-2.63,-2.6495,-2.6495,-2.6801,-2.7432,-2.7617,-2.8159,-2.8916,-2.8888,-2.9022,-2.9319,-2.8842,-2.824,-2.755,-2.7515,-2.7188,-2.6779,-2.6779,-2.6779,-2.6823,-2.7041,-2.7389,-2.7868,-2.8739,-2.929,-2.974,-3.0379,-3.0568,-3.0568,-3.0568,-3.0568,-3.0568,-3.0568,-3.0568,-3.0568,-3.0568,-3.0568,-3.0568,-3.0568,-3.0887,-3.125,-3.1482,-3.2396,-3.3195,-3.3427,-3.3926,-3.4196,-3.4128,-3.3465,-3.296,-3.2761,-3.1856,-3.1193,-3.0983,-3.0607,-3.0393,-3.0317,-3.0317,-3.0088,-2.9716,-2.9484,-2.9263,-2.8816,-2.8578,-2.851,-2.851,-2.851,-2.851,-2.851,-2.851,-2.851,-2.851,-2.851,-2.851,0.0,0.0,0.0,0.0,0.0,0.0,0.0,0.0,0.0,0.0,0.0,0.0,0.0,0.0,0.0,0.0,0.0,0.0,0.0,0.0,0.0,0.0,0.0,0.0,0.0,0.0,0.0,0.0,0.0,0.0,-2.5806,-2.5839,-2.5955,-2.6203,-2.622,-2.622,-2.622,-2.622,-2.6115,-2.601,-2.599,-2.618,-2.6521,-2.6523,-2.6977,-2.7769,-2.7604,-2.8061,-2.8858,-2.8255,-2.7715,-2.7291,-2.7291,-2.7049,-2.6779,-2.6779,-2.6779,-2.6779,-2.6779,-2.7055,-2.752,-2.8158,-2.8782,-2.9421,-3.006,-3.0408,-3.0568,-3.0568,-3.0568,-3.0568,-3.0568,-3.0568,-3.0568,-3.0568,-3.0568,-3.0568,-3.0507,-3.1014,-3.1584,-3.1801,-3.2651,-3.3463,-3.368,-3.3636,-3.3632,-3.3534,-3.2648,-3.1928,-3.1769,-3.0895,-3.0304,-3.0228,-2.9871,-2.9716,-2.9716,-2.9716,-2.9484,-2.9118,-2.9118,-2.8882,-2.851,-2.851,-2.851,-2.851,-2.851,-2.851,-2.851,-2.851,-2.851,-2.851,-2.851,-2.851,0.0,0.0,0.0,0.0,0.0,0.0,0.0,0.0,0.0,0.0,0.0,0.0,0.0,0.0,0.0,0.0,0.0,0.0,0.0,0.0,0.0,0.0,0.0,0.0,0.0,0.0,0.0,0.0,-2.3967,-2.4299,-2.5027,-2.5094,-2.5441,-2.6154,-2.6203,-2.622,-2.6168,-2.6168,-2.6115,-2.5974,-2.5917,-2.5787,-2.5556,-2.5847,-2.5873,-2.5827,-2.6336,-2.7116,-2.7997,-2.7665,-2.7188,-2.6779,-2.6779,-2.6779,-2.6779,-2.6779,-2.6779,-2.6779,-2.6779,-2.6779,-2.6895,-2.752,-2.8158,-2.8797,-2.9435,-3.0074,-3.0568,-3.0568,-3.0568,-3.0568,-3.0568,-3.0568,-3.0568,-3.0568,-3.0568,-3.0507,-3.0326,-3.0953,-3.1681,-3.2396,-3.2905,-3.3408,-3.3959,-3.3339,-3.2618,-3.2448,-3.1696,-3.1031,-3.0594,-2.9999,-2.9561,-2.9419,-2.8816,-2.851,-2.851,-2.851,-2.851,-2.851,-2.851,-2.851,-2.851,-2.851,-2.851,-2.851,-2.851,-2.851,-2.851,-2.851,-2.851,-2.851,-2.851,-2.851,-1.2941,0.0,0.0,0.0,0.0,0.0,0.0,0.0,0.0,0.0,0.0,0.0,0.0,0.0,0.0,0.0,0.0,0.0,0.0,0.0,0.0,0.0,0.0,0.0,0.0,0.0,0.0,0.0,-2.3189,-2.3537,-2.4265,-2.4812,-2.5193,-2.5408,-2.5938,-2.6168,-2.6063,-2.6063,-2.5828,-2.5362,-2.5339,-2.5107,-2.4686,-2.4653,-2.491,-2.5346,-2.5108,-2.5747,-2.6871,-2.696,-2.6922,-2.6779,-2.6779,-2.6779,-2.6779,-2.6779,-2.6779,-2.6779,-2.6779,-2.6779,-2.6895,-2.752,-2.8158,-2.8797,-2.9435,-3.0074,-3.0568,-3.0568,-3.0568,-3.0568,-3.0568,-3.0507,-3.0387,-3.0387,-3.0341,-3.0233,-3.0158,-3.0954,-3.1754,-3.2084,-3.3001,-3.3682,-3.3701,-3.3058,-3.2376,-3.2218,-3.1031,-3.0063,-2.9922,-2.9328,-2.8816,-2.8736,-2.859,-2.851,-2.851,-2.851,-2.851,-2.851,-2.851,-2.851,-2.851,-2.851,-2.851,-2.851,-2.851,-2.851,-2.851,-2.851,-2.851,-2.851,-2.851,-2.851,0.0,0.0,0.0,0.0,0.0,0.0,0.0,-1.697,0.0,0.0,0.0,0.0,0.0,0.0,0.0,0.0,0.0,0.0,0.0,0.0,0.0,0.0,0.0,0.0,0.0,-2.1797,-2.1963,-2.241,-2.2427,-2.2758,-2.3503,-2.4249,-2.4646,-2.4646,-2.5359,-2.5582,-2.5281,-2.5591,-2.5422,-2.4823,-2.4775,-2.4574,-2.4219,-2.3937,-2.4064,-2.4457,-2.4267,-2.4629,-2.5408,-2.6083,-2.6533,-2.6779,-2.6779,-2.6779,-2.6779,-2.6779,-2.6779,-2.6779,-2.6779,-2.6779,-2.6852,-2.7215,-2.794,-2.8753,-2.9116,-2.9856,-3.0568,-3.0568,-3.0507,-3.0447,-3.0447,-3.0326,-3.0205,-3.0129,-2.9884,-2.9623,-2.9435,-3.0141,-3.0867,-3.1415,-3.2358,-3.3058,-3.269,-3.1856,-3.1254,-3.1119,-2.9999,-2.9184,-2.9184,-2.8803,-2.851,-2.851,-2.851,-2.851,-2.851,-2.851,-2.851,-2.851,-2.851,-2.851,-2.851,-2.851,-2.851,-2.851,-2.851,-2.8431,-2.8339,-2.8431,-2.8431,-2.8339,-2.8339,-2.8351,-1.4746,0.0,0.0,0.0,0.0,0.0,-1.8092,-1.6764,0.0,0.0,0.0,0.0,0.0,0.0,0.0,0.0,0.0,0.0,0.0,0.0,0.0,0.0,0.0,0.0,-2.1665,-2.1748,-2.1797,-2.1797,-2.1797,-2.2079,-2.2742,-2.3487,-2.3884,-2.3884,-2.4529,-2.4701,-2.4269,-2.4858,-2.4886,-2.4307,-2.423,-2.4135,-2.3937,-2.3537,-2.3319,-2.3363,-2.3652,-2.3818,-2.3978,-2.511,-2.601,-2.6678,-2.675,-2.6779,-2.6779,-2.6779,-2.6779,-2.6779,-2.6779,-2.6779,-2.6779,-2.6779,-2.7592,-2.8579,-2.8652,-2.9523,-3.048,-3.0553,-3.0447,-3.0266,-3.0251,-3.0144,-2.9974,-2.9685,-2.9282,-2.8812,-2.8505,-2.8852,-2.9512,-3.0351,-3.126,-3.1783,-3.1254,-3.0367,-2.9704,-2.9704,-2.9028,-2.851,-2.851,-2.851,-2.851,-2.851,-2.851,-2.851,-2.851,-2.851,-2.851,-2.851,-2.851,-2.851,-2.851,-2.851,-2.851,-2.851,-2.851,-2.8339,-2.8179,-2.8339,-2.8339,-2.8179,-2.8179,-2.803,-1.6233,-1.6929,-1.7599,0.0,0.0,0.0,0.0,-1.7199,0.0,0.0,0.0,0.0,0.0,0.0,0.0,0.0,0.0,0.0,0.0,0.0,0.0,0.0,0.0,0.0,-2.0903,-2.1433,-2.1797,-2.1797,-2.1797,-2.1847,-2.1996,-2.2708,-2.3091,-2.3027,-2.3438,-2.3777,-2.4063,-2.3941,-2.3838,-2.3767,-2.3724,-2.3523,-2.3142,-2.3023,-2.3023,-2.3023,-2.3064,-2.3412,-2.3905,-2.4152,-2.4936,-2.6039,-2.6576,-2.6779,-2.6779,-2.6779,-2.6779,-2.6779,-2.6779,-2.6779,-2.6779,-2.6779,-2.7302,-2.8013,-2.8521,-2.9203,-2.9856,-3.0242,-3.028,-3.0097,-2.9946,-2.9775,-2.9526,-2.8889,-2.8583,-2.8274,-2.7802,-2.802,-2.8355,-2.8536,-2.9965,-3.1044,-3.0758,-3.0152,-2.9626,-2.9484,-2.8882,-2.851,-2.851,-2.851,-2.851,-2.851,-2.851,-2.851,-2.851,-2.851,-2.851,-2.851,-2.851,-2.851,-2.851,-2.851,-2.851,-2.851,-2.8339,-2.8259,-2.8179,-2.8259,-2.8191,-2.7962,-2.7777,-2.7603,-1.7447,-1.7889,-1.8506,-1.8506,0.0,0.0,0.0,0.0,0.0,0.0,0.0,0.0,0.0,0.0,0.0,0.0,0.0,0.0,0.0,0.0,0.0,0.0,0.0,0.0,-2.0158,-2.0489,-2.0853,-2.1218,-2.1582,-2.1797,-2.1797,-2.2145,-2.2236,-2.197,-2.2475,-2.263,-2.2375,-2.2862,-2.302,-2.2789,-2.3113,-2.3142,-2.2888,-2.2888,-2.2888,-2.2888,-2.2888,-2.3076,-2.3441,-2.376,-2.4457,-2.54,-2.6039,-2.6489,-2.6779,-2.6779,-2.6779,-2.6779,-2.6779,-2.6779,-2.6779,-2.6779,-2.7215,-2.7853,-2.8492,-2.9276,-2.9968,-3.0043,-2.996,-2.9789,-2.9623,-2.9247,-2.8817,-2.8338,-2.7802,-2.7284,-2.6947,-2.6981,-2.7092,-2.7089,-2.8238,-2.939,-2.9512,-2.9328,-2.9028,-2.8961,-2.8657,-2.851,-2.851,-2.851,-2.851,-2.851,-2.851,-2.851,-2.851,-2.851,-2.851,-2.851,-2.851,-2.851,-2.851,-2.851,-2.8431,-2.8339,-2.8191,-2.795,-2.7684,-2.7684,-2.7684,-2.7534,-2.729,-2.7126,0.0,0.0,0.0,0.0,0.0,-1.8963,0.0,0.0,0.0,0.0,0.0,0.0,0.0,0.0,0.0,0.0,0.0,0.0,0.0,0.0,0.0,0.0,0.0,0.0,0.0,-1.9386,-1.9684,-2.0423,-2.1036,-2.1433,-2.1566,-2.1715,-2.1554,-2.1102,-2.1568,-2.1478,-2.0708,-2.1719,-2.2203,-2.2004,-2.2512,-2.2786,-2.2888,-2.2888,-2.2888,-2.2888,-2.2888,-2.2888,-2.2931,-2.3499,-2.4181,-2.495,-2.5546,-2.6199,-2.6779,-2.6779,-2.6779,-2.6779,-2.6779,-2.6779,-2.6779,-2.6779,-2.7215,-2.7784,-2.8421,-2.9305,-2.9986,-2.978,-2.9588,-2.9275,-2.9121,-2.8597,-2.8026,-2.7696,-2.696,-2.6289,-2.6082,-2.6005,-2.5973,-2.6069,-2.6803,-2.7609,-2.8246,-2.8438,-2.851,-2.851,-2.851,-2.851,-2.851,-2.851,-2.851,-2.851,-2.851,-2.851,-2.851,-2.851,-2.851,-2.851,-2.8431,-2.8431,-2.8431,-2.8431,-2.8271,-2.8087,-2.7869,-2.7534,-2.7103,-2.7021,-2.7021,-2.7103,-2.688,-2.6644,0.0,0.0,0.0,0.0,-2.1242,0.0,0.0,0.0,0.0,0.0,0.0,0.0,0.0,0.0,0.0,0.0,0.0,0.0,0.0,0.0,0.0,0.0,0.0,0.0,0.0,-1.8608,-1.8923,-1.9667,-1.9799,-2.0141,-2.0771,-2.1391,-2.1509,-2.1039,-2.0695,-2.0558,-2.0609,-2.0494,-2.0954,-2.1989,-2.2062,-2.2396,-2.2888,-2.2888,-2.2888,-2.2888,-2.2888,-2.2888,-2.2902,-2.2975,-2.3775,-2.495,-2.5546,-2.6199,-2.6779,-2.6779,-2.6779,-2.6779,-2.6779,-2.6779,-2.6779,-2.6779,-2.7108,-2.7619,-2.8253,-2.8653,-2.8975,-2.951,-2.9085,-2.8417,-2.8222,-2.7762,-2.7162,-2.6564,-2.6289,-2.6082,-2.5523,-2.5431,-2.554,-2.6009,-2.6202,-2.661,-2.7633,-2.821,-2.851,-2.851,-2.851,-2.851,-2.851,-2.851,-2.851,-2.851,-2.851,-2.851,-2.851,-2.851,-2.851,-2.851,-2.8339,-2.8259,-2.8259,-2.803,-2.7869,-2.7603,-2.7348,-2.7196,-2.6891,-2.6561,-2.6479,-2.6633,-2.6396,-2.624,0.0,0.0,0.0,0.0,0.0,0.0,-1.9577,0.0,-1.9522,0.0,0.0,0.0,0.0,0.0,0.0,0.0,0.0,0.0,0.0,0.0,0.0,0.0,0.0,0.0,0.0,0.0,0.0,0.0,-1.9462,-1.965,-2.1193,-2.113,-2.1024,-2.0893,-2.0499,-2.0192,-1.9968,-2.004,-2.0538,-2.1423,-2.1801,-2.2338,-2.2888,-2.2888,-2.2888,-2.2888,-2.2888,-2.2888,-2.2888,-2.2888,-2.3717,-2.4907,-2.5154,-2.5865,-2.6779,-2.6779,-2.6779,-2.6779,-2.6779,-2.6779,-2.6779,-2.6645,-2.7025,-2.7564,-2.7897,-2.8302,-2.8755,-2.9059,-2.8624,-2.8105,-2.7908,-2.7242,-2.6564,-2.6302,-2.5943,-2.5594,-2.5382,-2.5312,-2.5372,-2.56,-2.5889,-2.6346,-2.7128,-2.7705,-2.8162,-2.8462,-2.851,-2.851,-2.851,-2.851,-2.851,-2.851,-2.851,-2.8431,-2.8339,-2.8351,-2.8271,-2.8203,-2.7938,-2.7765,-2.7765,-2.7464,-2.7301,-2.7126,-2.6951,-2.6539,-2.5874,-2.5717,-2.5359,-2.4999,-2.5717,-2.599,-2.1013,0.0,0.0,0.0,0.0,0.0,0.0,0.0,0.0,0.0,0.0,0.0,0.0,0.0,0.0,0.0,0.0,0.0,0.0,0.0,0.0,0.0,0.0,0.0,0.0,0.0,0.0,0.0,0.0,-1.8989,-2.0718,-2.0656,-2.0557,-2.0511,-2.0371,-2.0019,-1.953,-1.9733,-2.0219,-2.1003,-2.1481,-2.2149,-2.2888,-2.2888,-2.2888,-2.2888,-2.2888,-2.2888,-2.2888,-2.2888,-2.3717,-2.4878,-2.4849,-2.5633,-2.6779,-2.6779,-2.6779,-2.6779,-2.6779,-2.6779,-2.6712,-2.6525,-2.6849,-2.7327,-2.7595,-2.7991,-2.8312,-2.8538,-2.8039,-2.7497,-2.7377,-2.6688,-2.5943,-2.5943,-2.5594,-2.5312,-2.5312,-2.5312,-2.5312,-2.5312,-2.5733,-2.6274,-2.6839,-2.7368,-2.7897,-2.8426,-2.851,-2.851,-2.851,-2.851,-2.851,-2.8431,-2.8431,-2.8351,-2.8099,-2.8018,-2.7938,-2.7638,-2.7452,-2.7278,-2.7278,-2.6962,-2.6809,-2.6727,-2.6385,-2.5874,-2.5115,-2.4935,-2.4498,-2.38,-2.485,-2.5285,0.0,0.0,0.0,-2.0339,0.0,0.0,0.0,0.0,-1.9591,0.0,0.0,0.0,0.0,0.0,0.0,0.0,0.0,0.0,0.0,0.0,0.0,0.0,0.0,0.0,0.0,0.0,0.0,0.0,0.0,0.0,-1.8559,-1.9822,-2.03,-1.9845,-2.0071,-1.9965,-1.9515,-1.9265,-1.9754,-2.1003,-2.1017,-2.1699,-2.2888,-2.2888,-2.2888,-2.2888,-2.2888,-2.2888,-2.2888,-2.2888,-2.3717,-2.4878,-2.4849,-2.5633,-2.6779,-2.6779,-2.6779,-2.6779,-2.6779,-2.6645,-2.6472,-2.6326,-2.6536,-2.6919,-2.7537,-2.7434,-2.7293,-2.7866,-2.7162,-2.6233,-2.622,-2.5804,-2.5312,-2.5312,-2.5312,-2.5312,-2.5312,-2.5312,-2.5312,-2.5312,-2.5733,-2.6274,-2.6839,-2.7368,-2.7897,-2.8426,-2.851,-2.851,-2.851,-2.851,-2.8431,-2.8259,-2.8179,-2.8099,-2.7962,-2.7696,-2.736,-2.6974,-2.6891,-2.6809,-2.6644,-2.6644,-2.6479,-2.624,-2.5549,-2.5115,-2.4946,-2.4145,-2.379,-2.38,-2.3887,-2.3887,0.0,0.0,-2.1498,-2.0731,0.0,0.0,0.0,0.0,0.0,0.0,0.0,0.0,0.0,0.0,0.0,0.0,0.0,0.0,0.0,0.0,0.0,0.0,0.0,0.0,0.0,0.0,0.0,0.0,-1.8849,0.0,0.0,-2.0061,-2.004,-2.0623,-1.9933,-1.9623,-1.9833,-1.9362,-1.974,-2.1003,-2.1003,-2.1685,-2.2888,-2.2888,-2.2888,-2.2888,-2.2888,-2.2888,-2.2888,-2.2888,-2.3717,-2.4878,-2.4849,-2.5633,-2.6779,-2.6779,-2.6779,-2.6779,-2.6645,-2.6525,-2.6351,-2.6111,-2.6078,-2.6229,-2.6565,-2.6667,-2.67,-2.7207,-2.6769,-2.6233,-2.6233,-2.5734,-2.5312,-2.5312,-2.5312,-2.5312,-2.5312,-2.5312,-2.5312,-2.5312,-2.5733,-2.6274,-2.6839,-2.7368,-2.7897,-2.8426,-2.851,-2.851,-2.851,-2.851,-2.8431,-2.8259,-2.8111,-2.7869,-2.7441,-2.7126,-2.688,-2.6727,-2.6561,-2.6396,-2.6324,-2.5801,-2.5454,-2.538,-2.4669,-2.3983,-2.3484,-2.3222,-2.2872,-2.2422,-2.2422,-2.294,-1.9476,-2.0041,0.0,-2.0309,-2.0241,0.0,-1.9591,0.0,0.0,0.0,0.0,0.0,0.0,0.0,0.0,0.0,0.0,0.0,0.0,0.0,0.0,0.0,0.0,0.0,0.0,0.0,-1.9379,-2.0616,-1.9114,0.0,0.0,0.0,-1.9664,-2.0576,-1.9553,-1.9292,-1.9833,-1.9362,-1.974,-2.1003,-2.1003,-2.1685,-2.2888,-2.2888,-2.2888,-2.2888,-2.2888,-2.2888,-2.2888,-2.2888,-2.3572,-2.4559,-2.4713,-2.5487,-2.646,-2.6692,-2.6765,-2.6659,-2.6472,-2.6312,-2.6179,-2.616,-2.607,-2.5995,-2.6401,-2.6413,-2.6298,-2.6599,-2.6289,-2.5873,-2.5873,-2.5594,-2.5312,-2.5312,-2.5312,-2.5312,-2.5312,-2.5312,-2.5312,-2.5312,-2.5901,-2.6502,-2.6875,-2.7524,-2.8114,-2.8462,-2.851,-2.851,-2.851,-2.8431,-2.8351,-2.8111,-2.7869,-2.7452,-2.6869,-2.6633,-2.6396,-2.6396,-2.5979,-2.5717,-2.5717,-2.4935,-2.4509,-2.4509,-2.381,-2.3212,-2.2803,-2.253,-2.2176,-2.1741,-2.1741,-2.2167]}]]